Time,TemperatureF,DewpointF,PressureIn,WindDirection,WindDirectionDegrees,WindSpeedMPH,WindSpeedGustMPH,Humidity,HourlyPrecipIn,Conditions,Clouds,dailyrainin,SoftwareType,DateUTC
2013-02-19 00:00:00,38.4,34.6,30.25,SSW,201,0.0,0.0,86,0.00,,---,0.00,VWS V14.00,2013-02-19 05:00:00,
2013-02-19 00:01:00,38.3,34.5,30.26,SSW,201,0.0,0.0,86,0.00,,---,0.00,VWS V14.00,2013-02-19 05:01:00,
2013-02-19 00:02:00,38.3,34.5,30.25,SSW,201,0.0,0.0,86,0.00,,---,0.00,VWS V14.00,2013-02-19 05:02:00,
2013-02-19 00:03:00,38.3,34.5,30.25,SSW,201,0.0,0.0,86,0.00,,---,0.00,VWS V14.00,2013-02-19 05:03:00,
2013-02-19 00:04:00,38.3,34.5,30.25,SSW,201,0.0,0.0,86,0.00,,---,0.00,VWS V14.00,2013-02-19 05:04:00,
2013-02-19 00:05:00,38.4,34.9,30.25,SSW,201,0.0,0.0,87,0.00,,---,0.00,VWS V14.00,2013-02-19 05:05:00,
2013-02-19 00:06:00,38.4,34.6,30.25,SSW,201,0.0,0.0,86,0.00,,---,0.00,VWS V14.00,2013-02-19 05:06:00,
2013-02-19 00:07:00,38.4,34.6,30.25,SSW,201,0.0,0.0,86,0.00,,---,0.00,VWS V14.00,2013-02-19 05:07:00,
2013-02-19 00:08:00,38.4,34.6,30.25,SSW,201,0.0,0.0,86,0.00,,---,0.00,VWS V14.00,2013-02-19 05:08:00,
2013-02-19 00:09:00,38.4,34.9,30.25,SSW,201,0.0,0.0,87,0.00,,---,0.00,VWS V14.00,2013-02-19 05:09:00,
2013-02-19 00:10:00,38.4,34.9,30.26,SSW,201,0.0,0.0,87,0.00,,---,0.00,VWS V14.00,2013-02-19 05:10:00,
2013-02-19 00:11:00,38.4,34.9,30.25,SSW,201,0.0,0.0,87,0.00,,---,0.00,VWS V14.00,2013-02-19 05:11:00,
2013-02-19 00:12:00,38.4,34.9,30.25,SSW,201,0.0,0.0,87,0.00,,---,0.00,VWS V14.00,2013-02-19 05:12:00,
2013-02-19 00:13:00,38.4,34.9,30.25,SSW,201,0.0,0.0,87,0.00,,---,0.00,VWS V14.00,2013-02-19 05:13:00,
2013-02-19 00:14:00,38.4,34.9,30.25,SSW,201,0.0,0.0,87,0.00,,---,0.00,VWS V14.00,2013-02-19 05:14:00,
2013-02-19 00:15:00,38.4,34.9,30.26,SSW,201,0.0,0.0,87,0.00,,---,0.00,VWS V14.00,2013-02-19 05:15:00,
2013-02-19 00:16:00,38.4,34.9,30.26,SSW,201,0.0,0.0,87,0.00,,---,0.00,VWS V14.00,2013-02-19 05:16:00,
2013-02-19 00:17:00,38.4,34.9,30.26,SSW,201,0.0,0.0,87,0.00,,---,0.00,VWS V14.00,2013-02-19 05:17:00,
2013-02-19 00:18:00,38.4,34.9,30.26,SSW,201,0.0,0.0,87,0.00,,---,0.00,VWS V14.00,2013-02-19 05:18:00,
2013-02-19 00:19:00,38.4,34.9,30.26,SSW,201,0.0,0.0,87,0.00,,---,0.00,VWS V14.00,2013-02-19 05:19:00,
2013-02-19 00:20:00,38.5,35.0,30.26,SSW,201,0.0,0.0,87,0.00,,---,0.00,VWS V14.00,2013-02-19 05:20:00,
2013-02-19 00:21:00,38.4,34.9,30.26,SSW,201,0.0,0.0,87,0.00,,---,0.00,VWS V14.00,2013-02-19 05:21:00,
2013-02-19 00:22:00,38.4,34.9,30.26,SSW,201,0.0,0.0,87,0.00,,---,0.00,VWS V14.00,2013-02-19 05:22:00,
2013-02-19 00:23:00,38.4,34.9,30.26,SSW,201,0.0,0.0,87,0.00,,---,0.00,VWS V14.00,2013-02-19 05:23:00,
2013-02-19 00:24:00,38.4,34.9,30.26,SSW,201,0.0,0.0,87,0.00,,---,0.00,VWS V14.00,2013-02-19 05:24:00,
2013-02-19 00:25:00,38.5,35.3,30.26,SSW,201,0.0,0.0,88,0.00,,---,0.00,VWS V14.00,2013-02-19 05:25:00,
2013-02-19 00:26:00,38.4,34.9,30.26,SSW,201,0.0,0.0,87,0.00,,---,0.00,VWS V14.00,2013-02-19 05:26:00,
2013-02-19 00:27:00,38.5,35.0,30.26,SSW,201,0.0,0.0,87,0.00,,---,0.00,VWS V14.00,2013-02-19 05:27:00,
2013-02-19 00:28:00,38.5,35.3,30.26,SSW,201,0.0,0.0,88,0.00,,---,0.00,VWS V14.00,2013-02-19 05:28:00,
2013-02-19 00:29:00,38.5,35.3,30.26,SSW,201,0.0,0.0,88,0.00,,---,0.00,VWS V14.00,2013-02-19 05:29:00,
2013-02-19 00:30:00,38.5,35.3,30.25,SSW,201,0.0,0.0,88,0.00,,---,0.00,VWS V14.00,2013-02-19 05:30:00,
2013-02-19 00:31:00,38.5,35.3,30.26,SSW,201,0.0,0.0,88,0.00,,---,0.00,VWS V14.00,2013-02-19 05:31:00,
2013-02-19 00:32:00,38.5,35.0,30.25,SSW,201,0.0,0.0,87,0.00,,---,0.00,VWS V14.00,2013-02-19 05:32:00,
2013-02-19 00:33:00,38.6,35.1,30.25,SSW,201,0.0,0.0,87,0.00,,---,0.00,VWS V14.00,2013-02-19 05:33:00,
2013-02-19 00:34:00,38.5,35.3,30.25,SSW,201,0.0,0.0,88,0.00,,---,0.00,VWS V14.00,2013-02-19 05:34:00,
2013-02-19 00:35:00,38.6,35.4,30.24,SSW,201,0.0,0.0,88,0.00,,---,0.00,VWS V14.00,2013-02-19 05:35:00,
2013-02-19 00:36:00,38.5,35.3,30.25,SSW,201,0.0,0.0,88,0.00,,---,0.00,VWS V14.00,2013-02-19 05:36:00,
2013-02-19 00:37:00,38.6,35.4,30.25,SSW,201,0.0,0.0,88,0.00,,---,0.00,VWS V14.00,2013-02-19 05:37:00,
2013-02-19 00:38:00,38.6,35.4,30.25,SSW,201,0.0,0.0,88,0.00,,---,0.00,VWS V14.00,2013-02-19 05:38:00,
2013-02-19 00:39:00,38.5,35.3,30.24,SSW,201,0.0,0.0,88,0.00,,---,0.00,VWS V14.00,2013-02-19 05:39:00,
2013-02-19 00:40:00,38.6,35.4,30.24,SSW,201,0.0,0.0,88,0.00,,---,0.00,VWS V14.00,2013-02-19 05:40:00,
2013-02-19 00:41:00,38.6,35.4,30.24,SSW,201,0.0,0.0,88,0.00,,---,0.00,VWS V14.00,2013-02-19 05:41:00,
2013-02-19 00:42:00,38.6,35.4,30.24,SSW,201,0.0,0.0,88,0.00,,---,0.00,VWS V14.00,2013-02-19 05:42:00,
2013-02-19 00:43:00,38.6,35.4,30.24,SSW,201,0.0,0.0,88,0.00,,---,0.00,VWS V14.00,2013-02-19 05:43:00,
2013-02-19 00:44:00,38.6,35.4,30.24,SSW,201,0.0,0.0,88,0.00,,---,0.00,VWS V14.00,2013-02-19 05:44:00,
2013-02-19 00:45:00,38.6,35.4,30.25,SSW,201,0.0,0.0,88,0.00,,---,0.00,VWS V14.00,2013-02-19 05:45:00,
2013-02-19 00:46:00,38.6,35.4,30.24,SSW,201,0.0,0.0,88,0.00,,---,0.00,VWS V14.00,2013-02-19 05:46:00,
2013-02-19 00:47:00,38.6,35.4,30.24,SSW,201,0.0,0.0,88,0.00,,---,0.00,VWS V14.00,2013-02-19 05:47:00,
2013-02-19 00:48:00,38.6,35.4,30.24,SSW,201,0.0,0.0,88,0.00,,---,0.00,VWS V14.00,2013-02-19 05:48:00,
2013-02-19 00:49:00,38.6,35.4,30.24,SSW,201,0.0,0.0,88,0.00,,---,0.00,VWS V14.00,2013-02-19 05:49:00,
2013-02-19 00:50:00,38.7,35.5,30.25,SSW,201,0.0,0.0,88,0.00,,---,0.00,VWS V14.00,2013-02-19 05:50:00,
2013-02-19 00:51:00,38.6,35.4,30.25,SSW,201,0.0,0.0,88,0.00,,---,0.00,VWS V14.00,2013-02-19 05:51:00,
2013-02-19 00:52:00,38.6,35.4,30.25,SSW,201,0.0,0.0,88,0.00,,---,0.00,VWS V14.00,2013-02-19 05:52:00,
2013-02-19 00:53:00,38.6,35.4,30.25,SSW,201,0.0,0.0,88,0.00,,---,0.00,VWS V14.00,2013-02-19 05:53:00,
2013-02-19 00:54:00,38.6,35.4,30.25,SSW,201,0.0,0.0,88,0.00,,---,0.00,VWS V14.00,2013-02-19 05:54:00,
2013-02-19 00:55:00,38.8,35.6,30.25,SSW,201,0.0,0.0,88,0.00,,---,0.00,VWS V14.00,2013-02-19 05:55:00,
2013-02-19 00:56:00,38.7,35.5,30.25,SSW,201,0.0,0.0,88,0.00,,---,0.00,VWS V14.00,2013-02-19 05:56:00,
2013-02-19 00:57:00,38.7,35.5,30.25,SSW,201,0.0,0.0,88,0.00,,---,0.00,VWS V14.00,2013-02-19 05:57:00,
2013-02-19 00:58:00,38.7,35.5,30.25,SSW,201,0.0,0.0,88,0.00,,---,0.00,VWS V14.00,2013-02-19 05:58:00,
2013-02-19 00:59:00,38.7,35.5,30.25,SSW,201,0.0,0.0,88,0.00,,---,0.00,VWS V14.00,2013-02-19 05:59:00,
2013-02-19 01:00:00,38.8,35.8,30.25,SSW,201,0.0,0.0,89,0.00,,---,0.00,VWS V14.00,2013-02-19 06:00:00,
2013-02-19 01:01:00,38.7,35.5,30.25,SSW,201,0.0,0.0,88,0.00,,---,0.00,VWS V14.00,2013-02-19 06:01:00,
2013-02-19 01:02:00,38.8,35.6,30.25,SSW,201,0.0,0.0,88,0.00,,---,0.00,VWS V14.00,2013-02-19 06:02:00,
2013-02-19 01:03:00,38.8,35.8,30.25,SSW,201,0.0,0.0,89,0.00,,---,0.00,VWS V14.00,2013-02-19 06:03:00,
2013-02-19 01:04:00,38.8,35.8,30.25,SSW,201,0.0,0.0,89,0.00,,---,0.00,VWS V14.00,2013-02-19 06:04:00,
2013-02-19 01:05:00,38.9,35.9,30.24,SSW,201,0.0,0.0,89,0.00,,---,0.00,VWS V14.00,2013-02-19 06:05:00,
2013-02-19 01:06:00,38.8,35.8,30.25,SSW,201,0.0,0.0,89,0.00,,---,0.00,VWS V14.00,2013-02-19 06:06:00,
2013-02-19 01:07:00,38.9,35.9,30.25,SSW,201,0.0,0.0,89,0.00,,---,0.00,VWS V14.00,2013-02-19 06:07:00,
2013-02-19 01:08:00,38.9,35.9,30.25,SSW,201,0.0,0.0,89,0.00,,---,0.00,VWS V14.00,2013-02-19 06:08:00,
2013-02-19 01:09:00,38.9,35.9,30.25,SSW,201,0.0,0.0,89,0.00,,---,0.00,VWS V14.00,2013-02-19 06:09:00,
2013-02-19 01:10:00,39.1,36.1,30.24,SSW,201,0.0,0.0,89,0.00,,---,0.00,VWS V14.00,2013-02-19 06:10:00,
2013-02-19 01:11:00,39.0,36.0,30.24,SSW,201,0.0,0.0,89,0.00,,---,0.00,VWS V14.00,2013-02-19 06:11:00,
2013-02-19 01:12:00,39.0,36.0,30.24,SSW,201,0.0,0.0,89,0.00,,---,0.00,VWS V14.00,2013-02-19 06:12:00,
2013-02-19 01:13:00,39.0,36.0,30.24,SSW,201,0.0,0.0,89,0.00,,---,0.00,VWS V14.00,2013-02-19 06:13:00,
2013-02-19 01:14:00,39.0,36.0,30.24,SSW,201,0.0,0.0,89,0.00,,---,0.00,VWS V14.00,2013-02-19 06:14:00,
2013-02-19 01:15:00,39.1,36.1,30.24,SSW,201,0.0,0.0,89,0.00,,---,0.00,VWS V14.00,2013-02-19 06:15:00,
2013-02-19 01:16:00,39.0,36.0,30.24,SSW,201,0.0,0.0,89,0.00,,---,0.00,VWS V14.00,2013-02-19 06:16:00,
2013-02-19 01:17:00,39.1,36.1,30.24,SSW,201,0.0,0.0,89,0.00,,---,0.00,VWS V14.00,2013-02-19 06:17:00,
2013-02-19 01:18:00,39.1,36.1,30.24,SSW,201,0.0,0.0,89,0.00,,---,0.00,VWS V14.00,2013-02-19 06:18:00,
2013-02-19 01:19:00,39.1,36.1,30.24,SSW,201,0.0,0.0,89,0.00,,---,0.00,VWS V14.00,2013-02-19 06:19:00,
2013-02-19 01:20:00,39.2,36.2,30.24,SSW,201,0.0,0.0,89,0.00,,---,0.00,VWS V14.00,2013-02-19 06:20:00,
2013-02-19 01:21:00,39.1,36.1,30.24,SSW,201,0.0,0.0,89,0.00,,---,0.00,VWS V14.00,2013-02-19 06:21:00,
2013-02-19 01:22:00,39.2,36.2,30.24,SSW,201,0.0,0.0,89,0.00,,---,0.00,VWS V14.00,2013-02-19 06:22:00,
2013-02-19 01:23:00,39.2,36.2,30.24,SSW,201,0.0,0.0,89,0.00,,---,0.00,VWS V14.00,2013-02-19 06:23:00,
2013-02-19 01:24:00,39.2,36.2,30.24,SSW,201,0.0,0.0,89,0.00,,---,0.00,VWS V14.00,2013-02-19 06:24:00,
2013-02-19 01:25:00,39.3,36.6,30.24,SSW,201,0.0,0.0,90,0.00,,---,0.00,VWS V14.00,2013-02-19 06:25:00,
2013-02-19 01:26:00,39.2,36.2,30.24,SSW,201,0.0,0.0,89,0.00,,---,0.00,VWS V14.00,2013-02-19 06:26:00,
2013-02-19 01:27:00,39.2,36.2,30.24,SSW,201,0.0,0.0,89,0.00,,---,0.00,VWS V14.00,2013-02-19 06:27:00,
2013-02-19 01:28:00,39.3,36.6,30.24,SSW,201,0.0,0.0,90,0.00,,---,0.00,VWS V14.00,2013-02-19 06:28:00,
2013-02-19 01:29:00,39.3,36.6,30.24,SSW,201,0.0,0.0,90,0.00,,---,0.00,VWS V14.00,2013-02-19 06:29:00,
2013-02-19 01:30:00,39.5,36.8,30.24,SSW,201,0.0,0.0,90,0.00,,---,0.00,VWS V14.00,2013-02-19 06:30:00,
2013-02-19 01:31:00,39.3,36.6,30.24,SSW,201,0.0,0.0,90,0.00,,---,0.00,VWS V14.00,2013-02-19 06:31:00,
2013-02-19 01:32:00,39.4,36.7,30.24,SSW,201,0.0,0.0,90,0.00,,---,0.00,VWS V14.00,2013-02-19 06:32:00,
2013-02-19 01:33:00,39.4,36.7,30.24,SSW,201,0.0,0.0,90,0.00,,---,0.00,VWS V14.00,2013-02-19 06:33:00,
2013-02-19 01:34:00,39.4,36.7,30.24,SSW,201,0.0,0.0,90,0.00,,---,0.00,VWS V14.00,2013-02-19 06:34:00,
2013-02-19 01:35:00,39.7,37.0,30.23,SSW,201,0.0,0.0,90,0.00,,---,0.00,VWS V14.00,2013-02-19 06:35:00,
2013-02-19 01:36:00,39.5,36.8,30.24,SSW,201,0.0,0.0,90,0.00,,---,0.00,VWS V14.00,2013-02-19 06:36:00,
2013-02-19 01:37:00,39.5,36.8,30.23,SSW,201,0.0,0.0,90,0.00,,---,0.00,VWS V14.00,2013-02-19 06:37:00,
2013-02-19 01:38:00,39.6,36.9,30.23,SSW,201,0.0,0.0,90,0.00,,---,0.00,VWS V14.00,2013-02-19 06:38:00,
2013-02-19 01:39:00,39.6,36.9,30.24,SSW,201,0.0,0.0,90,0.00,,---,0.00,VWS V14.00,2013-02-19 06:39:00,
2013-02-19 01:40:00,39.8,37.1,30.23,SSW,201,0.0,0.0,90,0.00,,---,0.00,VWS V14.00,2013-02-19 06:40:00,
2013-02-19 01:41:00,39.7,37.0,30.23,SSW,201,0.0,0.0,90,0.00,,---,0.00,VWS V14.00,2013-02-19 06:41:00,
2013-02-19 01:42:00,39.7,37.0,30.23,SSW,201,0.0,0.0,90,0.00,,---,0.00,VWS V14.00,2013-02-19 06:42:00,
2013-02-19 01:43:00,39.7,37.0,30.23,SSW,201,0.0,0.0,90,0.00,,---,0.00,VWS V14.00,2013-02-19 06:43:00,
2013-02-19 01:44:00,39.8,37.1,30.24,SSW,201,0.0,0.0,90,0.00,,---,0.00,VWS V14.00,2013-02-19 06:44:00,
2013-02-19 01:45:00,40.0,37.3,30.24,SSW,201,0.0,0.0,90,0.00,,---,0.00,VWS V14.00,2013-02-19 06:45:00,
2013-02-19 01:46:00,39.8,37.1,30.23,SSW,201,0.0,0.0,90,0.00,,---,0.00,VWS V14.00,2013-02-19 06:46:00,
2013-02-19 01:47:00,39.8,37.1,30.24,SSW,201,0.0,0.0,90,0.00,,---,0.00,VWS V14.00,2013-02-19 06:47:00,
2013-02-19 01:48:00,39.9,37.2,30.24,SSW,201,0.0,0.0,90,0.00,,---,0.00,VWS V14.00,2013-02-19 06:48:00,
2013-02-19 01:49:00,39.9,37.2,30.24,SSW,201,0.0,0.0,90,0.00,,---,0.00,VWS V14.00,2013-02-19 06:49:00,
2013-02-19 01:50:00,40.1,37.7,30.24,SSW,201,0.0,0.0,91,0.00,,---,0.00,VWS V14.00,2013-02-19 06:50:00,
2013-02-19 01:51:00,40.0,37.6,30.24,SSW,201,0.0,0.0,91,0.00,,---,0.00,VWS V14.00,2013-02-19 06:51:00,
2013-02-19 01:52:00,40.0,37.6,30.24,SSW,201,0.0,0.0,91,0.00,,---,0.00,VWS V14.00,2013-02-19 06:52:00,
2013-02-19 01:53:00,40.1,37.7,30.24,SSW,201,0.0,0.0,91,0.00,,---,0.00,VWS V14.00,2013-02-19 06:53:00,
2013-02-19 01:54:00,40.1,37.7,30.24,SSW,201,0.0,0.0,91,0.00,,---,0.00,VWS V14.00,2013-02-19 06:54:00,
2013-02-19 01:55:00,40.3,37.9,30.23,SSW,201,0.0,0.0,91,0.00,,---,0.00,VWS V14.00,2013-02-19 06:55:00,
2013-02-19 01:56:00,40.2,37.8,30.24,SSW,201,0.0,0.0,91,0.00,,---,0.00,VWS V14.00,2013-02-19 06:56:00,
2013-02-19 01:57:00,40.2,37.8,30.24,SSW,201,0.0,0.0,91,0.00,,---,0.00,VWS V14.00,2013-02-19 06:57:00,
2013-02-19 01:58:00,40.2,37.8,30.24,SSW,201,0.0,0.0,91,0.00,,---,0.00,VWS V14.00,2013-02-19 06:58:00,
2013-02-19 01:59:00,40.3,37.9,30.24,SSW,201,0.0,0.0,91,0.00,,---,0.00,VWS V14.00,2013-02-19 06:59:00,
2013-02-19 02:00:00,40.6,38.2,30.23,SSW,201,0.0,0.0,91,0.00,,---,0.00,VWS V14.00,2013-02-19 07:00:00,
2013-02-19 02:01:00,40.4,38.0,30.23,SSW,201,0.0,0.0,91,0.00,,---,0.00,VWS V14.00,2013-02-19 07:01:00,
2013-02-19 02:02:00,40.4,38.0,30.23,SSW,201,0.0,0.0,91,0.00,,---,0.00,VWS V14.00,2013-02-19 07:02:00,
2013-02-19 02:03:00,40.4,38.0,30.23,SSW,201,0.0,0.0,91,0.00,,---,0.00,VWS V14.00,2013-02-19 07:03:00,
2013-02-19 02:04:00,40.5,38.1,30.23,SSW,201,0.0,0.0,91,0.00,,---,0.00,VWS V14.00,2013-02-19 07:04:00,
2013-02-19 02:05:00,40.7,38.3,30.22,SSW,201,0.0,0.0,91,0.00,,---,0.00,VWS V14.00,2013-02-19 07:05:00,
2013-02-19 02:06:00,40.6,38.2,30.23,SSW,201,0.0,0.0,91,0.00,,---,0.00,VWS V14.00,2013-02-19 07:06:00,
2013-02-19 02:07:00,40.6,38.2,30.23,SSW,201,0.0,0.0,91,0.00,,---,0.00,VWS V14.00,2013-02-19 07:07:00,
2013-02-19 02:08:00,40.6,38.2,30.23,SSW,201,0.0,0.0,91,0.00,,---,0.00,VWS V14.00,2013-02-19 07:08:00,
2013-02-19 02:09:00,40.7,38.3,30.23,SSW,201,0.0,0.0,91,0.00,,---,0.00,VWS V14.00,2013-02-19 07:09:00,
2013-02-19 02:10:00,40.9,38.5,30.22,SSW,194,1.0,1.0,91,0.00,,---,0.00,VWS V14.00,2013-02-19 07:10:00,
2013-02-19 02:11:00,40.7,38.3,30.22,SSW,201,0.0,0.0,91,0.00,,---,0.00,VWS V14.00,2013-02-19 07:11:00,
2013-02-19 02:12:00,40.7,38.3,30.22,SSW,201,0.0,1.0,91,0.00,,---,0.00,VWS V14.00,2013-02-19 07:12:00,
2013-02-19 02:13:00,40.8,38.4,30.22,SSW,201,0.0,0.0,91,0.00,,---,0.00,VWS V14.00,2013-02-19 07:13:00,
2013-02-19 02:14:00,40.9,38.5,30.22,SSW,194,0.0,0.0,91,0.00,,---,0.00,VWS V14.00,2013-02-19 07:14:00,
2013-02-19 02:15:00,41.1,38.7,30.22,SSW,194,0.0,0.0,91,0.00,,---,0.00,VWS V14.00,2013-02-19 07:15:00,
2013-02-19 02:16:00,40.9,38.5,30.22,SSW,195,1.0,1.0,91,0.00,,---,0.00,VWS V14.00,2013-02-19 07:16:00,
2013-02-19 02:17:00,41.0,38.6,30.22,SSW,195,0.0,1.0,91,0.00,,---,0.00,VWS V14.00,2013-02-19 07:17:00,
2013-02-19 02:18:00,41.0,38.6,30.22,SSW,194,0.0,0.0,91,0.00,,---,0.00,VWS V14.00,2013-02-19 07:18:00,
2013-02-19 02:19:00,41.1,38.7,30.22,SSW,195,0.0,0.0,91,0.00,,---,0.00,VWS V14.00,2013-02-19 07:19:00,
2013-02-19 02:20:00,41.3,38.9,30.21,SSW,194,0.0,0.0,91,0.00,,---,0.00,VWS V14.00,2013-02-19 07:20:00,
2013-02-19 02:21:00,41.2,38.8,30.22,SSW,194,0.0,0.0,91,0.00,,---,0.00,VWS V14.00,2013-02-19 07:21:00,
2013-02-19 02:22:00,41.2,38.8,30.22,SSW,194,0.0,0.0,91,0.00,,---,0.00,VWS V14.00,2013-02-19 07:22:00,
2013-02-19 02:23:00,41.2,38.8,30.22,SSW,194,0.0,0.0,91,0.00,,---,0.00,VWS V14.00,2013-02-19 07:23:00,
2013-02-19 02:24:00,41.3,38.9,30.21,SSW,195,0.0,0.0,91,0.00,,---,0.00,VWS V14.00,2013-02-19 07:24:00,
2013-02-19 02:25:00,41.5,39.1,30.20,SSW,194,0.0,0.0,91,0.00,,---,0.00,VWS V14.00,2013-02-19 07:25:00,
2013-02-19 02:26:00,41.3,38.9,30.21,SSW,194,0.0,0.0,91,0.00,,---,0.00,VWS V14.00,2013-02-19 07:26:00,
2013-02-19 02:27:00,41.3,38.9,30.21,SSW,194,0.0,0.0,91,0.00,,---,0.00,VWS V14.00,2013-02-19 07:27:00,
2013-02-19 02:28:00,41.4,39.0,30.21,SSW,194,0.0,0.0,91,0.00,,---,0.00,VWS V14.00,2013-02-19 07:28:00,
2013-02-19 02:29:00,41.4,39.0,30.21,SSW,194,0.0,1.0,91,0.00,,---,0.00,VWS V14.00,2013-02-19 07:29:00,
2013-02-19 02:30:00,41.5,39.1,30.20,SSW,194,0.0,0.0,91,0.00,,---,0.00,VWS V14.00,2013-02-19 07:30:00,
2013-02-19 02:31:00,41.5,39.1,30.20,SSW,194,0.0,0.0,91,0.00,,---,0.00,VWS V14.00,2013-02-19 07:31:00,
2013-02-19 02:32:00,41.5,39.1,30.21,SSW,194,0.0,0.0,91,0.00,,---,0.00,VWS V14.00,2013-02-19 07:32:00,
2013-02-19 02:33:00,41.5,39.1,30.20,SSW,194,0.0,0.0,91,0.00,,---,0.00,VWS V14.00,2013-02-19 07:33:00,
2013-02-19 02:34:00,41.5,39.1,30.20,SSW,194,0.0,0.0,91,0.00,,---,0.00,VWS V14.00,2013-02-19 07:34:00,
2013-02-19 02:35:00,41.6,39.2,30.20,SSW,194,0.0,0.0,91,0.00,,---,0.00,VWS V14.00,2013-02-19 07:35:00,
2013-02-19 02:36:00,41.6,39.2,30.20,SSW,194,0.0,0.0,91,0.00,,---,0.00,VWS V14.00,2013-02-19 07:36:00,
2013-02-19 02:37:00,41.6,39.2,30.20,SSW,194,0.0,0.0,91,0.00,,---,0.00,VWS V14.00,2013-02-19 07:37:00,
2013-02-19 02:38:00,41.6,39.2,30.20,SSW,194,0.0,0.0,91,0.00,,---,0.00,VWS V14.00,2013-02-19 07:38:00,
2013-02-19 02:39:00,41.6,39.2,30.20,SSW,194,0.0,0.0,91,0.00,,---,0.00,VWS V14.00,2013-02-19 07:39:00,
2013-02-19 02:40:00,41.7,39.0,30.20,SSW,194,0.0,0.0,90,0.00,,---,0.00,VWS V14.00,2013-02-19 07:40:00,
2013-02-19 02:41:00,41.6,39.2,30.20,SSW,194,0.0,0.0,91,0.00,,---,0.00,VWS V14.00,2013-02-19 07:41:00,
2013-02-19 02:42:00,41.6,39.2,30.20,SSW,194,0.0,0.0,91,0.00,,---,0.00,VWS V14.00,2013-02-19 07:42:00,
2013-02-19 02:43:00,41.7,39.0,30.20,SSW,194,0.0,0.0,90,0.00,,---,0.00,VWS V14.00,2013-02-19 07:43:00,
2013-02-19 02:44:00,41.7,39.0,30.20,SSW,194,0.0,0.0,90,0.00,,---,0.00,VWS V14.00,2013-02-19 07:44:00,
2013-02-19 02:45:00,41.8,39.1,30.19,SSW,194,0.0,0.0,90,0.00,,---,0.00,VWS V14.00,2013-02-19 07:45:00,
2013-02-19 02:46:00,41.7,39.0,30.20,SSW,194,0.0,0.0,90,0.00,,---,0.00,VWS V14.00,2013-02-19 07:46:00,
2013-02-19 02:47:00,41.7,39.0,30.19,SSW,194,0.0,0.0,90,0.00,,---,0.00,VWS V14.00,2013-02-19 07:47:00,
2013-02-19 02:48:00,41.7,39.0,30.19,SSW,194,0.0,0.0,90,0.00,,---,0.00,VWS V14.00,2013-02-19 07:48:00,
2013-02-19 02:49:00,41.8,39.1,30.19,SSW,194,0.0,0.0,90,0.00,,---,0.00,VWS V14.00,2013-02-19 07:49:00,
2013-02-19 02:50:00,41.8,39.1,30.19,SSW,194,0.0,0.0,90,0.00,,---,0.00,VWS V14.00,2013-02-19 07:50:00,
2013-02-19 02:51:00,41.8,39.1,30.19,SSW,194,0.0,0.0,90,0.00,,---,0.00,VWS V14.00,2013-02-19 07:51:00,
2013-02-19 02:52:00,41.7,39.0,30.19,SSW,194,0.0,0.0,90,0.00,,---,0.00,VWS V14.00,2013-02-19 07:52:00,
2013-02-19 02:53:00,41.8,39.1,30.19,SSW,195,0.0,0.0,90,0.00,,---,0.00,VWS V14.00,2013-02-19 07:53:00,
2013-02-19 02:54:00,41.8,39.1,30.19,SSW,194,0.0,0.0,90,0.00,,---,0.00,VWS V14.00,2013-02-19 07:54:00,
2013-02-19 02:55:00,41.8,39.1,30.19,SSW,194,0.0,0.0,90,0.00,,---,0.00,VWS V14.00,2013-02-19 07:55:00,
2013-02-19 02:56:00,41.8,39.1,30.19,SSW,194,0.0,0.0,90,0.00,,---,0.00,VWS V14.00,2013-02-19 07:56:00,
2013-02-19 02:57:00,41.8,39.1,30.19,SSW,194,0.0,0.0,90,0.00,,---,0.00,VWS V14.00,2013-02-19 07:57:00,
2013-02-19 02:58:00,41.8,39.1,30.19,SSW,194,0.0,0.0,90,0.00,,---,0.00,VWS V14.00,2013-02-19 07:58:00,
2013-02-19 02:59:00,41.8,39.1,30.19,SSW,194,0.0,0.0,90,0.00,,---,0.00,VWS V14.00,2013-02-19 07:59:00,
2013-02-19 03:00:00,41.8,39.1,30.19,SSW,194,0.0,0.0,90,0.00,,---,0.00,VWS V14.00,2013-02-19 08:00:00,
2013-02-19 03:01:00,41.8,39.1,30.19,SSW,194,0.0,0.0,90,0.00,,---,0.00,VWS V14.00,2013-02-19 08:01:00,
2013-02-19 03:02:00,41.8,39.1,30.19,SSW,194,0.0,0.0,90,0.00,,---,0.00,VWS V14.00,2013-02-19 08:02:00,
2013-02-19 03:03:00,41.8,39.1,30.19,SSW,195,0.0,0.0,90,0.00,,---,0.00,VWS V14.00,2013-02-19 08:03:00,
2013-02-19 03:04:00,41.8,39.1,30.19,SSW,194,0.0,0.0,90,0.00,,---,0.00,VWS V14.00,2013-02-19 08:04:00,
2013-02-19 03:05:00,41.8,39.1,30.18,SSW,194,0.0,0.0,90,0.00,,---,0.00,VWS V14.00,2013-02-19 08:05:00,
2013-02-19 03:06:00,41.8,39.1,30.19,SSW,194,0.0,0.0,90,0.00,,---,0.00,VWS V14.00,2013-02-19 08:06:00,
2013-02-19 03:07:00,41.8,39.1,30.18,SSW,194,0.0,0.0,90,0.00,,---,0.00,VWS V14.00,2013-02-19 08:07:00,
2013-02-19 03:08:00,41.8,39.1,30.18,SSW,195,0.0,0.0,90,0.00,,---,0.00,VWS V14.00,2013-02-19 08:08:00,
2013-02-19 03:09:00,41.8,39.1,30.18,SSW,195,0.0,0.0,90,0.00,,---,0.00,VWS V14.00,2013-02-19 08:09:00,
2013-02-19 03:10:00,41.8,39.1,30.18,SSW,194,0.0,0.0,90,0.00,,---,0.00,VWS V14.00,2013-02-19 08:10:00,
2013-02-19 03:11:00,41.8,39.1,30.18,SSW,194,0.0,0.0,90,0.00,,---,0.00,VWS V14.00,2013-02-19 08:11:00,
2013-02-19 03:12:00,41.8,39.1,30.18,SSW,194,0.0,0.0,90,0.00,,---,0.00,VWS V14.00,2013-02-19 08:12:00,
2013-02-19 03:13:00,41.8,39.1,30.18,SSW,194,0.0,0.0,90,0.00,,---,0.00,VWS V14.00,2013-02-19 08:13:00,
2013-02-19 03:14:00,41.8,39.1,30.18,SSW,194,0.0,0.0,90,0.00,,---,0.00,VWS V14.00,2013-02-19 08:14:00,
2013-02-19 03:15:00,41.7,39.0,30.17,SSW,194,0.0,0.0,90,0.00,,---,0.00,VWS V14.00,2013-02-19 08:15:00,
2013-02-19 03:16:00,41.8,39.1,30.18,SSW,194,0.0,0.0,90,0.00,,---,0.00,VWS V14.00,2013-02-19 08:16:00,
2013-02-19 03:17:00,41.8,39.1,30.18,SSW,194,0.0,0.0,90,0.00,,---,0.00,VWS V14.00,2013-02-19 08:17:00,
2013-02-19 03:18:00,41.8,39.1,30.18,SSW,194,0.0,0.0,90,0.00,,---,0.00,VWS V14.00,2013-02-19 08:18:00,
2013-02-19 03:19:00,41.8,39.1,30.18,SSW,194,0.0,0.0,90,0.00,,---,0.00,VWS V14.00,2013-02-19 08:19:00,
2013-02-19 03:20:00,41.7,39.0,30.17,SSW,194,0.0,0.0,90,0.00,,---,0.00,VWS V14.00,2013-02-19 08:20:00,
2013-02-19 03:21:00,41.7,39.0,30.17,SSW,194,0.0,0.0,90,0.00,,---,0.00,VWS V14.00,2013-02-19 08:21:00,
2013-02-19 03:22:00,41.8,39.1,30.17,SSW,194,0.0,0.0,90,0.00,,---,0.00,VWS V14.00,2013-02-19 08:22:00,
2013-02-19 03:23:00,41.7,39.0,30.17,SSW,194,0.0,0.0,90,0.00,,---,0.00,VWS V14.00,2013-02-19 08:23:00,
2013-02-19 03:24:00,41.7,39.0,30.17,SSW,194,0.0,0.0,90,0.00,,---,0.00,VWS V14.00,2013-02-19 08:24:00,
2013-02-19 03:25:00,41.6,38.9,30.17,SSW,194,0.0,0.0,90,0.00,,---,0.00,VWS V14.00,2013-02-19 08:25:00,
2013-02-19 03:26:00,41.7,39.0,30.17,SSW,194,0.0,0.0,90,0.00,,---,0.00,VWS V14.00,2013-02-19 08:26:00,
2013-02-19 03:27:00,41.7,39.0,30.17,SSW,194,0.0,0.0,90,0.00,,---,0.00,VWS V14.00,2013-02-19 08:27:00,
2013-02-19 03:28:00,41.7,39.0,30.17,SSW,194,0.0,0.0,90,0.00,,---,0.00,VWS V14.00,2013-02-19 08:28:00,
2013-02-19 03:29:00,41.7,39.0,30.17,SSW,194,0.0,0.0,90,0.00,,---,0.00,VWS V14.00,2013-02-19 08:29:00,
2013-02-19 03:30:00,41.7,39.0,30.17,SSW,194,0.0,1.0,90,0.00,,---,0.00,VWS V14.00,2013-02-19 08:30:00,
2013-02-19 03:31:00,41.7,39.0,30.17,SSW,194,0.0,0.0,90,0.00,,---,0.00,VWS V14.00,2013-02-19 08:31:00,
2013-02-19 03:32:00,41.7,39.0,30.17,SSW,194,0.0,0.0,90,0.00,,---,0.00,VWS V14.00,2013-02-19 08:32:00,
2013-02-19 03:33:00,41.7,39.0,30.17,SSW,194,0.0,0.0,90,0.00,,---,0.00,VWS V14.00,2013-02-19 08:33:00,
2013-02-19 03:34:00,41.7,39.0,30.17,SSW,194,0.0,0.0,90,0.00,,---,0.00,VWS V14.00,2013-02-19 08:34:00,
2013-02-19 03:35:00,41.8,39.1,30.17,SSW,194,0.0,0.0,90,0.00,,---,0.00,VWS V14.00,2013-02-19 08:35:00,
2013-02-19 03:36:00,41.7,39.0,30.17,SSW,194,0.0,1.0,90,0.00,,---,0.00,VWS V14.00,2013-02-19 08:36:00,
2013-02-19 03:37:00,41.7,39.0,30.17,SSW,194,0.0,0.0,90,0.00,,---,0.00,VWS V14.00,2013-02-19 08:37:00,
2013-02-19 03:38:00,41.7,39.0,30.17,SSW,194,0.0,0.0,90,0.00,,---,0.00,VWS V14.00,2013-02-19 08:38:00,
2013-02-19 03:39:00,41.7,39.0,30.17,SSW,194,0.0,1.0,90,0.00,,---,0.00,VWS V14.00,2013-02-19 08:39:00,
2013-02-19 03:40:00,41.8,39.4,30.17,SSW,194,0.0,0.0,91,0.00,,---,0.00,VWS V14.00,2013-02-19 08:40:00,
2013-02-19 03:41:00,41.8,39.1,30.17,SSW,194,0.0,0.0,90,0.00,,---,0.00,VWS V14.00,2013-02-19 08:41:00,
2013-02-19 03:42:00,41.8,39.4,30.17,SSW,194,0.0,0.0,91,0.00,,---,0.00,VWS V14.00,2013-02-19 08:42:00,
2013-02-19 03:43:00,41.8,39.4,30.17,SSW,194,0.0,0.0,91,0.00,,---,0.00,VWS V14.00,2013-02-19 08:43:00,
2013-02-19 03:44:00,41.8,39.4,30.16,SSW,194,0.0,0.0,91,0.00,,---,0.00,VWS V14.00,2013-02-19 08:44:00,
2013-02-19 03:45:00,41.9,39.5,30.16,SSW,194,0.0,0.0,91,0.00,,---,0.00,VWS V14.00,2013-02-19 08:45:00,
2013-02-19 03:46:00,41.8,39.4,30.17,SSW,194,0.0,0.0,91,0.00,,---,0.00,VWS V14.00,2013-02-19 08:46:00,
2013-02-19 03:47:00,41.8,39.4,30.16,SSW,194,0.0,0.0,91,0.00,,---,0.00,VWS V14.00,2013-02-19 08:47:00,
2013-02-19 03:48:00,41.8,39.4,30.17,SSW,194,0.0,0.0,91,0.00,,---,0.00,VWS V14.00,2013-02-19 08:48:00,
2013-02-19 03:49:00,41.9,39.5,30.16,SSW,194,0.0,0.0,91,0.00,,---,0.00,VWS V14.00,2013-02-19 08:49:00,
2013-02-19 03:50:00,42.0,39.6,30.16,SSW,194,0.0,0.0,91,0.00,,---,0.00,VWS V14.00,2013-02-19 08:50:00,
2013-02-19 03:51:00,41.9,39.5,30.16,SSW,194,0.0,0.0,91,0.00,,---,0.00,VWS V14.00,2013-02-19 08:51:00,
2013-02-19 03:52:00,41.9,39.5,30.16,SSW,194,0.0,0.0,91,0.00,,---,0.00,VWS V14.00,2013-02-19 08:52:00,
2013-02-19 03:53:00,41.9,39.5,30.16,SSW,194,0.0,0.0,91,0.00,,---,0.00,VWS V14.00,2013-02-19 08:53:00,
2013-02-19 03:54:00,41.9,39.5,30.16,SSW,194,0.0,0.0,91,0.00,,---,0.00,VWS V14.00,2013-02-19 08:54:00,
2013-02-19 03:55:00,42.1,40.0,30.16,South,182,0.0,0.0,92,0.00,,---,0.00,VWS V14.00,2013-02-19 08:55:00,
2013-02-19 03:56:00,42.0,39.6,30.16,SSW,194,1.0,2.0,91,0.00,,---,0.00,VWS V14.00,2013-02-19 08:56:00,
2013-02-19 03:57:00,42.0,39.6,30.16,South,183,2.0,2.0,91,0.00,,---,0.00,VWS V14.00,2013-02-19 08:57:00,
2013-02-19 03:58:00,42.0,39.6,30.16,South,182,0.0,2.0,91,0.00,,---,0.00,VWS V14.00,2013-02-19 08:58:00,
2013-02-19 03:59:00,42.1,40.0,30.16,South,182,0.0,1.0,92,0.00,,---,0.00,VWS V14.00,2013-02-19 08:59:00,
2013-02-19 04:00:00,42.3,40.2,30.16,South,182,0.0,0.0,92,0.00,,---,0.00,VWS V14.00,2013-02-19 09:00:00,
2013-02-19 04:01:00,42.2,40.0,30.16,South,182,0.0,0.0,92,0.00,,---,0.00,VWS V14.00,2013-02-19 09:01:00,
2013-02-19 04:02:00,42.2,40.0,30.16,South,182,0.0,0.0,92,0.00,,---,0.00,VWS V14.00,2013-02-19 09:02:00,
2013-02-19 04:03:00,42.2,40.0,30.16,South,182,0.0,0.0,92,0.00,,---,0.00,VWS V14.00,2013-02-19 09:03:00,
2013-02-19 04:04:00,42.2,40.0,30.16,South,182,0.0,0.0,92,0.00,,---,0.00,VWS V14.00,2013-02-19 09:04:00,
2013-02-19 04:05:00,42.3,40.2,30.15,South,182,0.0,0.0,92,0.00,,---,0.00,VWS V14.00,2013-02-19 09:05:00,
2013-02-19 04:06:00,42.2,40.0,30.16,South,182,0.0,0.0,92,0.00,,---,0.00,VWS V14.00,2013-02-19 09:06:00,
2013-02-19 04:07:00,42.3,40.2,30.15,South,182,0.0,0.0,92,0.00,,---,0.00,VWS V14.00,2013-02-19 09:07:00,
2013-02-19 04:08:00,42.3,40.2,30.16,South,182,0.0,0.0,92,0.00,,---,0.00,VWS V14.00,2013-02-19 09:08:00,
2013-02-19 04:09:00,42.3,40.2,30.15,South,182,0.0,0.0,92,0.00,,---,0.00,VWS V14.00,2013-02-19 09:09:00,
2013-02-19 04:10:00,42.4,40.2,30.15,South,182,0.0,0.0,92,0.00,,---,0.00,VWS V14.00,2013-02-19 09:10:00,
2013-02-19 04:11:00,42.3,40.2,30.15,South,182,0.0,0.0,92,0.00,,---,0.00,VWS V14.00,2013-02-19 09:11:00,
2013-02-19 04:12:00,42.3,40.2,30.15,South,182,0.0,0.0,92,0.00,,---,0.00,VWS V14.00,2013-02-19 09:12:00,
2013-02-19 04:13:00,42.3,40.2,30.15,South,182,0.0,0.0,92,0.00,,---,0.00,VWS V14.00,2013-02-19 09:13:00,
2013-02-19 04:14:00,42.3,40.2,30.15,South,182,0.0,0.0,92,0.00,,---,0.00,VWS V14.00,2013-02-19 09:14:00,
2013-02-19 04:15:00,42.4,40.2,30.15,South,182,0.0,0.0,92,0.00,,---,0.00,VWS V14.00,2013-02-19 09:15:00,
2013-02-19 04:16:00,42.4,40.2,30.15,South,182,0.0,0.0,92,0.00,,---,0.00,VWS V14.00,2013-02-19 09:16:00,
2013-02-19 04:17:00,42.4,40.2,30.15,South,182,0.0,0.0,92,0.00,,---,0.00,VWS V14.00,2013-02-19 09:17:00,
2013-02-19 04:18:00,42.4,40.2,30.15,South,182,0.0,0.0,92,0.00,,---,0.00,VWS V14.00,2013-02-19 09:18:00,
2013-02-19 04:19:00,42.4,40.2,30.15,South,182,0.0,0.0,92,0.00,,---,0.00,VWS V14.00,2013-02-19 09:19:00,
2013-02-19 04:20:00,42.5,40.3,30.15,South,182,0.0,0.0,92,0.00,,---,0.00,VWS V14.00,2013-02-19 09:20:00,
2013-02-19 04:21:00,42.4,40.2,30.15,South,182,0.0,0.0,92,0.00,,---,0.00,VWS V14.00,2013-02-19 09:21:00,
2013-02-19 04:22:00,42.4,40.2,30.15,South,182,0.0,0.0,92,0.00,,---,0.00,VWS V14.00,2013-02-19 09:22:00,
2013-02-19 04:23:00,42.4,40.2,30.15,South,182,0.0,0.0,92,0.00,,---,0.00,VWS V14.00,2013-02-19 09:23:00,
2013-02-19 04:24:00,42.5,40.3,30.15,South,182,0.0,0.0,92,0.00,,---,0.00,VWS V14.00,2013-02-19 09:24:00,
2013-02-19 04:25:00,42.6,40.4,30.14,South,182,0.0,0.0,92,0.00,,---,0.00,VWS V14.00,2013-02-19 09:25:00,
2013-02-19 04:26:00,42.5,40.3,30.15,South,182,0.0,0.0,92,0.00,,---,0.00,VWS V14.00,2013-02-19 09:26:00,
2013-02-19 04:27:00,42.5,40.3,30.15,South,182,0.0,0.0,92,0.00,,---,0.00,VWS V14.00,2013-02-19 09:27:00,
2013-02-19 04:28:00,42.5,40.3,30.15,South,182,0.0,0.0,92,0.00,,---,0.00,VWS V14.00,2013-02-19 09:28:00,
2013-02-19 04:29:00,42.5,40.3,30.15,South,182,0.0,0.0,92,0.00,,---,0.00,VWS V14.00,2013-02-19 09:29:00,
2013-02-19 04:30:00,42.6,40.4,30.14,South,182,0.0,0.0,92,0.00,,---,0.00,VWS V14.00,2013-02-19 09:30:00,
2013-02-19 04:31:00,42.5,40.3,30.14,South,182,0.0,0.0,92,0.00,,---,0.00,VWS V14.00,2013-02-19 09:31:00,
2013-02-19 04:32:00,42.6,40.4,30.14,South,182,0.0,0.0,92,0.00,,---,0.00,VWS V14.00,2013-02-19 09:32:00,
2013-02-19 04:33:00,42.6,40.4,30.14,South,182,0.0,0.0,92,0.00,,---,0.00,VWS V14.00,2013-02-19 09:33:00,
2013-02-19 04:34:00,42.6,40.4,30.14,South,182,0.0,0.0,92,0.00,,---,0.00,VWS V14.00,2013-02-19 09:34:00,
2013-02-19 04:35:00,42.6,40.4,30.14,South,182,0.0,0.0,92,0.00,,---,0.00,VWS V14.00,2013-02-19 09:35:00,
2013-02-19 04:36:00,42.6,40.4,30.14,South,182,0.0,0.0,92,0.00,,---,0.00,VWS V14.00,2013-02-19 09:36:00,
2013-02-19 04:37:00,42.6,40.4,30.14,South,182,0.0,0.0,92,0.00,,---,0.00,VWS V14.00,2013-02-19 09:37:00,
2013-02-19 04:38:00,42.6,40.4,30.14,South,182,0.0,0.0,92,0.00,,---,0.00,VWS V14.00,2013-02-19 09:38:00,
2013-02-19 04:39:00,42.6,40.4,30.14,South,182,0.0,0.0,92,0.00,,---,0.00,VWS V14.00,2013-02-19 09:39:00,
2013-02-19 04:40:00,42.6,40.4,30.14,South,182,0.0,0.0,92,0.00,,---,0.00,VWS V14.00,2013-02-19 09:40:00,
2013-02-19 04:41:00,42.6,40.4,30.14,South,182,0.0,0.0,92,0.00,,---,0.00,VWS V14.00,2013-02-19 09:41:00,
2013-02-19 04:42:00,42.6,40.4,30.14,South,182,0.0,0.0,92,0.00,,---,0.00,VWS V14.00,2013-02-19 09:42:00,
2013-02-19 04:43:00,42.6,40.4,30.14,South,182,0.0,0.0,92,0.00,,---,0.00,VWS V14.00,2013-02-19 09:43:00,
2013-02-19 04:44:00,42.6,40.4,30.14,South,182,0.0,0.0,92,0.00,,---,0.00,VWS V14.00,2013-02-19 09:44:00,
2013-02-19 04:45:00,42.5,40.3,30.14,South,182,0.0,0.0,92,0.00,,---,0.00,VWS V14.00,2013-02-19 09:45:00,
2013-02-19 04:46:00,42.6,40.4,30.14,South,182,0.0,0.0,92,0.00,,---,0.00,VWS V14.00,2013-02-19 09:46:00,
2013-02-19 04:47:00,42.6,40.4,30.14,South,182,0.0,0.0,92,0.00,,---,0.00,VWS V14.00,2013-02-19 09:47:00,
2013-02-19 04:48:00,42.5,40.3,30.14,South,182,0.0,1.0,92,0.00,,---,0.00,VWS V14.00,2013-02-19 09:48:00,
2013-02-19 04:49:00,42.5,40.3,30.14,South,182,0.0,0.0,92,0.00,,---,0.00,VWS V14.00,2013-02-19 09:49:00,
2013-02-19 04:50:00,42.5,40.3,30.14,South,182,0.0,0.0,92,0.00,,---,0.00,VWS V14.00,2013-02-19 09:50:00,
2013-02-19 04:51:00,42.5,40.3,30.14,South,182,0.0,0.0,92,0.00,,---,0.00,VWS V14.00,2013-02-19 09:51:00,
2013-02-19 04:52:00,42.5,40.3,30.14,South,182,0.0,0.0,92,0.00,,---,0.00,VWS V14.00,2013-02-19 09:52:00,
2013-02-19 04:53:00,42.5,40.3,30.14,South,182,0.0,0.0,92,0.00,,---,0.00,VWS V14.00,2013-02-19 09:53:00,
2013-02-19 04:54:00,42.5,40.3,30.14,South,182,0.0,0.0,92,0.00,,---,0.00,VWS V14.00,2013-02-19 09:54:00,
2013-02-19 04:55:00,42.5,40.3,30.14,South,182,0.0,0.0,92,0.00,,---,0.00,VWS V14.00,2013-02-19 09:55:00,
2013-02-19 04:56:00,42.5,40.3,30.14,South,182,0.0,0.0,92,0.00,,---,0.00,VWS V14.00,2013-02-19 09:56:00,
2013-02-19 04:57:00,42.5,40.3,30.14,South,182,0.0,0.0,92,0.00,,---,0.00,VWS V14.00,2013-02-19 09:57:00,
2013-02-19 04:58:00,42.5,40.3,30.14,South,182,0.0,0.0,92,0.00,,---,0.00,VWS V14.00,2013-02-19 09:58:00,
2013-02-19 04:59:00,42.5,40.3,30.14,South,182,0.0,0.0,92,0.00,,---,0.00,VWS V14.00,2013-02-19 09:59:00,
2013-02-19 05:00:00,42.4,40.2,30.13,South,182,0.0,0.0,92,0.00,,---,0.00,VWS V14.00,2013-02-19 10:00:00,
2013-02-19 05:01:00,42.5,40.3,30.14,South,182,0.0,0.0,92,0.00,,---,0.00,VWS V14.00,2013-02-19 10:01:00,
2013-02-19 05:02:00,42.4,40.2,30.14,South,182,0.0,0.0,92,0.00,,---,0.00,VWS V14.00,2013-02-19 10:02:00,
2013-02-19 05:03:00,42.4,40.2,30.14,South,182,0.0,0.0,92,0.00,,---,0.00,VWS V14.00,2013-02-19 10:03:00,
2013-02-19 05:04:00,42.4,40.2,30.14,South,182,0.0,0.0,92,0.00,,---,0.00,VWS V14.00,2013-02-19 10:04:00,
2013-02-19 05:05:00,42.3,40.2,30.14,South,182,0.0,0.0,92,0.00,,---,0.00,VWS V14.00,2013-02-19 10:05:00,
2013-02-19 05:06:00,42.4,40.2,30.13,South,182,0.0,0.0,92,0.00,,---,0.00,VWS V14.00,2013-02-19 10:06:00,
2013-02-19 05:07:00,42.4,40.2,30.13,South,182,0.0,0.0,92,0.00,,---,0.00,VWS V14.00,2013-02-19 10:07:00,
2013-02-19 05:08:00,42.4,40.2,30.14,South,182,0.0,0.0,92,0.00,,---,0.00,VWS V14.00,2013-02-19 10:08:00,
2013-02-19 05:09:00,42.4,40.2,30.14,South,182,0.0,0.0,92,0.00,,---,0.00,VWS V14.00,2013-02-19 10:09:00,
2013-02-19 05:10:00,42.3,40.2,30.13,South,182,0.0,0.0,92,0.00,,---,0.00,VWS V14.00,2013-02-19 10:10:00,
2013-02-19 05:11:00,42.3,40.2,30.14,South,182,0.0,0.0,92,0.00,,---,0.00,VWS V14.00,2013-02-19 10:11:00,
2013-02-19 05:12:00,42.3,40.2,30.14,South,182,0.0,0.0,92,0.00,,---,0.00,VWS V14.00,2013-02-19 10:12:00,
2013-02-19 05:13:00,42.3,40.2,30.13,South,182,0.0,0.0,92,0.00,,---,0.00,VWS V14.00,2013-02-19 10:13:00,
2013-02-19 05:14:00,42.3,40.2,30.13,South,182,0.0,0.0,92,0.00,,---,0.00,VWS V14.00,2013-02-19 10:14:00,
2013-02-19 05:15:00,42.2,40.0,30.14,South,182,0.0,0.0,92,0.00,,---,0.00,VWS V14.00,2013-02-19 10:15:00,
2013-02-19 05:16:00,42.3,40.2,30.13,South,182,0.0,0.0,92,0.00,,---,0.00,VWS V14.00,2013-02-19 10:16:00,
2013-02-19 05:17:00,42.3,40.2,30.13,South,182,0.0,0.0,92,0.00,,---,0.00,VWS V14.00,2013-02-19 10:17:00,
2013-02-19 05:18:00,42.3,40.2,30.13,South,182,0.0,0.0,92,0.00,,---,0.00,VWS V14.00,2013-02-19 10:18:00,
2013-02-19 05:19:00,42.3,40.2,30.13,South,182,0.0,0.0,92,0.00,,---,0.00,VWS V14.00,2013-02-19 10:19:00,
2013-02-19 05:20:00,42.2,40.0,30.13,South,182,0.0,0.0,92,0.00,,---,0.00,VWS V14.00,2013-02-19 10:20:00,
2013-02-19 05:21:00,42.2,40.0,30.14,South,182,0.0,0.0,92,0.00,,---,0.00,VWS V14.00,2013-02-19 10:21:00,
2013-02-19 05:22:00,42.2,40.0,30.13,South,182,0.0,0.0,92,0.00,,---,0.00,VWS V14.00,2013-02-19 10:22:00,
2013-02-19 05:23:00,42.2,40.0,30.13,South,182,0.0,0.0,92,0.00,,---,0.00,VWS V14.00,2013-02-19 10:23:00,
2013-02-19 05:24:00,42.2,40.0,30.13,South,182,0.0,0.0,92,0.00,,---,0.00,VWS V14.00,2013-02-19 10:24:00,
2013-02-19 05:25:00,42.2,40.0,30.14,South,182,0.0,0.0,92,0.00,,---,0.00,VWS V14.00,2013-02-19 10:25:00,
2013-02-19 05:26:00,42.2,40.0,30.13,South,182,0.0,0.0,92,0.00,,---,0.00,VWS V14.00,2013-02-19 10:26:00,
2013-02-19 05:27:00,42.2,40.0,30.14,South,182,0.0,0.0,92,0.00,,---,0.00,VWS V14.00,2013-02-19 10:27:00,
2013-02-19 05:28:00,42.2,40.0,30.14,South,182,0.0,0.0,92,0.00,,---,0.00,VWS V14.00,2013-02-19 10:28:00,
2013-02-19 05:29:00,42.2,40.0,30.14,South,182,0.0,0.0,92,0.00,,---,0.00,VWS V14.00,2013-02-19 10:29:00,
2013-02-19 05:30:00,42.2,40.3,30.13,South,182,0.0,0.0,93,0.00,,---,0.00,VWS V14.00,2013-02-19 10:30:00,
2013-02-19 05:31:00,42.2,40.0,30.14,South,182,0.0,0.0,92,0.00,,---,0.00,VWS V14.00,2013-02-19 10:31:00,
2013-02-19 05:32:00,42.2,40.0,30.13,South,182,0.0,0.0,92,0.00,,---,0.00,VWS V14.00,2013-02-19 10:32:00,
2013-02-19 05:33:00,42.2,40.3,30.13,South,182,0.0,0.0,93,0.00,,---,0.00,VWS V14.00,2013-02-19 10:33:00,
2013-02-19 05:34:00,42.2,40.3,30.13,South,182,0.0,0.0,93,0.00,,---,0.00,VWS V14.00,2013-02-19 10:34:00,
2013-02-19 05:35:00,42.2,40.0,30.13,South,182,0.0,0.0,92,0.00,,---,0.00,VWS V14.00,2013-02-19 10:35:00,
2013-02-19 05:36:00,42.2,40.3,30.13,South,182,0.0,0.0,93,0.00,,---,0.00,VWS V14.00,2013-02-19 10:36:00,
2013-02-19 05:37:00,42.2,40.3,30.13,South,182,0.0,0.0,93,0.00,,---,0.00,VWS V14.00,2013-02-19 10:37:00,
2013-02-19 05:38:00,42.2,40.3,30.13,South,182,0.0,0.0,93,0.00,,---,0.00,VWS V14.00,2013-02-19 10:38:00,
2013-02-19 05:39:00,42.2,40.0,30.13,South,182,0.0,0.0,92,0.00,,---,0.00,VWS V14.00,2013-02-19 10:39:00,
2013-02-19 05:40:00,42.1,40.0,30.13,South,182,0.0,0.0,92,0.00,,---,0.00,VWS V14.00,2013-02-19 10:40:00,
2013-02-19 05:41:00,42.1,40.0,30.13,South,182,0.0,0.0,92,0.00,,---,0.00,VWS V14.00,2013-02-19 10:41:00,
2013-02-19 05:42:00,42.1,40.0,30.13,South,182,0.0,0.0,92,0.00,,---,0.00,VWS V14.00,2013-02-19 10:42:00,
2013-02-19 05:43:00,42.1,40.0,30.13,South,182,0.0,0.0,92,0.00,,---,0.00,VWS V14.00,2013-02-19 10:43:00,
2013-02-19 05:44:00,42.1,40.0,30.13,South,182,0.0,0.0,92,0.00,,---,0.00,VWS V14.00,2013-02-19 10:44:00,
2013-02-19 05:45:00,42.0,39.8,30.13,South,182,0.0,0.0,92,0.00,,---,0.00,VWS V14.00,2013-02-19 10:45:00,
2013-02-19 05:46:00,42.1,40.0,30.13,South,182,0.0,0.0,92,0.00,,---,0.00,VWS V14.00,2013-02-19 10:46:00,
2013-02-19 05:47:00,42.0,39.8,30.13,South,182,0.0,0.0,92,0.00,,---,0.00,VWS V14.00,2013-02-19 10:47:00,
2013-02-19 05:48:00,42.0,39.8,30.13,South,182,0.0,0.0,92,0.00,,---,0.00,VWS V14.00,2013-02-19 10:48:00,
2013-02-19 05:49:00,42.0,39.8,30.13,South,182,0.0,0.0,92,0.00,,---,0.00,VWS V14.00,2013-02-19 10:49:00,
2013-02-19 05:50:00,41.9,39.8,30.13,South,182,0.0,0.0,92,0.00,,---,0.00,VWS V14.00,2013-02-19 10:50:00,
2013-02-19 05:51:00,42.0,39.8,30.13,South,182,0.0,0.0,92,0.00,,---,0.00,VWS V14.00,2013-02-19 10:51:00,
2013-02-19 05:52:00,42.0,39.8,30.13,South,182,0.0,0.0,92,0.00,,---,0.00,VWS V14.00,2013-02-19 10:52:00,
2013-02-19 05:53:00,41.9,39.8,30.13,South,182,0.0,0.0,92,0.00,,---,0.00,VWS V14.00,2013-02-19 10:53:00,
2013-02-19 05:54:00,41.9,39.8,30.13,South,182,0.0,0.0,92,0.00,,---,0.00,VWS V14.00,2013-02-19 10:54:00,
2013-02-19 05:55:00,41.8,39.7,30.13,South,182,0.0,0.0,92,0.00,,---,0.00,VWS V14.00,2013-02-19 10:55:00,
2013-02-19 05:56:00,41.9,39.8,30.13,South,182,0.0,0.0,92,0.00,,---,0.00,VWS V14.00,2013-02-19 10:56:00,
2013-02-19 05:57:00,41.9,39.8,30.13,South,182,0.0,0.0,92,0.00,,---,0.00,VWS V14.00,2013-02-19 10:57:00,
2013-02-19 05:58:00,41.8,39.7,30.13,South,182,0.0,0.0,92,0.00,,---,0.00,VWS V14.00,2013-02-19 10:58:00,
2013-02-19 05:59:00,41.8,39.7,30.13,South,182,0.0,0.0,92,0.00,,---,0.00,VWS V14.00,2013-02-19 10:59:00,
2013-02-19 06:00:00,41.7,39.5,30.13,South,182,0.0,0.0,92,0.00,,---,0.00,VWS V14.00,2013-02-19 11:00:00,
2013-02-19 06:01:00,41.8,39.7,30.13,South,182,0.0,0.0,92,0.00,,---,0.00,VWS V14.00,2013-02-19 11:01:00,
2013-02-19 06:02:00,41.8,39.7,30.12,South,182,0.0,0.0,92,0.00,,---,0.00,VWS V14.00,2013-02-19 11:02:00,
2013-02-19 06:03:00,41.7,39.5,30.13,South,182,0.0,0.0,92,0.00,,---,0.00,VWS V14.00,2013-02-19 11:03:00,
2013-02-19 06:05:00,41.6,39.5,30.13,South,182,0.0,0.0,92,0.00,,---,0.00,VWS V14.00,2013-02-19 11:05:00,
2013-02-19 06:06:00,41.6,39.5,30.13,South,182,0.0,0.0,92,0.00,,---,0.00,VWS V14.00,2013-02-19 11:06:00,
2013-02-19 06:07:00,41.6,39.5,30.13,South,182,0.0,0.0,92,0.00,,---,0.00,VWS V14.00,2013-02-19 11:07:00,
2013-02-19 06:08:00,41.6,39.5,30.12,South,182,0.0,0.0,92,0.00,,---,0.00,VWS V14.00,2013-02-19 11:08:00,
2013-02-19 06:09:00,41.6,39.5,30.13,South,182,0.0,0.0,92,0.00,,---,0.00,VWS V14.00,2013-02-19 11:09:00,
2013-02-19 06:10:00,41.5,39.3,30.13,South,182,0.0,0.0,92,0.00,,---,0.00,VWS V14.00,2013-02-19 11:10:00,
2013-02-19 06:11:00,41.6,39.5,30.13,South,182,0.0,0.0,92,0.00,,---,0.00,VWS V14.00,2013-02-19 11:11:00,
2013-02-19 06:12:00,41.5,39.3,30.13,South,182,0.0,0.0,92,0.00,,---,0.00,VWS V14.00,2013-02-19 11:12:00,
2013-02-19 06:13:00,41.6,39.5,30.12,South,182,0.0,0.0,92,0.00,,---,0.00,VWS V14.00,2013-02-19 11:13:00,
2013-02-19 06:14:00,41.5,39.3,30.12,South,182,0.0,0.0,92,0.00,,---,0.00,VWS V14.00,2013-02-19 11:14:00,
2013-02-19 06:15:00,41.5,39.3,30.12,South,182,0.0,0.0,92,0.00,,---,0.00,VWS V14.00,2013-02-19 11:15:00,
2013-02-19 06:16:00,41.5,39.3,30.13,South,182,0.0,0.0,92,0.00,,---,0.00,VWS V14.00,2013-02-19 11:16:00,
2013-02-19 06:17:00,41.5,39.3,30.13,South,182,0.0,0.0,92,0.00,,---,0.00,VWS V14.00,2013-02-19 11:17:00,
2013-02-19 06:18:00,41.5,39.3,30.12,South,182,0.0,0.0,92,0.00,,---,0.00,VWS V14.00,2013-02-19 11:18:00,
2013-02-19 06:19:00,41.5,39.3,30.12,South,182,0.0,0.0,92,0.00,,---,0.00,VWS V14.00,2013-02-19 11:19:00,
2013-02-19 06:20:00,41.4,39.2,30.12,South,182,0.0,0.0,92,0.00,,---,0.00,VWS V14.00,2013-02-19 11:20:00,
2013-02-19 06:21:00,41.5,39.3,30.12,South,182,0.0,0.0,92,0.00,,---,0.00,VWS V14.00,2013-02-19 11:21:00,
2013-02-19 06:22:00,41.5,39.3,30.12,South,182,0.0,0.0,92,0.00,,---,0.00,VWS V14.00,2013-02-19 11:22:00,
2013-02-19 06:24:00,41.4,39.2,30.12,South,182,0.0,0.0,92,0.00,,---,0.00,VWS V14.00,2013-02-19 11:24:00,
2013-02-19 06:25:00,41.4,39.2,30.12,South,182,0.0,0.0,92,0.00,,---,0.00,VWS V14.00,2013-02-19 11:25:00,
2013-02-19 06:26:00,41.4,39.2,30.12,South,182,0.0,0.0,92,0.00,,---,0.00,VWS V14.00,2013-02-19 11:26:00,
2013-02-19 06:27:00,41.4,39.2,30.12,South,182,0.0,0.0,92,0.00,,---,0.00,VWS V14.00,2013-02-19 11:27:00,
2013-02-19 06:28:00,41.4,39.2,30.12,South,182,0.0,0.0,92,0.00,,---,0.00,VWS V14.00,2013-02-19 11:28:00,
2013-02-19 06:29:00,41.4,39.2,30.12,South,182,0.0,0.0,92,0.00,,---,0.00,VWS V14.00,2013-02-19 11:29:00,
2013-02-19 06:30:00,41.3,39.2,30.12,South,182,0.0,0.0,92,0.00,,---,0.00,VWS V14.00,2013-02-19 11:30:00,
2013-02-19 06:31:00,41.4,39.2,30.12,South,182,0.0,0.0,92,0.00,,---,0.00,VWS V14.00,2013-02-19 11:31:00,
2013-02-19 06:32:00,41.3,39.2,30.12,South,182,0.0,0.0,92,0.00,,---,0.00,VWS V14.00,2013-02-19 11:32:00,
2013-02-19 06:33:00,41.3,39.2,30.12,South,182,0.0,0.0,92,0.00,,---,0.00,VWS V14.00,2013-02-19 11:33:00,
2013-02-19 06:34:00,41.3,39.2,30.12,South,182,0.0,0.0,92,0.00,,---,0.00,VWS V14.00,2013-02-19 11:34:00,
2013-02-19 06:35:00,41.3,39.2,30.11,South,182,0.0,0.0,92,0.00,,---,0.00,VWS V14.00,2013-02-19 11:35:00,
2013-02-19 06:36:00,41.3,39.2,30.12,South,182,0.0,0.0,92,0.00,,---,0.00,VWS V14.00,2013-02-19 11:36:00,
2013-02-19 06:37:00,41.3,39.2,30.12,South,182,0.0,0.0,92,0.00,,---,0.00,VWS V14.00,2013-02-19 11:37:00,
2013-02-19 06:38:00,41.3,39.2,30.12,South,182,0.0,0.0,92,0.00,,---,0.00,VWS V14.00,2013-02-19 11:38:00,
2013-02-19 06:39:00,41.3,39.2,30.11,South,182,0.0,0.0,92,0.00,,---,0.00,VWS V14.00,2013-02-19 11:39:00,
2013-02-19 06:40:00,41.2,39.1,30.11,South,182,0.0,0.0,92,0.00,,---,0.00,VWS V14.00,2013-02-19 11:40:00,
2013-02-19 06:41:00,41.2,39.1,30.11,South,182,0.0,0.0,92,0.00,,---,0.00,VWS V14.00,2013-02-19 11:41:00,
2013-02-19 06:42:00,41.2,39.1,30.11,South,182,0.0,0.0,92,0.00,,---,0.00,VWS V14.00,2013-02-19 11:42:00,
2013-02-19 06:43:00,41.2,39.1,30.11,South,182,0.0,0.0,92,0.00,,---,0.00,VWS V14.00,2013-02-19 11:43:00,
2013-02-19 06:44:00,41.2,39.1,30.11,South,182,0.0,0.0,92,0.00,,---,0.00,VWS V14.00,2013-02-19 11:44:00,
2013-02-19 06:45:00,41.1,39.2,30.11,South,182,0.0,0.0,93,0.00,,---,0.00,VWS V14.00,2013-02-19 11:45:00,
2013-02-19 06:46:00,41.2,39.1,30.11,South,182,0.0,0.0,92,0.00,,---,0.00,VWS V14.00,2013-02-19 11:46:00,
2013-02-19 06:47:00,41.2,39.3,30.11,South,182,0.0,0.0,93,0.00,,---,0.00,VWS V14.00,2013-02-19 11:47:00,
2013-02-19 06:48:00,41.2,39.3,30.11,South,182,0.0,0.0,93,0.00,,---,0.00,VWS V14.00,2013-02-19 11:48:00,
2013-02-19 06:49:00,41.1,39.2,30.11,South,182,0.0,0.0,93,0.00,,---,0.00,VWS V14.00,2013-02-19 11:49:00,
2013-02-19 06:50:00,41.1,39.2,30.11,South,182,0.0,0.0,93,0.00,,---,0.00,VWS V14.00,2013-02-19 11:50:00,
2013-02-19 06:51:00,41.1,39.2,30.11,South,182,0.0,0.0,93,0.00,,---,0.00,VWS V14.00,2013-02-19 11:51:00,
2013-02-19 06:52:00,41.1,39.2,30.11,South,182,0.0,0.0,93,0.00,,---,0.00,VWS V14.00,2013-02-19 11:52:00,
2013-02-19 06:53:00,41.1,39.2,30.11,South,182,0.0,0.0,93,0.00,,---,0.00,VWS V14.00,2013-02-19 11:53:00,
2013-02-19 06:54:00,41.1,39.2,30.11,South,182,0.0,0.0,93,0.00,,---,0.00,VWS V14.00,2013-02-19 11:54:00,
2013-02-19 06:55:00,41.0,39.1,30.11,South,182,0.0,0.0,93,0.00,,---,0.00,VWS V14.00,2013-02-19 11:55:00,
2013-02-19 06:56:00,41.1,39.2,30.11,South,182,0.0,0.0,93,0.00,,---,0.00,VWS V14.00,2013-02-19 11:56:00,
2013-02-19 06:57:00,41.1,39.2,30.11,South,182,0.0,0.0,93,0.00,,---,0.00,VWS V14.00,2013-02-19 11:57:00,
2013-02-19 06:58:00,41.1,39.2,30.11,South,182,0.0,0.0,93,0.00,,---,0.00,VWS V14.00,2013-02-19 11:58:00,
2013-02-19 06:59:00,41.1,39.2,30.11,South,182,0.0,0.0,93,0.00,,---,0.00,VWS V14.00,2013-02-19 11:59:00,
2013-02-19 07:00:00,41.0,40.5,30.11,South,182,0.0,0.0,98,0.00,,---,0.00,VWS V14.00,2013-02-19 12:00:00,
2013-02-19 07:02:00,41.0,39.1,30.11,South,182,0.0,0.0,93,0.00,,---,0.00,VWS V14.00,2013-02-19 12:02:00,
2013-02-19 07:03:00,41.0,40.5,30.11,South,182,0.0,0.0,98,0.00,,---,0.00,VWS V14.00,2013-02-19 12:03:00,
2013-02-19 07:04:00,41.0,40.5,30.11,South,182,0.0,0.0,98,0.00,,---,0.00,VWS V14.00,2013-02-19 12:04:00,
2013-02-19 07:05:00,40.9,39.0,30.11,South,182,0.0,0.0,93,0.00,,---,0.00,VWS V14.00,2013-02-19 12:05:00,
2013-02-19 07:06:00,41.0,40.5,30.11,South,182,0.0,0.0,98,0.00,,---,0.00,VWS V14.00,2013-02-19 12:06:00,
2013-02-19 07:07:00,41.0,39.1,30.11,South,182,0.0,0.0,93,0.00,,---,0.00,VWS V14.00,2013-02-19 12:07:00,
2013-02-19 07:08:00,41.0,39.1,30.11,South,182,0.0,0.0,93,0.00,,---,0.00,VWS V14.00,2013-02-19 12:08:00,
2013-02-19 07:09:00,40.9,39.0,30.11,South,182,0.0,0.0,93,0.00,,---,0.00,VWS V14.00,2013-02-19 12:09:00,
2013-02-19 07:10:00,40.9,39.0,30.11,South,182,0.0,0.0,93,0.00,,---,0.00,VWS V14.00,2013-02-19 12:10:00,
2013-02-19 07:11:00,40.9,39.0,30.11,South,182,0.0,0.0,93,0.00,,---,0.00,VWS V14.00,2013-02-19 12:11:00,
2013-02-19 07:12:00,40.9,39.0,30.11,South,182,0.0,0.0,93,0.00,,---,0.00,VWS V14.00,2013-02-19 12:12:00,
2013-02-19 07:13:00,40.9,39.0,30.11,South,182,0.0,0.0,93,0.00,,---,0.00,VWS V14.00,2013-02-19 12:13:00,
2013-02-19 07:14:00,40.9,39.0,30.11,South,182,0.0,0.0,93,0.00,,---,0.00,VWS V14.00,2013-02-19 12:14:00,
2013-02-19 07:15:00,41.0,39.1,30.11,South,182,0.0,0.0,93,0.00,,---,0.00,VWS V14.00,2013-02-19 12:15:00,
2013-02-19 07:16:00,40.9,39.0,30.11,South,182,0.0,0.0,93,0.00,,---,0.00,VWS V14.00,2013-02-19 12:16:00,
2013-02-19 07:17:00,40.9,39.0,30.11,South,182,0.0,0.0,93,0.00,,---,0.00,VWS V14.00,2013-02-19 12:17:00,
2013-02-19 07:18:00,40.9,39.0,30.11,South,182,0.0,0.0,93,0.00,,---,0.00,VWS V14.00,2013-02-19 12:18:00,
2013-02-19 07:19:00,40.9,39.0,30.11,South,182,0.0,0.0,93,0.00,,---,0.00,VWS V14.00,2013-02-19 12:19:00,
2013-02-19 07:20:00,41.0,39.1,30.11,South,182,0.0,0.0,93,0.00,,---,0.00,VWS V14.00,2013-02-19 12:20:00,
2013-02-19 07:21:00,41.0,39.1,30.11,South,182,0.0,0.0,93,0.00,,---,0.00,VWS V14.00,2013-02-19 12:21:00,
2013-02-19 07:22:00,41.0,39.1,30.11,South,182,0.0,0.0,93,0.00,,---,0.00,VWS V14.00,2013-02-19 12:22:00,
2013-02-19 07:23:00,41.0,39.1,30.11,South,182,0.0,0.0,93,0.00,,---,0.00,VWS V14.00,2013-02-19 12:23:00,
2013-02-19 07:24:00,41.0,39.1,30.11,South,182,0.0,0.0,93,0.00,,---,0.00,VWS V14.00,2013-02-19 12:24:00,
2013-02-19 07:25:00,41.0,39.1,30.11,South,182,0.0,0.0,93,0.00,,---,0.00,VWS V14.00,2013-02-19 12:25:00,
2013-02-19 07:26:00,41.0,39.1,30.11,South,182,0.0,0.0,93,0.00,,---,0.00,VWS V14.00,2013-02-19 12:26:00,
2013-02-19 07:27:00,41.0,39.1,30.11,South,182,0.0,0.0,93,0.00,,---,0.00,VWS V14.00,2013-02-19 12:27:00,
2013-02-19 07:28:00,41.0,39.1,30.10,South,182,0.0,0.0,93,0.00,,---,0.00,VWS V14.00,2013-02-19 12:28:00,
2013-02-19 07:29:00,41.0,39.1,30.11,South,182,0.0,0.0,93,0.00,,---,0.00,VWS V14.00,2013-02-19 12:29:00,
2013-02-19 07:30:00,41.2,39.6,30.11,South,182,0.0,0.0,94,0.00,,---,0.00,VWS V14.00,2013-02-19 12:30:00,
2013-02-19 07:31:00,41.1,39.2,30.11,South,182,0.0,0.0,93,0.00,,---,0.00,VWS V14.00,2013-02-19 12:31:00,
2013-02-19 07:32:00,41.1,39.2,30.11,South,182,0.0,0.0,93,0.00,,---,0.00,VWS V14.00,2013-02-19 12:32:00,
2013-02-19 07:33:00,41.1,39.2,30.11,South,182,0.0,0.0,93,0.00,,---,0.00,VWS V14.00,2013-02-19 12:33:00,
2013-02-19 07:34:00,41.1,39.2,30.11,South,182,0.0,0.0,93,0.00,,---,0.00,VWS V14.00,2013-02-19 12:34:00,
2013-02-19 07:35:00,41.5,39.9,30.12,South,182,0.0,0.0,94,0.00,,---,0.00,VWS V14.00,2013-02-19 12:35:00,
2013-02-19 07:36:00,41.2,39.6,30.11,South,182,0.0,0.0,94,0.00,,---,0.00,VWS V14.00,2013-02-19 12:36:00,
2013-02-19 07:37:00,41.3,39.7,30.12,South,182,0.0,0.0,94,0.00,,---,0.00,VWS V14.00,2013-02-19 12:37:00,
2013-02-19 07:38:00,41.3,39.7,30.12,South,182,0.0,0.0,94,0.00,,---,0.00,VWS V14.00,2013-02-19 12:38:00,
2013-02-19 07:39:00,41.4,39.8,30.12,South,182,0.0,0.0,94,0.00,,---,0.00,VWS V14.00,2013-02-19 12:39:00,
2013-02-19 07:40:00,41.7,40.1,30.12,South,182,0.0,0.0,94,0.00,,---,0.00,VWS V14.00,2013-02-19 12:40:00,
2013-02-19 07:41:00,41.5,39.9,30.12,South,182,0.0,0.0,94,0.00,,---,0.00,VWS V14.00,2013-02-19 12:41:00,
2013-02-19 07:42:00,41.5,39.9,30.12,South,182,0.0,0.0,94,0.00,,---,0.00,VWS V14.00,2013-02-19 12:42:00,
2013-02-19 07:43:00,41.6,40.0,30.12,South,182,0.0,0.0,94,0.00,,---,0.00,VWS V14.00,2013-02-19 12:43:00,
2013-02-19 07:44:00,41.6,40.0,30.12,South,182,0.0,0.0,94,0.00,,---,0.00,VWS V14.00,2013-02-19 12:44:00,
2013-02-19 07:45:00,41.9,40.6,30.12,South,182,0.0,0.0,95,0.00,,---,0.00,VWS V14.00,2013-02-19 12:45:00,
2013-02-19 07:46:00,41.7,40.1,30.12,South,182,0.0,0.0,94,0.00,,---,0.00,VWS V14.00,2013-02-19 12:46:00,
2013-02-19 07:47:00,41.7,40.1,30.12,South,182,0.0,0.0,94,0.00,,---,0.00,VWS V14.00,2013-02-19 12:47:00,
2013-02-19 07:48:00,41.8,40.2,30.12,South,182,0.0,0.0,94,0.00,,---,0.00,VWS V14.00,2013-02-19 12:48:00,
2013-02-19 07:49:00,41.8,40.2,30.12,South,182,0.0,0.0,94,0.00,,---,0.00,VWS V14.00,2013-02-19 12:49:00,
2013-02-19 07:50:00,42.1,40.8,30.13,South,182,0.0,0.0,95,0.00,,---,0.00,VWS V14.00,2013-02-19 12:50:00,
2013-02-19 07:51:00,41.9,40.6,30.12,South,182,0.0,0.0,95,0.00,,---,0.00,VWS V14.00,2013-02-19 12:51:00,
2013-02-19 07:52:00,41.9,40.6,30.13,South,182,0.0,0.0,95,0.00,,---,0.00,VWS V14.00,2013-02-19 12:52:00,
2013-02-19 07:53:00,42.0,40.7,30.12,South,182,0.0,0.0,95,0.00,,---,0.00,VWS V14.00,2013-02-19 12:53:00,
2013-02-19 07:54:00,42.0,40.7,30.12,South,182,0.0,0.0,95,0.00,,---,0.00,VWS V14.00,2013-02-19 12:54:00,
2013-02-19 07:55:00,42.5,41.2,30.13,South,182,0.0,0.0,95,0.00,,---,0.00,VWS V14.00,2013-02-19 12:55:00,
2013-02-19 07:56:00,42.1,40.8,30.13,South,182,0.0,0.0,95,0.00,,---,0.00,VWS V14.00,2013-02-19 12:56:00,
2013-02-19 07:57:00,42.2,40.9,30.13,South,182,0.0,0.0,95,0.00,,---,0.00,VWS V14.00,2013-02-19 12:57:00,
2013-02-19 07:58:00,42.3,41.0,30.13,South,182,0.0,0.0,95,0.00,,---,0.00,VWS V14.00,2013-02-19 12:58:00,
2013-02-19 07:59:00,42.3,41.0,30.13,South,182,0.0,0.0,95,0.00,,---,0.00,VWS V14.00,2013-02-19 12:59:00,
2013-02-19 08:00:00,42.9,41.6,30.13,South,182,0.0,0.0,95,0.00,,---,0.00,VWS V14.00,2013-02-19 13:00:00,
2013-02-19 08:01:00,42.5,41.2,30.13,South,182,0.0,0.0,95,0.00,,---,0.00,VWS V14.00,2013-02-19 13:01:00,
2013-02-19 08:02:00,42.6,41.3,30.13,South,182,0.0,0.0,95,0.00,,---,0.00,VWS V14.00,2013-02-19 13:02:00,
2013-02-19 08:03:00,42.7,41.4,30.13,South,182,0.0,0.0,95,0.00,,---,0.00,VWS V14.00,2013-02-19 13:03:00,
2013-02-19 08:04:00,42.8,41.5,30.13,South,182,0.0,0.0,95,0.00,,---,0.00,VWS V14.00,2013-02-19 13:04:00,
2013-02-19 08:05:00,43.5,42.4,30.13,South,182,0.0,0.0,96,0.00,,---,0.00,VWS V14.00,2013-02-19 13:05:00,
2013-02-19 08:06:00,43.0,41.9,30.13,South,182,0.0,0.0,96,0.00,,---,0.00,VWS V14.00,2013-02-19 13:06:00,
2013-02-19 08:07:00,43.1,42.0,30.13,South,182,0.0,0.0,96,0.00,,---,0.00,VWS V14.00,2013-02-19 13:07:00,
2013-02-19 08:08:00,43.2,42.1,30.13,South,182,0.0,0.0,96,0.00,,---,0.00,VWS V14.00,2013-02-19 13:08:00,
2013-02-19 08:09:00,43.3,42.2,30.13,South,182,0.0,0.0,96,0.00,,---,0.00,VWS V14.00,2013-02-19 13:09:00,
2013-02-19 08:10:00,44.2,43.1,30.13,South,182,0.0,0.0,96,0.00,,---,0.00,VWS V14.00,2013-02-19 13:10:00,
2013-02-19 08:11:00,43.5,42.4,30.13,South,182,0.0,0.0,96,0.00,,---,0.00,VWS V14.00,2013-02-19 13:11:00,
2013-02-19 08:12:00,43.6,42.5,30.13,South,182,0.0,0.0,96,0.00,,---,0.00,VWS V14.00,2013-02-19 13:12:00,
2013-02-19 08:13:00,43.8,42.7,30.13,South,182,0.0,0.0,96,0.00,,---,0.00,VWS V14.00,2013-02-19 13:13:00,
2013-02-19 08:14:00,43.9,42.8,30.13,South,182,0.0,0.0,96,0.00,,---,0.00,VWS V14.00,2013-02-19 13:14:00,
2013-02-19 08:15:00,44.9,43.8,30.13,South,182,0.0,0.0,96,0.00,,---,0.00,VWS V14.00,2013-02-19 13:15:00,
2013-02-19 08:16:00,44.2,43.1,30.13,South,182,0.0,0.0,96,0.00,,---,0.00,VWS V14.00,2013-02-19 13:16:00,
2013-02-19 08:17:00,44.3,43.2,30.13,South,182,0.0,0.0,96,0.00,,---,0.00,VWS V14.00,2013-02-19 13:17:00,
2013-02-19 08:18:00,44.5,43.4,30.13,South,182,0.0,0.0,96,0.00,,---,0.00,VWS V14.00,2013-02-19 13:18:00,
2013-02-19 08:19:00,44.6,43.5,30.13,South,182,0.0,0.0,96,0.00,,---,0.00,VWS V14.00,2013-02-19 13:19:00,
2013-02-19 08:20:00,45.7,44.9,30.13,South,182,0.0,0.0,97,0.00,,---,0.00,VWS V14.00,2013-02-19 13:20:00,
2013-02-19 08:21:00,44.9,43.8,30.13,South,182,0.0,0.0,96,0.00,,---,0.00,VWS V14.00,2013-02-19 13:21:00,
2013-02-19 08:22:00,45.1,44.0,30.13,South,182,0.0,0.0,96,0.00,,---,0.00,VWS V14.00,2013-02-19 13:22:00,
2013-02-19 08:23:00,45.2,44.4,30.13,South,182,0.0,0.0,97,0.00,,---,0.00,VWS V14.00,2013-02-19 13:23:00,
2013-02-19 08:24:00,45.4,44.6,30.13,South,182,0.0,0.0,97,0.00,,---,0.00,VWS V14.00,2013-02-19 13:24:00,
2013-02-19 08:25:00,46.6,45.8,30.14,South,182,0.0,0.0,97,0.00,,---,0.00,VWS V14.00,2013-02-19 13:25:00,
2013-02-19 08:26:00,45.7,44.9,30.13,South,182,0.0,0.0,97,0.00,,---,0.00,VWS V14.00,2013-02-19 13:26:00,
2013-02-19 08:27:00,45.9,45.1,30.13,South,182,0.0,0.0,97,0.00,,---,0.00,VWS V14.00,2013-02-19 13:27:00,
2013-02-19 08:28:00,46.1,45.3,30.13,South,182,0.0,0.0,97,0.00,,---,0.00,VWS V14.00,2013-02-19 13:28:00,
2013-02-19 08:29:00,46.3,45.5,30.13,South,182,0.0,0.0,97,0.00,,---,0.00,VWS V14.00,2013-02-19 13:29:00,
2013-02-19 08:30:00,47.4,46.6,30.14,South,182,0.0,0.0,97,0.00,,---,0.00,VWS V14.00,2013-02-19 13:30:00,
2013-02-19 08:31:00,46.7,45.9,30.14,South,182,0.0,0.0,97,0.00,,---,0.00,VWS V14.00,2013-02-19 13:31:00,
2013-02-19 08:32:00,46.8,46.0,30.14,South,182,0.0,0.0,97,0.00,,---,0.00,VWS V14.00,2013-02-19 13:32:00,
2013-02-19 08:33:00,47.0,46.2,30.14,South,182,0.0,0.0,97,0.00,,---,0.00,VWS V14.00,2013-02-19 13:33:00,
2013-02-19 08:34:00,47.2,46.4,30.14,South,182,0.0,0.0,97,0.00,,---,0.00,VWS V14.00,2013-02-19 13:34:00,
2013-02-19 08:35:00,48.3,47.5,30.14,South,182,0.0,0.0,97,0.00,,---,0.00,VWS V14.00,2013-02-19 13:35:00,
2013-02-19 08:36:00,47.5,46.7,30.14,South,182,0.0,0.0,97,0.00,,---,0.00,VWS V14.00,2013-02-19 13:36:00,
2013-02-19 08:37:00,47.7,46.9,30.14,South,182,0.0,0.0,97,0.00,,---,0.00,VWS V14.00,2013-02-19 13:37:00,
2013-02-19 08:38:00,47.8,47.0,30.14,South,182,0.0,0.0,97,0.00,,---,0.00,VWS V14.00,2013-02-19 13:38:00,
2013-02-19 08:39:00,48.0,47.2,30.14,South,182,0.0,0.0,97,0.00,,---,0.00,VWS V14.00,2013-02-19 13:39:00,
2013-02-19 08:40:00,49.1,48.3,30.14,NNW,337,0.0,0.0,97,0.00,,---,0.00,VWS V14.00,2013-02-19 13:40:00,
2013-02-19 08:41:00,48.3,47.5,30.14,South,182,0.0,0.0,97,0.00,,---,0.00,VWS V14.00,2013-02-19 13:41:00,
2013-02-19 08:42:00,48.5,47.7,30.14,South,182,0.0,0.0,97,0.00,,---,0.00,VWS V14.00,2013-02-19 13:42:00,
2013-02-19 08:43:00,48.7,48.2,30.14,South,182,0.0,0.0,98,0.00,,---,0.00,VWS V14.00,2013-02-19 13:43:00,
2013-02-19 08:44:00,48.8,48.0,30.14,NNW,337,0.0,1.0,97,0.00,,---,0.00,VWS V14.00,2013-02-19 13:44:00,
2013-02-19 08:45:00,49.8,49.3,30.13,NNW,337,0.0,0.0,98,0.00,,---,0.00,VWS V14.00,2013-02-19 13:45:00,
2013-02-19 08:46:00,49.1,48.6,30.14,NNW,337,0.0,0.0,98,0.00,,---,0.00,VWS V14.00,2013-02-19 13:46:00,
2013-02-19 08:47:00,49.3,48.8,30.13,NNW,337,0.0,0.0,98,0.00,,---,0.00,VWS V14.00,2013-02-19 13:47:00,
2013-02-19 08:48:00,49.5,49.0,30.13,NNW,337,0.0,0.0,98,0.00,,---,0.00,VWS V14.00,2013-02-19 13:48:00,
2013-02-19 08:49:00,49.6,48.8,30.13,NNW,337,0.0,0.0,97,0.00,,---,0.00,VWS V14.00,2013-02-19 13:49:00,
2013-02-19 08:50:00,50.6,50.1,30.13,NNW,337,0.0,0.0,98,0.00,,---,0.00,VWS V14.00,2013-02-19 13:50:00,
2013-02-19 08:51:00,49.9,49.4,30.13,NNW,337,0.0,0.0,98,0.00,,---,0.00,VWS V14.00,2013-02-19 13:51:00,
2013-02-19 08:52:00,50.0,49.5,30.13,NNW,337,0.0,0.0,98,0.00,,---,0.00,VWS V14.00,2013-02-19 13:52:00,
2013-02-19 08:53:00,50.1,49.6,30.13,NNW,337,0.0,1.0,98,0.00,,---,0.00,VWS V14.00,2013-02-19 13:53:00,
2013-02-19 08:54:00,50.3,49.8,30.13,NNW,337,0.0,0.0,98,0.00,,---,0.00,VWS V14.00,2013-02-19 13:54:00,
2013-02-19 08:55:00,51.4,50.9,30.12,NNW,337,1.0,1.0,98,0.00,,---,0.00,VWS V14.00,2013-02-19 13:55:00,
2013-02-19 08:56:00,50.7,50.2,30.13,NNW,337,0.0,0.0,98,0.00,,---,0.00,VWS V14.00,2013-02-19 13:56:00,
2013-02-19 08:57:00,50.8,50.3,30.13,NNW,337,0.0,0.0,98,0.00,,---,0.00,VWS V14.00,2013-02-19 13:57:00,
2013-02-19 08:58:00,51.0,50.5,30.13,NNW,337,0.0,0.0,98,0.00,,---,0.00,VWS V14.00,2013-02-19 13:58:00,
2013-02-19 08:59:00,51.2,50.7,30.13,NNW,337,0.0,0.0,98,0.00,,---,0.00,VWS V14.00,2013-02-19 13:59:00,
2013-02-19 09:00:00,52.3,51.8,30.12,WSW,238,0.0,3.0,98,0.00,,---,0.00,VWS V14.00,2013-02-19 14:00:00,
2013-02-19 09:01:00,51.4,50.9,30.12,West,273,2.0,6.0,98,0.00,,---,0.00,VWS V14.00,2013-02-19 14:01:00,
2013-02-19 09:02:00,51.7,51.2,30.12,North,355,4.0,4.0,98,0.00,,---,0.00,VWS V14.00,2013-02-19 14:02:00,
2013-02-19 09:03:00,51.9,51.4,30.12,North,355,1.0,4.0,98,0.00,,---,0.00,VWS V14.00,2013-02-19 14:03:00,
2013-02-19 09:04:00,52.0,51.5,30.12,North,355,0.0,1.0,98,0.00,,---,0.00,VWS V14.00,2013-02-19 14:04:00,
2013-02-19 09:05:00,53.2,52.7,30.13,West,278,2.0,4.0,98,0.00,,---,0.00,VWS V14.00,2013-02-19 14:05:00,
2013-02-19 09:06:00,52.4,51.8,30.12,WSW,238,0.0,3.0,98,0.00,,---,0.00,VWS V14.00,2013-02-19 14:06:00,
2013-02-19 09:07:00,52.6,52.0,30.12,South,186,1.0,3.0,98,0.00,,---,0.00,VWS V14.00,2013-02-19 14:07:00,
2013-02-19 09:08:00,52.7,52.2,30.12,NW,317,2.0,5.0,98,0.00,,---,0.00,VWS V14.00,2013-02-19 14:08:00,
2013-02-19 09:09:00,52.9,52.3,30.12,WSW,255,5.0,6.0,98,0.00,,---,0.00,VWS V14.00,2013-02-19 14:09:00,
2013-02-19 09:10:00,53.9,53.3,30.13,South,169,1.0,1.0,98,0.00,,---,0.00,VWS V14.00,2013-02-19 14:10:00,
2013-02-19 09:11:00,53.3,52.8,30.13,West,279,0.0,4.0,98,0.00,,---,0.00,VWS V14.00,2013-02-19 14:11:00,
2013-02-19 09:12:00,53.4,52.8,30.13,West,279,0.0,1.0,98,0.00,,---,0.00,VWS V14.00,2013-02-19 14:12:00,
2013-02-19 09:13:00,53.6,53.0,30.13,West,277,0.0,1.0,98,0.00,,---,0.00,VWS V14.00,2013-02-19 14:13:00,
2013-02-19 09:14:00,53.7,53.2,30.13,WSW,248,2.0,2.0,98,0.00,,---,0.00,VWS V14.00,2013-02-19 14:14:00,
2013-02-19 09:15:00,54.3,53.8,30.13,NW,314,2.0,2.0,98,0.00,,---,0.00,VWS V14.00,2013-02-19 14:15:00,
2013-02-19 09:16:00,54.0,53.5,30.13,South,190,1.0,2.0,98,0.00,,---,0.00,VWS V14.00,2013-02-19 14:16:00,
2013-02-19 09:17:00,54.1,53.5,30.13,South,190,0.0,1.0,98,0.00,,---,0.00,VWS V14.00,2013-02-19 14:17:00,
2013-02-19 09:18:00,54.2,53.7,30.13,WNW,282,1.0,6.0,98,0.00,,---,0.00,VWS V14.00,2013-02-19 14:18:00,
2013-02-19 09:19:00,54.3,53.8,30.13,SW,229,0.0,5.0,98,0.00,,---,0.00,VWS V14.00,2013-02-19 14:19:00,
2013-02-19 09:20:00,54.7,54.2,30.12,WNW,285,0.0,1.0,98,0.00,,---,0.00,VWS V14.00,2013-02-19 14:20:00,
2013-02-19 09:21:00,54.4,53.8,30.13,SSE,162,2.0,3.0,98,0.00,,---,0.00,VWS V14.00,2013-02-19 14:21:00,
2013-02-19 09:22:00,54.4,53.8,30.13,SW,236,1.0,3.0,98,0.00,,---,0.00,VWS V14.00,2013-02-19 14:22:00,
2013-02-19 09:23:00,54.5,54.0,30.13,WNW,289,0.0,1.0,98,0.00,,---,0.00,VWS V14.00,2013-02-19 14:23:00,
2013-02-19 09:24:00,54.6,54.0,30.13,WNW,282,0.0,2.0,98,0.00,,---,0.00,VWS V14.00,2013-02-19 14:24:00,
2013-02-19 09:25:00,55.2,54.4,30.13,WSW,238,0.0,1.0,97,0.00,,---,0.00,VWS V14.00,2013-02-19 14:25:00,
2013-02-19 09:26:00,54.8,54.2,30.12,WNW,284,1.0,1.0,98,0.00,,---,0.00,VWS V14.00,2013-02-19 14:26:00,
2013-02-19 09:27:00,54.9,54.1,30.13,SSW,211,1.0,5.0,97,0.00,,---,0.00,VWS V14.00,2013-02-19 14:27:00,
2013-02-19 09:29:00,55.1,54.3,30.13,WNW,299,1.0,2.0,97,0.00,,---,0.00,VWS V14.00,2013-02-19 14:29:00,
2013-02-19 09:30:00,55.7,54.9,30.12,NW,306,0.0,1.0,97,0.00,,---,0.00,VWS V14.00,2013-02-19 14:30:00,
2013-02-19 09:31:00,55.2,54.4,30.13,West,261,0.0,1.0,97,0.00,,---,0.00,VWS V14.00,2013-02-19 14:31:00,
2013-02-19 09:32:00,55.3,54.5,30.13,West,263,0.0,1.0,97,0.00,,---,0.00,VWS V14.00,2013-02-19 14:32:00,
2013-02-19 09:33:00,55.4,54.6,30.13,NW,307,0.0,2.0,97,0.00,,---,0.00,VWS V14.00,2013-02-19 14:33:00,
2013-02-19 09:34:00,55.5,54.7,30.13,NW,306,0.0,1.0,97,0.00,,---,0.00,VWS V14.00,2013-02-19 14:34:00,
2013-02-19 09:35:00,56.4,54.7,30.12,NW,310,0.0,2.0,94,0.00,,---,0.00,VWS V14.00,2013-02-19 14:35:00,
2013-02-19 09:36:00,55.8,54.7,30.12,NW,321,1.0,1.0,96,0.00,,---,0.00,VWS V14.00,2013-02-19 14:36:00,
2013-02-19 09:37:00,55.9,54.8,30.12,NW,305,0.0,4.0,96,0.00,,---,0.00,VWS V14.00,2013-02-19 14:37:00,
2013-02-19 09:38:00,56.1,55.0,30.12,WNW,287,1.0,2.0,96,0.00,,---,0.00,VWS V14.00,2013-02-19 14:38:00,
2013-02-19 09:39:00,56.2,54.8,30.12,WNW,287,0.0,2.0,95,0.00,,---,0.00,VWS V14.00,2013-02-19 14:39:00,
2013-02-19 09:40:00,57.2,54.3,30.12,WSW,249,0.0,7.0,90,0.00,,---,0.00,VWS V14.00,2013-02-19 14:40:00,
2013-02-19 09:41:00,56.4,54.7,30.12,West,269,3.0,5.0,94,0.00,,---,0.00,VWS V14.00,2013-02-19 14:41:00,
2013-02-19 09:43:00,56.8,54.8,30.12,SW,221,0.0,12.0,93,0.00,,---,0.00,VWS V14.00,2013-02-19 14:43:00,
2013-02-19 09:44:00,56.9,54.6,30.12,SW,219,0.0,3.0,92,0.00,,---,0.00,VWS V14.00,2013-02-19 14:44:00,
2013-02-19 09:45:00,57.9,54.1,30.12,SSW,206,0.0,0.0,87,0.00,,---,0.00,VWS V14.00,2013-02-19 14:45:00,
2013-02-19 09:46:00,57.2,54.3,30.12,WSW,249,0.0,7.0,90,0.00,,---,0.00,VWS V14.00,2013-02-19 14:46:00,
2013-02-19 09:47:00,57.4,54.2,30.13,WSW,248,0.0,1.0,89,0.00,,---,0.00,VWS V14.00,2013-02-19 14:47:00,
2013-02-19 09:48:00,57.5,54.0,30.12,West,268,0.0,2.0,88,0.00,,---,0.00,VWS V14.00,2013-02-19 14:48:00,
2013-02-19 09:49:00,57.7,54.2,30.12,WNW,294,1.0,4.0,88,0.00,,---,0.00,VWS V14.00,2013-02-19 14:49:00,
2013-02-19 09:50:00,58.7,53.6,30.12,WNW,292,0.0,1.0,83,0.00,,---,0.00,VWS V14.00,2013-02-19 14:50:00,
2013-02-19 09:51:00,58.0,53.8,30.12,SSW,206,0.0,1.0,86,0.00,,---,0.00,VWS V14.00,2013-02-19 14:51:00,
2013-02-19 09:52:00,58.2,54.0,30.12,NNW,346,0.0,4.0,86,0.00,,---,0.00,VWS V14.00,2013-02-19 14:52:00,
2013-02-19 09:53:00,58.3,53.8,30.12,NNW,346,0.0,0.0,85,0.00,,---,0.00,VWS V14.00,2013-02-19 14:53:00,
2013-02-19 09:54:00,58.4,53.9,30.12,NNW,339,6.0,7.0,85,0.00,,---,0.00,VWS V14.00,2013-02-19 14:54:00,
2013-02-19 09:55:00,59.6,53.4,30.11,South,181,1.0,2.0,80,0.00,,---,0.00,VWS V14.00,2013-02-19 14:55:00,
2013-02-19 09:56:00,58.8,53.7,30.12,WNW,292,1.0,1.0,83,0.00,,---,0.00,VWS V14.00,2013-02-19 14:56:00,
2013-02-19 09:57:00,59.0,53.5,30.12,West,269,2.0,6.0,82,0.00,,---,0.00,VWS V14.00,2013-02-19 14:57:00,
2013-02-19 09:58:00,59.2,53.4,30.12,West,269,0.0,2.0,81,0.00,,---,0.00,VWS V14.00,2013-02-19 14:58:00,
2013-02-19 09:59:00,59.4,53.6,30.12,WNW,295,0.0,1.0,81,0.00,,---,0.00,VWS V14.00,2013-02-19 14:59:00,
2013-02-19 10:00:00,60.4,53.2,30.11,NW,319,1.0,2.0,77,0.00,,---,0.00,VWS V14.00,2013-02-19 15:00:00,
2013-02-19 10:01:00,59.6,53.4,30.11,SW,229,0.0,2.0,80,0.00,,---,0.00,VWS V14.00,2013-02-19 15:01:00,
2013-02-19 10:02:00,59.8,53.6,30.11,SW,230,0.0,1.0,80,0.00,,---,0.00,VWS V14.00,2013-02-19 15:02:00,
2013-02-19 10:03:00,60.0,53.5,30.11,SW,230,0.0,0.0,79,0.00,,---,0.00,VWS V14.00,2013-02-19 15:03:00,
2013-02-19 10:04:00,60.1,53.6,30.11,SW,230,0.0,0.0,79,0.00,,---,0.00,VWS V14.00,2013-02-19 15:04:00,
2013-02-19 10:05:00,61.6,53.6,30.11,West,263,2.0,2.0,75,0.00,,---,0.00,VWS V14.00,2013-02-19 15:05:00,
2013-02-19 10:06:00,60.5,53.3,30.11,NW,319,0.0,2.0,77,0.00,,---,0.00,VWS V14.00,2013-02-19 15:06:00,
2013-02-19 10:07:00,60.7,53.5,30.11,NW,319,0.0,1.0,77,0.00,,---,0.00,VWS V14.00,2013-02-19 15:07:00,
2013-02-19 10:08:00,61.0,53.4,30.11,South,189,5.0,6.0,76,0.00,,---,0.00,VWS V14.00,2013-02-19 15:08:00,
2013-02-19 10:09:00,61.3,53.7,30.11,South,175,1.0,5.0,76,0.00,,---,0.00,VWS V14.00,2013-02-19 15:09:00,
2013-02-19 10:10:00,62.6,53.1,30.11,SW,232,0.0,2.0,71,0.00,,---,0.00,VWS V14.00,2013-02-19 15:10:00,
2013-02-19 10:11:00,61.7,53.3,30.11,WSW,244,2.0,3.0,74,0.00,,---,0.00,VWS V14.00,2013-02-19 15:11:00,
2013-02-19 10:12:00,61.9,53.2,30.11,West,281,0.0,4.0,73,0.00,,---,0.00,VWS V14.00,2013-02-19 15:12:00,
2013-02-19 10:13:00,62.1,53.0,30.11,West,279,5.0,5.0,72,0.00,,---,0.00,VWS V14.00,2013-02-19 15:13:00,
2013-02-19 10:14:00,62.3,53.2,30.11,WNW,302,4.0,4.0,72,0.00,,---,0.00,VWS V14.00,2013-02-19 15:14:00,
2013-02-19 10:15:00,63.1,53.2,30.10,NW,313,9.0,9.0,70,0.00,,---,0.00,VWS V14.00,2013-02-19 15:15:00,
2013-02-19 10:16:00,62.7,53.2,30.11,West,279,4.0,5.0,71,0.00,,---,0.00,VWS V14.00,2013-02-19 15:16:00,
2013-02-19 10:17:00,62.8,53.3,30.11,SSW,208,0.0,4.0,71,0.00,,---,0.00,VWS V14.00,2013-02-19 15:17:00,
2013-02-19 10:18:00,62.9,53.4,30.11,SW,223,0.0,3.0,71,0.00,,---,0.00,VWS V14.00,2013-02-19 15:18:00,
2013-02-19 10:19:00,63.0,53.5,30.11,NNW,342,2.0,2.0,71,0.00,,---,0.00,VWS V14.00,2013-02-19 15:19:00,
2013-02-19 10:20:00,63.5,52.8,30.10,SSW,209,1.0,4.0,68,0.00,,---,0.00,VWS V14.00,2013-02-19 15:20:00,
2013-02-19 10:21:00,63.2,52.9,30.10,West,273,1.0,11.0,69,0.00,,---,0.00,VWS V14.00,2013-02-19 15:21:00,
2013-02-19 10:22:00,63.3,53.0,30.11,NW,325,0.0,5.0,69,0.00,,---,0.00,VWS V14.00,2013-02-19 15:22:00,
2013-02-19 10:23:00,63.4,53.1,30.10,NNE,21,0.0,2.0,69,0.00,,---,0.00,VWS V14.00,2013-02-19 15:23:00,
2013-02-19 10:24:00,63.4,53.1,30.10,North,10,2.0,2.0,69,0.00,,---,0.00,VWS V14.00,2013-02-19 15:24:00,
2013-02-19 10:25:00,63.6,52.5,30.10,SSW,212,0.0,1.0,67,0.00,,---,0.00,VWS V14.00,2013-02-19 15:25:00,
2013-02-19 10:26:00,63.5,52.4,30.10,SW,217,3.0,12.0,67,0.00,,---,0.00,VWS V14.00,2013-02-19 15:26:00,
2013-02-19 10:27:00,63.5,52.4,30.10,SW,227,0.0,4.0,67,0.00,,---,0.00,VWS V14.00,2013-02-19 15:27:00,
2013-02-19 10:28:00,63.5,52.4,30.10,West,271,0.0,1.0,67,0.00,,---,0.00,VWS V14.00,2013-02-19 15:28:00,
2013-02-19 10:29:00,63.6,52.9,30.10,West,271,0.0,1.0,68,0.00,,---,0.00,VWS V14.00,2013-02-19 15:29:00,
2013-02-19 10:30:00,63.8,52.7,30.10,WSW,237,0.0,4.0,67,0.00,,---,0.00,VWS V14.00,2013-02-19 15:30:00,
2013-02-19 10:31:00,63.6,52.5,30.10,NNW,342,2.0,2.0,67,0.00,,---,0.00,VWS V14.00,2013-02-19 15:31:00,
2013-02-19 10:32:00,63.7,53.0,30.10,West,262,0.0,3.0,68,0.00,,---,0.00,VWS V14.00,2013-02-19 15:32:00,
2013-02-19 10:33:00,63.7,53.0,30.10,SW,217,0.0,6.0,68,0.00,,---,0.00,VWS V14.00,2013-02-19 15:33:00,
2013-02-19 10:34:00,63.7,52.5,30.10,SW,217,2.0,4.0,67,0.00,,---,0.00,VWS V14.00,2013-02-19 15:34:00,
2013-02-19 10:35:00,63.9,52.3,30.09,NW,306,1.0,11.0,66,0.00,,---,0.00,VWS V14.00,2013-02-19 15:35:00,
2013-02-19 10:36:00,63.8,52.7,30.10,WSW,237,0.0,4.0,67,0.00,,---,0.00,VWS V14.00,2013-02-19 15:36:00,
2013-02-19 10:37:00,63.8,52.7,30.10,South,179,1.0,2.0,67,0.00,,---,0.00,VWS V14.00,2013-02-19 15:37:00,
2013-02-19 10:38:00,63.8,52.7,30.09,SW,232,2.0,4.0,67,0.00,,---,0.00,VWS V14.00,2013-02-19 15:38:00,
2013-02-19 10:39:00,63.8,52.7,30.09,SW,221,2.0,4.0,67,0.00,,---,0.00,VWS V14.00,2013-02-19 15:39:00,
2013-02-19 10:40:00,64.1,52.1,30.09,NNW,331,1.0,1.0,65,0.00,,---,0.00,VWS V14.00,2013-02-19 15:40:00,
2013-02-19 10:41:00,63.9,52.3,30.09,West,277,0.0,11.0,66,0.00,,---,0.00,VWS V14.00,2013-02-19 15:41:00,
2013-02-19 10:42:00,63.9,52.3,30.09,WSW,252,1.0,1.0,66,0.00,,---,0.00,VWS V14.00,2013-02-19 15:42:00,
2013-02-19 10:43:00,64.0,52.4,30.09,WNW,291,5.0,6.0,66,0.00,,---,0.00,VWS V14.00,2013-02-19 15:43:00,
2013-02-19 10:44:00,64.1,52.1,30.09,NNW,342,1.0,8.0,65,0.00,,---,0.00,VWS V14.00,2013-02-19 15:44:00,
2013-02-19 10:45:00,64.5,52.5,30.08,WNW,289,5.0,5.0,65,0.00,,---,0.00,VWS V14.00,2013-02-19 15:45:00,
2013-02-19 10:46:00,64.2,52.6,30.09,WSW,255,1.0,7.0,66,0.00,,---,0.00,VWS V14.00,2013-02-19 15:46:00,
2013-02-19 10:48:00,64.3,52.3,30.09,SW,214,0.0,4.0,65,0.00,,---,0.00,VWS V14.00,2013-02-19 15:48:00,
2013-02-19 10:49:00,64.4,52.4,30.09,West,275,2.0,5.0,65,0.00,,---,0.00,VWS V14.00,2013-02-19 15:49:00,
2013-02-19 10:50:00,64.9,52.5,30.08,NW,304,1.0,4.0,64,0.00,,---,0.00,VWS V14.00,2013-02-19 15:50:00,
2013-02-19 10:51:00,64.5,52.1,30.08,SW,228,0.0,8.0,64,0.00,,---,0.00,VWS V14.00,2013-02-19 15:51:00,
2013-02-19 10:53:00,64.7,52.3,30.08,SSW,210,0.0,13.0,64,0.00,,---,0.00,VWS V14.00,2013-02-19 15:53:00,
2013-02-19 10:54:00,64.7,52.3,30.08,SW,215,1.0,13.0,64,0.00,,---,0.00,VWS V14.00,2013-02-19 15:54:00,
2013-02-19 10:55:00,65.2,52.3,30.08,WNW,298,1.0,5.0,63,0.00,,---,0.00,VWS V14.00,2013-02-19 15:55:00,
2013-02-19 10:56:00,64.9,52.5,30.08,SW,227,6.0,6.0,64,0.00,,---,0.00,VWS V14.00,2013-02-19 15:56:00,
2013-02-19 10:58:00,65.0,52.1,30.08,NW,318,2.0,5.0,63,0.00,,---,0.00,VWS V14.00,2013-02-19 15:58:00,
2013-02-19 10:59:00,65.1,51.8,30.08,WSW,257,0.0,3.0,62,0.00,,---,0.00,VWS V14.00,2013-02-19 15:59:00,
2013-02-19 11:00:00,65.5,51.7,30.08,SW,223,5.0,7.0,61,0.00,,---,0.00,VWS V14.00,2013-02-19 16:00:00,
2013-02-19 11:01:00,65.2,51.9,30.08,WSW,238,1.0,6.0,62,0.00,,---,0.00,VWS V14.00,2013-02-19 16:01:00,
2013-02-19 11:02:00,65.3,52.0,30.08,SW,225,1.0,3.0,62,0.00,,---,0.00,VWS V14.00,2013-02-19 16:02:00,
2013-02-19 11:03:00,65.3,52.0,30.08,WSW,254,0.0,4.0,62,0.00,,---,0.00,VWS V14.00,2013-02-19 16:03:00,
2013-02-19 11:04:00,65.4,52.1,30.08,SSW,204,3.0,18.0,62,0.00,,---,0.00,VWS V14.00,2013-02-19 16:04:00,
2013-02-19 11:05:00,65.6,51.8,30.08,SSW,209,5.0,8.0,61,0.00,,---,0.00,VWS V14.00,2013-02-19 16:05:00,
2013-02-19 11:06:00,65.5,51.7,30.08,West,264,2.0,7.0,61,0.00,,---,0.00,VWS V14.00,2013-02-19 16:06:00,
2013-02-19 11:07:00,65.5,51.7,30.08,NNW,339,2.0,5.0,61,0.00,,---,0.00,VWS V14.00,2013-02-19 16:07:00,
2013-02-19 11:08:00,65.6,51.8,30.08,NW,307,12.0,12.0,61,0.00,,---,0.00,VWS V14.00,2013-02-19 16:08:00,
2013-02-19 11:09:00,65.6,51.8,30.08,West,273,1.0,12.0,61,0.00,,---,0.00,VWS V14.00,2013-02-19 16:09:00,
2013-02-19 11:10:00,65.7,51.9,30.09,WSW,244,0.0,1.0,61,0.00,,---,0.00,VWS V14.00,2013-02-19 16:10:00,
2013-02-19 11:11:00,65.6,51.8,30.08,SW,236,2.0,8.0,61,0.00,,---,0.00,VWS V14.00,2013-02-19 16:11:00,
2013-02-19 11:12:00,65.7,51.9,30.08,SW,236,0.0,2.0,61,0.00,,---,0.00,VWS V14.00,2013-02-19 16:12:00,
2013-02-19 11:13:00,65.7,51.9,30.08,SSE,148,0.0,6.0,61,0.00,,---,0.00,VWS V14.00,2013-02-19 16:13:00,
2013-02-19 11:14:00,65.7,51.9,30.08,SW,234,1.0,6.0,61,0.00,,---,0.00,VWS V14.00,2013-02-19 16:14:00,
2013-02-19 11:15:00,65.9,52.1,30.09,WSW,238,1.0,1.0,61,0.00,,---,0.00,VWS V14.00,2013-02-19 16:15:00,
2013-02-19 11:16:00,65.8,52.0,30.09,WSW,238,1.0,1.0,61,0.00,,---,0.00,VWS V14.00,2013-02-19 16:16:00,
2013-02-19 11:17:00,65.8,52.0,30.09,South,190,4.0,5.0,61,0.00,,---,0.00,VWS V14.00,2013-02-19 16:17:00,
2013-02-19 11:18:00,65.9,52.1,30.09,SW,236,3.0,6.0,61,0.00,,---,0.00,VWS V14.00,2013-02-19 16:18:00,
2013-02-19 11:19:00,65.9,52.1,30.09,West,267,0.0,5.0,61,0.00,,---,0.00,VWS V14.00,2013-02-19 16:19:00,
2013-02-19 11:20:00,66.0,52.2,30.09,South,190,3.0,3.0,61,0.00,,---,0.00,VWS V14.00,2013-02-19 16:20:00,
2013-02-19 11:21:00,66.0,52.2,30.09,West,278,2.0,5.0,61,0.00,,---,0.00,VWS V14.00,2013-02-19 16:21:00,
2013-02-19 11:22:00,66.0,52.2,30.09,SSW,202,2.0,3.0,61,0.00,,---,0.00,VWS V14.00,2013-02-19 16:22:00,
2013-02-19 11:23:00,66.0,52.2,30.09,SE,132,6.0,7.0,61,0.00,,---,0.00,VWS V14.00,2013-02-19 16:23:00,
2013-02-19 11:24:00,66.0,51.7,30.09,WSW,246,2.0,6.0,60,0.00,,---,0.00,VWS V14.00,2013-02-19 16:24:00,
2013-02-19 11:25:00,65.9,52.1,30.09,West,264,3.0,3.0,61,0.00,,---,0.00,VWS V14.00,2013-02-19 16:25:00,
2013-02-19 11:26:00,66.0,52.2,30.09,WSW,239,2.0,6.0,61,0.00,,---,0.00,VWS V14.00,2013-02-19 16:26:00,
2013-02-19 11:27:00,66.0,52.2,30.09,SW,223,2.0,4.0,61,0.00,,---,0.00,VWS V14.00,2013-02-19 16:27:00,
2013-02-19 11:28:00,66.0,52.2,30.09,WNW,288,11.0,11.0,61,0.00,,---,0.00,VWS V14.00,2013-02-19 16:28:00,
2013-02-19 11:29:00,66.0,52.2,30.09,NNW,335,4.0,11.0,61,0.00,,---,0.00,VWS V14.00,2013-02-19 16:29:00,
2013-02-19 11:30:00,65.9,52.5,30.09,WSW,248,0.0,4.0,62,0.00,,---,0.00,VWS V14.00,2013-02-19 16:30:00,
2013-02-19 11:31:00,66.0,52.2,30.09,SW,222,4.0,4.0,61,0.00,,---,0.00,VWS V14.00,2013-02-19 16:31:00,
2013-02-19 11:32:00,66.0,52.6,30.09,SSW,209,1.0,5.0,62,0.00,,---,0.00,VWS V14.00,2013-02-19 16:32:00,
2013-02-19 11:33:00,66.0,52.6,30.09,West,280,1.0,5.0,62,0.00,,---,0.00,VWS V14.00,2013-02-19 16:33:00,
2013-02-19 11:35:00,65.7,52.3,30.09,SW,234,0.0,4.0,62,0.00,,---,0.00,VWS V14.00,2013-02-19 16:35:00,
2013-02-19 11:36:00,65.9,52.5,30.09,SSW,208,7.0,7.0,62,0.00,,---,0.00,VWS V14.00,2013-02-19 16:36:00,
2013-02-19 11:37:00,65.9,52.1,30.09,SW,232,1.0,7.0,61,0.00,,---,0.00,VWS V14.00,2013-02-19 16:37:00,
2013-02-19 11:38:00,65.9,52.5,30.09,West,275,6.0,6.0,62,0.00,,---,0.00,VWS V14.00,2013-02-19 16:38:00,
2013-02-19 11:39:00,65.8,52.4,30.09,West,279,1.0,6.0,62,0.00,,---,0.00,VWS V14.00,2013-02-19 16:39:00,
2013-02-19 11:40:00,65.5,52.6,30.09,WSW,246,1.0,2.0,63,0.00,,---,0.00,VWS V14.00,2013-02-19 16:40:00,
2013-02-19 11:41:00,65.7,52.3,30.09,SSW,202,0.0,4.0,62,0.00,,---,0.00,VWS V14.00,2013-02-19 16:41:00,
2013-02-19 11:42:00,65.6,52.2,30.09,WNW,283,4.0,6.0,62,0.00,,---,0.00,VWS V14.00,2013-02-19 16:42:00,
2013-02-19 11:43:00,65.6,52.2,30.09,South,181,2.0,4.0,62,0.00,,---,0.00,VWS V14.00,2013-02-19 16:43:00,
2013-02-19 11:44:00,65.6,52.2,30.09,SW,229,0.0,4.0,62,0.00,,---,0.00,VWS V14.00,2013-02-19 16:44:00,
2013-02-19 11:45:00,65.3,52.4,30.08,West,271,1.0,1.0,63,0.00,,---,0.00,VWS V14.00,2013-02-19 16:45:00,
2013-02-19 11:46:00,65.5,52.6,30.09,West,277,2.0,6.0,63,0.00,,---,0.00,VWS V14.00,2013-02-19 16:46:00,
2013-02-19 11:47:00,65.5,52.6,30.09,WSW,238,2.0,3.0,63,0.00,,---,0.00,VWS V14.00,2013-02-19 16:47:00,
2013-02-19 11:48:00,65.4,52.5,30.09,SW,230,0.0,3.0,63,0.00,,---,0.00,VWS V14.00,2013-02-19 16:48:00,
2013-02-19 11:49:00,65.4,52.9,30.08,North,350,5.0,5.0,64,0.00,,---,0.00,VWS V14.00,2013-02-19 16:49:00,
2013-02-19 11:50:00,65.1,52.6,30.08,SW,223,0.0,1.0,64,0.00,,---,0.00,VWS V14.00,2013-02-19 16:50:00,
2013-02-19 11:51:00,65.3,52.4,30.08,NW,317,4.0,5.0,63,0.00,,---,0.00,VWS V14.00,2013-02-19 16:51:00,
2013-02-19 11:52:00,65.2,52.3,30.08,WSW,241,1.0,4.0,63,0.00,,---,0.00,VWS V14.00,2013-02-19 16:52:00,
2013-02-19 11:53:00,65.2,52.3,30.08,SW,220,3.0,6.0,63,0.00,,---,0.00,VWS V14.00,2013-02-19 16:53:00,
2013-02-19 11:54:00,65.2,52.3,30.08,SW,221,0.0,3.0,63,0.00,,---,0.00,VWS V14.00,2013-02-19 16:54:00,
2013-02-19 11:55:00,65.1,52.6,30.08,WSW,248,4.0,4.0,64,0.00,,---,0.00,VWS V14.00,2013-02-19 16:55:00,
2013-02-19 11:56:00,65.2,52.7,30.08,SSW,208,1.0,5.0,64,0.00,,---,0.00,VWS V14.00,2013-02-19 16:56:00,
2013-02-19 11:57:00,65.1,52.6,30.08,SW,227,2.0,5.0,64,0.00,,---,0.00,VWS V14.00,2013-02-19 16:57:00,
2013-02-19 11:58:00,65.1,52.6,30.08,West,259,0.0,4.0,64,0.00,,---,0.00,VWS V14.00,2013-02-19 16:58:00,
2013-02-19 11:59:00,65.1,52.6,30.08,SSW,202,1.0,4.0,64,0.00,,---,0.00,VWS V14.00,2013-02-19 16:59:00,
2013-02-19 12:00:00,65.0,52.1,30.08,SW,229,0.0,2.0,63,0.00,,---,0.00,VWS V14.00,2013-02-19 17:00:00,
2013-02-19 12:01:00,65.1,52.2,30.08,SSW,203,0.0,4.0,63,0.00,,---,0.00,VWS V14.00,2013-02-19 17:01:00,
2013-02-19 12:02:00,65.1,52.2,30.07,NW,319,4.0,6.0,63,0.00,,---,0.00,VWS V14.00,2013-02-19 17:02:00,
2013-02-19 12:03:00,65.0,52.1,30.07,WNW,298,0.0,4.0,63,0.00,,---,0.00,VWS V14.00,2013-02-19 17:03:00,
2013-02-19 12:04:00,65.0,52.1,30.07,NW,306,0.0,1.0,63,0.00,,---,0.00,VWS V14.00,2013-02-19 17:04:00,
2013-02-19 12:05:00,64.9,52.5,30.07,SSW,200,3.0,7.0,64,0.00,,---,0.00,VWS V14.00,2013-02-19 17:05:00,
2013-02-19 12:06:00,65.0,52.1,30.08,SSW,206,1.0,3.0,63,0.00,,---,0.00,VWS V14.00,2013-02-19 17:06:00,
2013-02-19 12:07:00,65.0,52.1,30.07,ESE,106,0.0,2.0,63,0.00,,---,0.00,VWS V14.00,2013-02-19 17:07:00,
2013-02-19 12:08:00,65.0,52.5,30.07,NNW,340,6.0,6.0,64,0.00,,---,0.00,VWS V14.00,2013-02-19 17:08:00,
2013-02-19 12:09:00,65.0,52.5,30.07,SSW,199,1.0,6.0,64,0.00,,---,0.00,VWS V14.00,2013-02-19 17:09:00,
2013-02-19 12:10:00,64.9,52.9,30.07,SW,227,3.0,3.0,65,0.00,,---,0.00,VWS V14.00,2013-02-19 17:10:00,
2013-02-19 12:11:00,65.0,52.5,30.07,NNW,344,4.0,7.0,64,0.00,,---,0.00,VWS V14.00,2013-02-19 17:11:00,
2013-02-19 12:12:00,64.9,52.5,30.07,SSW,192,1.0,4.0,64,0.00,,---,0.00,VWS V14.00,2013-02-19 17:12:00,
2013-02-19 12:14:00,64.9,52.9,30.07,NNW,343,0.0,5.0,65,0.00,,---,0.00,VWS V14.00,2013-02-19 17:14:00,
2013-02-19 12:15:00,64.7,52.7,30.06,NNW,340,4.0,4.0,65,0.00,,---,0.00,VWS V14.00,2013-02-19 17:15:00,
2013-02-19 12:16:00,64.9,52.9,30.07,SSW,201,4.0,4.0,65,0.00,,---,0.00,VWS V14.00,2013-02-19 17:16:00,
2013-02-19 12:17:00,64.8,52.8,30.07,West,271,1.0,8.0,65,0.00,,---,0.00,VWS V14.00,2013-02-19 17:17:00,
2013-02-19 12:18:00,64.8,52.8,30.06,SSW,208,2.0,2.0,65,0.00,,---,0.00,VWS V14.00,2013-02-19 17:18:00,
2013-02-19 12:19:00,64.7,52.7,30.06,WSW,238,2.0,4.0,65,0.00,,---,0.00,VWS V14.00,2013-02-19 17:19:00,
2013-02-19 12:20:00,64.4,52.4,30.06,WNW,302,0.0,1.0,65,0.00,,---,0.00,VWS V14.00,2013-02-19 17:20:00,
2013-02-19 12:21:00,64.6,52.6,30.06,SW,231,3.0,5.0,65,0.00,,---,0.00,VWS V14.00,2013-02-19 17:21:00,
2013-02-19 12:22:00,64.6,52.6,30.06,SW,217,2.0,4.0,65,0.00,,---,0.00,VWS V14.00,2013-02-19 17:22:00,
2013-02-19 12:23:00,64.5,52.5,30.06,ENE,77,0.0,6.0,65,0.00,,---,0.00,VWS V14.00,2013-02-19 17:23:00,
2013-02-19 12:24:00,64.5,52.5,30.06,West,268,1.0,3.0,65,0.00,,---,0.00,VWS V14.00,2013-02-19 17:24:00,
2013-02-19 12:25:00,64.2,54.2,30.05,SW,232,0.0,2.0,70,0.00,,---,0.00,VWS V14.00,2013-02-19 17:25:00,
2013-02-19 12:26:00,64.4,52.8,30.06,NNE,30,2.0,2.0,66,0.00,,---,0.00,VWS V14.00,2013-02-19 17:26:00,
2013-02-19 12:27:00,64.4,52.8,30.06,SSW,213,1.0,4.0,66,0.00,,---,0.00,VWS V14.00,2013-02-19 17:27:00,
2013-02-19 12:28:00,64.4,53.6,30.06,South,169,4.0,4.0,68,0.00,,---,0.00,VWS V14.00,2013-02-19 17:28:00,
2013-02-19 12:29:00,64.3,53.9,30.05,SSW,198,2.0,4.0,69,0.00,,---,0.00,VWS V14.00,2013-02-19 17:29:00,
2013-02-19 12:30:00,63.9,54.3,30.05,North,350,2.0,2.0,71,0.00,,---,0.00,VWS V14.00,2013-02-19 17:30:00,
2013-02-19 12:31:00,64.2,54.2,30.05,SSW,213,2.0,3.0,70,0.00,,---,0.00,VWS V14.00,2013-02-19 17:31:00,
2013-02-19 12:32:00,64.2,54.6,30.05,SW,217,1.0,2.0,71,0.00,,---,0.00,VWS V14.00,2013-02-19 17:32:00,
2013-02-19 12:33:00,64.1,54.5,30.05,SSW,204,2.0,3.0,71,0.00,,---,0.00,VWS V14.00,2013-02-19 17:33:00,
2013-02-19 12:34:00,64.0,54.4,30.05,SW,215,1.0,2.0,71,0.00,,---,0.00,VWS V14.00,2013-02-19 17:34:00,
2013-02-19 12:35:00,63.3,54.5,30.05,WNW,300,1.0,2.0,73,0.00,,---,0.00,VWS V14.00,2013-02-19 17:35:00,
2013-02-19 12:36:00,63.8,54.2,30.05,SW,227,3.0,6.0,71,0.00,,---,0.00,VWS V14.00,2013-02-19 17:36:00,
2013-02-19 12:37:00,63.6,54.0,30.05,SW,235,0.0,3.0,71,0.00,,---,0.00,VWS V14.00,2013-02-19 17:37:00,
2013-02-19 12:38:00,63.6,54.0,30.05,SW,235,0.0,2.0,71,0.00,,---,0.00,VWS V14.00,2013-02-19 17:38:00,
2013-02-19 12:39:00,63.5,54.3,30.05,South,179,2.0,2.0,72,0.00,,---,0.00,VWS V14.00,2013-02-19 17:39:00,
2013-02-19 12:40:00,62.9,54.5,30.05,SSW,206,3.0,4.0,74,0.01,,---,0.01,VWS V14.00,2013-02-19 17:40:00,
2013-02-19 12:41:00,63.3,54.5,30.05,WNW,300,0.0,2.0,73,0.00,,---,0.00,VWS V14.00,2013-02-19 17:41:00,
2013-02-19 12:42:00,63.2,54.4,30.05,SSW,210,2.0,2.0,73,0.01,,---,0.01,VWS V14.00,2013-02-19 17:42:00,
2013-02-19 12:43:00,63.1,54.3,30.05,South,170,2.0,4.0,73,0.01,,---,0.01,VWS V14.00,2013-02-19 17:43:00,
2013-02-19 12:44:00,63.0,54.2,30.05,SSW,211,0.0,4.0,73,0.01,,---,0.01,VWS V14.00,2013-02-19 17:44:00,
2013-02-19 12:45:00,62.6,54.9,30.05,NNW,344,2.0,4.0,76,0.01,,---,0.01,VWS V14.00,2013-02-19 17:45:00,
2013-02-19 12:46:00,62.9,54.5,30.05,SSE,157,8.0,9.0,74,0.01,,---,0.01,VWS V14.00,2013-02-19 17:46:00,
2013-02-19 12:47:00,62.8,54.8,30.05,SSE,159,0.0,8.0,75,0.01,,---,0.01,VWS V14.00,2013-02-19 17:47:00,
2013-02-19 12:48:00,62.7,54.7,30.05,WSW,247,2.0,5.0,75,0.01,,---,0.01,VWS V14.00,2013-02-19 17:48:00,
2013-02-19 12:49:00,62.7,54.7,30.05,NW,323,0.0,4.0,75,0.01,,---,0.01,VWS V14.00,2013-02-19 17:49:00,
2013-02-19 12:50:00,62.3,55.0,30.04,SSW,208,0.0,2.0,77,0.01,,---,0.01,VWS V14.00,2013-02-19 17:50:00,
2013-02-19 12:51:00,62.5,54.8,30.05,NNW,344,0.0,4.0,76,0.01,,---,0.01,VWS V14.00,2013-02-19 17:51:00,
2013-02-19 12:52:00,62.5,54.8,30.05,SW,220,4.0,4.0,76,0.01,,---,0.01,VWS V14.00,2013-02-19 17:52:00,
2013-02-19 12:53:00,62.4,54.8,30.05,WNW,286,0.0,5.0,76,0.01,,---,0.01,VWS V14.00,2013-02-19 17:53:00,
2013-02-19 12:54:00,62.4,54.8,30.05,WNW,286,0.0,1.0,76,0.01,,---,0.01,VWS V14.00,2013-02-19 17:54:00,
2013-02-19 12:55:00,62.1,54.8,30.04,SW,229,0.0,2.0,77,0.01,,---,0.01,VWS V14.00,2013-02-19 17:55:00,
2013-02-19 12:56:00,62.3,55.0,30.04,SSW,208,0.0,2.0,77,0.01,,---,0.01,VWS V14.00,2013-02-19 17:56:00,
2013-02-19 12:57:00,62.2,54.9,30.04,SSW,208,0.0,2.0,77,0.01,,---,0.01,VWS V14.00,2013-02-19 17:57:00,
2013-02-19 12:58:00,62.2,54.9,30.04,NW,325,0.0,4.0,77,0.01,,---,0.01,VWS V14.00,2013-02-19 17:58:00,
2013-02-19 12:59:00,62.2,54.9,30.04,NW,304,2.0,2.0,77,0.01,,---,0.01,VWS V14.00,2013-02-19 17:59:00,
2013-02-19 13:00:00,61.9,54.6,30.03,NNE,17,0.0,2.0,77,0.01,,---,0.01,VWS V14.00,2013-02-19 18:00:00,
2013-02-19 13:01:00,62.1,54.8,30.04,SW,229,0.0,2.0,77,0.01,,---,0.01,VWS V14.00,2013-02-19 18:01:00,
2013-02-19 13:02:00,62.0,54.7,30.04,ESE,121,0.0,4.0,77,0.01,,---,0.01,VWS V14.00,2013-02-19 18:02:00,
2013-02-19 13:03:00,62.0,54.7,30.03,SSW,211,0.0,2.0,77,0.01,,---,0.01,VWS V14.00,2013-02-19 18:03:00,
2013-02-19 13:04:00,62.0,54.7,30.03,SSW,196,0.0,5.0,77,0.01,,---,0.01,VWS V14.00,2013-02-19 18:04:00,
2013-02-19 13:05:00,61.7,54.8,30.03,SSW,202,3.0,3.0,78,0.02,,---,0.02,VWS V14.00,2013-02-19 18:05:00,
2013-02-19 13:06:00,61.9,54.6,30.03,WSW,257,2.0,2.0,77,0.01,,---,0.01,VWS V14.00,2013-02-19 18:06:00,
2013-02-19 13:07:00,61.9,54.6,30.04,North,349,0.0,5.0,77,0.01,,---,0.01,VWS V14.00,2013-02-19 18:07:00,
2013-02-19 13:08:00,61.8,54.5,30.04,North,349,0.0,2.0,77,0.01,,---,0.01,VWS V14.00,2013-02-19 18:08:00,
2013-02-19 13:09:00,61.8,54.9,30.03,SSE,166,0.0,6.0,78,0.01,,---,0.01,VWS V14.00,2013-02-19 18:09:00,
2013-02-19 13:10:00,61.5,55.3,30.04,South,189,4.0,9.0,80,0.02,,---,0.02,VWS V14.00,2013-02-19 18:10:00,
2013-02-19 13:11:00,61.7,55.1,30.03,SW,229,1.0,3.0,79,0.02,,---,0.02,VWS V14.00,2013-02-19 18:11:00,
2013-02-19 13:12:00,61.7,55.1,30.04,SW,235,2.0,3.0,79,0.02,,---,0.02,VWS V14.00,2013-02-19 18:12:00,
2013-02-19 13:14:00,61.6,55.4,30.04,SW,233,1.0,1.0,80,0.02,,---,0.02,VWS V14.00,2013-02-19 18:14:00,
2013-02-19 13:15:00,61.2,55.3,30.04,SSW,193,0.0,0.0,81,0.02,,---,0.02,VWS V14.00,2013-02-19 18:15:00,
2013-02-19 13:16:00,61.5,55.3,30.04,SSW,213,0.0,9.0,80,0.02,,---,0.02,VWS V14.00,2013-02-19 18:16:00,
2013-02-19 13:17:00,61.4,55.2,30.04,SSW,213,0.0,1.0,80,0.02,,---,0.02,VWS V14.00,2013-02-19 18:17:00,
2013-02-19 13:18:00,61.3,55.4,30.04,South,173,4.0,4.0,81,0.02,,---,0.02,VWS V14.00,2013-02-19 18:18:00,
2013-02-19 13:19:00,61.3,55.4,30.04,SSW,193,0.0,4.0,81,0.02,,---,0.02,VWS V14.00,2013-02-19 18:19:00,
2013-02-19 13:20:00,60.9,55.7,30.03,SSW,208,2.0,5.0,83,0.03,,---,0.03,VWS V14.00,2013-02-19 18:20:00,
2013-02-19 13:21:00,61.2,55.3,30.04,SSW,194,1.0,2.0,81,0.03,,---,0.03,VWS V14.00,2013-02-19 18:21:00,
2013-02-19 13:22:00,61.1,55.6,30.03,South,186,4.0,6.0,82,0.03,,---,0.03,VWS V14.00,2013-02-19 18:22:00,
2013-02-19 13:23:00,61.1,55.6,30.04,WNW,292,0.0,4.0,82,0.03,,---,0.03,VWS V14.00,2013-02-19 18:23:00,
2013-02-19 13:24:00,61.0,55.5,30.03,WNW,287,2.0,4.0,82,0.03,,---,0.03,VWS V14.00,2013-02-19 18:24:00,
2013-02-19 13:25:00,60.6,55.8,30.03,SW,216,2.0,5.0,84,0.04,,---,0.04,VWS V14.00,2013-02-19 18:25:00,
2013-02-19 13:26:00,60.9,55.7,30.03,SW,222,1.0,5.0,83,0.03,,---,0.03,VWS V14.00,2013-02-19 18:26:00,
2013-02-19 13:27:00,60.8,55.6,30.03,SW,236,0.0,3.0,83,0.03,,---,0.03,VWS V14.00,2013-02-19 18:27:00,
2013-02-19 13:28:00,60.8,55.6,30.03,SW,234,1.0,1.0,83,0.04,,---,0.04,VWS V14.00,2013-02-19 18:28:00,
2013-02-19 13:29:00,60.7,55.5,30.03,SW,220,1.0,2.0,83,0.04,,---,0.04,VWS V14.00,2013-02-19 18:29:00,
2013-02-19 13:30:00,60.3,55.5,30.02,NNE,19,2.0,2.0,84,0.04,,---,0.04,VWS V14.00,2013-02-19 18:30:00,
2013-02-19 13:31:00,60.6,55.8,30.03,WSW,244,3.0,9.0,84,0.04,,---,0.04,VWS V14.00,2013-02-19 18:31:00,
2013-02-19 13:32:00,60.5,55.7,30.03,WSW,257,2.0,3.0,84,0.04,,---,0.04,VWS V14.00,2013-02-19 18:32:00,
2013-02-19 13:33:00,60.4,55.5,30.03,SW,214,0.0,3.0,84,0.04,,---,0.04,VWS V14.00,2013-02-19 18:33:00,
2013-02-19 13:34:00,60.4,55.5,30.03,SSW,213,0.0,3.0,84,0.04,,---,0.04,VWS V14.00,2013-02-19 18:34:00,
2013-02-19 13:35:00,59.9,55.4,30.03,WSW,248,1.0,1.0,85,0.05,,---,0.05,VWS V14.00,2013-02-19 18:35:00,
2013-02-19 13:36:00,60.2,55.3,30.02,South,178,4.0,4.0,84,0.04,,---,0.04,VWS V14.00,2013-02-19 18:36:00,
2013-02-19 13:37:00,60.2,55.3,30.02,West,271,0.0,4.0,84,0.04,,---,0.04,VWS V14.00,2013-02-19 18:37:00,
2013-02-19 13:38:00,60.1,55.6,30.02,SSW,208,1.0,2.0,85,0.04,,---,0.04,VWS V14.00,2013-02-19 18:38:00,
2013-02-19 13:39:00,60.0,55.5,30.02,NW,306,2.0,6.0,85,0.05,,---,0.05,VWS V14.00,2013-02-19 18:39:00,
2013-02-19 13:40:00,59.6,55.4,30.02,WSW,256,1.0,1.0,86,0.05,,---,0.06,VWS V14.00,2013-02-19 18:40:00,
2013-02-19 13:41:00,59.9,55.4,30.03,SSW,198,2.0,2.0,85,0.05,,---,0.05,VWS V14.00,2013-02-19 18:41:00,
2013-02-19 13:42:00,59.8,55.3,30.02,SW,229,4.0,4.0,85,0.05,,---,0.05,VWS V14.00,2013-02-19 18:42:00,
2013-02-19 13:43:00,59.7,55.5,30.03,SW,217,0.0,4.0,86,0.04,,---,0.05,VWS V14.00,2013-02-19 18:43:00,
2013-02-19 13:44:00,59.6,55.4,30.02,SW,217,0.0,1.0,86,0.04,,---,0.05,VWS V14.00,2013-02-19 18:44:00,
2013-02-19 13:45:00,59.3,55.4,30.02,WSW,238,2.0,3.0,87,0.05,,---,0.06,VWS V14.00,2013-02-19 18:45:00,
2013-02-19 13:46:00,59.6,55.4,30.02,WSW,254,1.0,2.0,86,0.05,,---,0.06,VWS V14.00,2013-02-19 18:46:00,
2013-02-19 13:47:00,59.5,55.3,30.02,SW,236,1.0,7.0,86,0.05,,---,0.06,VWS V14.00,2013-02-19 18:47:00,
2013-02-19 13:48:00,59.4,55.2,30.02,SW,234,2.0,2.0,86,0.05,,---,0.06,VWS V14.00,2013-02-19 18:48:00,
2013-02-19 13:49:00,59.3,55.4,30.02,SW,233,0.0,3.0,87,0.05,,---,0.06,VWS V14.00,2013-02-19 18:49:00,
2013-02-19 13:50:00,59.0,55.5,30.02,SW,233,2.0,2.0,88,0.05,,---,0.06,VWS V14.00,2013-02-19 18:50:00,
2013-02-19 13:51:00,59.3,55.4,30.02,WSW,238,0.0,3.0,87,0.05,,---,0.06,VWS V14.00,2013-02-19 18:51:00,
2013-02-19 13:52:00,59.2,55.3,30.02,North,5,1.0,2.0,87,0.05,,---,0.06,VWS V14.00,2013-02-19 18:52:00,
2013-02-19 13:53:00,59.2,55.3,30.01,SW,217,1.0,3.0,87,0.05,,---,0.06,VWS V14.00,2013-02-19 18:53:00,
2013-02-19 13:55:00,58.9,55.4,30.01,SW,220,2.0,6.0,88,0.06,,---,0.07,VWS V14.00,2013-02-19 18:55:00,
2013-02-19 13:56:00,59.0,55.5,30.02,SW,232,1.0,2.0,88,0.06,,---,0.07,VWS V14.00,2013-02-19 18:56:00,
2013-02-19 13:57:00,59.0,55.5,30.02,SW,229,0.0,2.0,88,0.06,,---,0.07,VWS V14.00,2013-02-19 18:57:00,
2013-02-19 14:00:00,58.7,55.5,30.00,WSW,242,1.0,2.0,89,0.07,,---,0.08,VWS V14.00,2013-02-19 19:00:00,
2013-02-19 14:01:00,58.8,55.3,30.01,SW,220,1.0,6.0,88,0.06,,---,0.07,VWS V14.00,2013-02-19 19:01:00,
2013-02-19 14:02:00,58.8,55.6,30.01,SW,220,0.0,1.0,89,0.07,,---,0.08,VWS V14.00,2013-02-19 19:02:00,
2013-02-19 14:03:00,58.8,55.6,30.01,SW,220,0.0,0.0,89,0.07,,---,0.08,VWS V14.00,2013-02-19 19:03:00,
2013-02-19 14:04:00,58.7,55.5,30.01,SW,220,0.0,2.0,89,0.07,,---,0.08,VWS V14.00,2013-02-19 19:04:00,
2013-02-19 14:05:00,58.6,55.7,30.00,WNW,289,2.0,3.0,90,0.06,,---,0.08,VWS V14.00,2013-02-19 19:05:00,
2013-02-19 14:06:00,58.7,55.5,30.00,WSW,241,0.0,2.0,89,0.07,,---,0.08,VWS V14.00,2013-02-19 19:06:00,
2013-02-19 14:08:00,58.7,55.5,30.00,WSW,245,1.0,3.0,89,0.07,,---,0.08,VWS V14.00,2013-02-19 19:08:00,
2013-02-19 14:10:00,58.6,55.7,30.00,SW,234,0.0,3.0,90,0.07,,---,0.09,VWS V14.00,2013-02-19 19:10:00,
2013-02-19 14:12:00,58.6,55.7,30.00,SSW,207,0.0,1.0,90,0.06,,---,0.08,VWS V14.00,2013-02-19 19:12:00,
2013-02-19 14:13:00,58.6,55.7,30.00,SSW,207,0.0,1.0,90,0.06,,---,0.08,VWS V14.00,2013-02-19 19:13:00,
2013-02-19 14:14:00,58.6,55.7,30.00,SSW,207,0.0,1.0,90,0.06,,---,0.08,VWS V14.00,2013-02-19 19:14:00,
2013-02-19 14:15:00,58.6,56.0,30.00,WSW,238,0.0,0.0,91,0.07,,---,0.09,VWS V14.00,2013-02-19 19:15:00,
2013-02-19 14:16:00,58.6,55.7,30.00,SW,234,1.0,3.0,90,0.07,,---,0.09,VWS V14.00,2013-02-19 19:16:00,
2013-02-19 14:17:00,58.6,56.0,30.00,WSW,237,0.0,1.0,91,0.07,,---,0.09,VWS V14.00,2013-02-19 19:17:00,
2013-02-19 14:18:00,58.6,56.0,30.00,WSW,237,0.0,2.0,91,0.07,,---,0.09,VWS V14.00,2013-02-19 19:18:00,
2013-02-19 14:20:00,58.6,56.0,30.00,West,269,1.0,1.0,91,0.06,,---,0.09,VWS V14.00,2013-02-19 19:20:00,
2013-02-19 14:21:00,58.6,56.0,30.00,WSW,238,0.0,1.0,91,0.07,,---,0.09,VWS V14.00,2013-02-19 19:21:00,
2013-02-19 14:23:00,58.6,56.0,30.00,West,267,1.0,2.0,91,0.06,,---,0.09,VWS V14.00,2013-02-19 19:23:00,
2013-02-19 14:25:00,58.6,56.0,30.00,West,265,2.0,2.0,91,0.05,,---,0.09,VWS V14.00,2013-02-19 19:25:00,
2013-02-19 14:26:00,58.6,56.0,30.00,West,261,0.0,1.0,91,0.06,,---,0.09,VWS V14.00,2013-02-19 19:26:00,
2013-02-19 14:27:00,58.6,56.0,30.00,SSW,211,0.0,3.0,91,0.06,,---,0.09,VWS V14.00,2013-02-19 19:27:00,
2013-02-19 14:28:00,58.6,56.0,30.00,SW,218,2.0,2.0,91,0.06,,---,0.09,VWS V14.00,2013-02-19 19:28:00,
2013-02-19 14:29:00,58.6,56.0,30.00,ESE,121,4.0,4.0,91,0.05,,---,0.09,VWS V14.00,2013-02-19 19:29:00,
2013-02-19 14:30:00,58.6,56.3,29.99,NW,314,0.0,0.0,92,0.05,,---,0.09,VWS V14.00,2013-02-19 19:30:00,
2013-02-19 14:31:00,58.6,56.0,30.00,NW,314,0.0,4.0,91,0.05,,---,0.09,VWS V14.00,2013-02-19 19:31:00,
2013-02-19 14:32:00,58.6,56.0,30.00,NW,314,0.0,0.0,91,0.05,,---,0.09,VWS V14.00,2013-02-19 19:32:00,
2013-02-19 14:35:00,58.6,56.3,29.99,WNW,302,4.0,4.0,92,0.04,,---,0.09,VWS V14.00,2013-02-19 19:35:00,
2013-02-19 14:36:00,58.6,56.3,29.99,NW,314,1.0,1.0,92,0.05,,---,0.09,VWS V14.00,2013-02-19 19:36:00,
2013-02-19 14:37:00,58.5,56.2,29.99,NW,314,0.0,1.0,92,0.05,,---,0.09,VWS V14.00,2013-02-19 19:37:00,
2013-02-19 14:38:00,58.6,56.3,30.00,West,270,2.0,5.0,92,0.05,,---,0.09,VWS V14.00,2013-02-19 19:38:00,
2013-02-19 14:39:00,58.6,56.3,29.99,West,259,2.0,2.0,92,0.05,,---,0.09,VWS V14.00,2013-02-19 19:39:00,
2013-02-19 14:40:00,58.5,56.2,29.98,NW,322,1.0,2.0,92,0.03,,---,0.09,VWS V14.00,2013-02-19 19:40:00,
2013-02-19 14:41:00,58.6,56.3,29.99,West,271,8.0,8.0,92,0.04,,---,0.09,VWS V14.00,2013-02-19 19:41:00,
2013-02-19 14:42:00,58.6,56.3,29.99,West,260,0.0,8.0,92,0.04,,---,0.09,VWS V14.00,2013-02-19 19:42:00,
2013-02-19 14:43:00,58.5,56.2,29.99,WSW,244,1.0,2.0,92,0.04,,---,0.09,VWS V14.00,2013-02-19 19:43:00,
2013-02-19 14:44:00,58.5,56.2,29.99,NW,322,0.0,2.0,92,0.04,,---,0.09,VWS V14.00,2013-02-19 19:44:00,
2013-02-19 14:45:00,58.6,56.3,29.98,SSW,198,1.0,1.0,92,0.04,,---,0.10,VWS V14.00,2013-02-19 19:45:00,
2013-02-19 14:46:00,58.5,56.2,29.98,NW,322,0.0,2.0,92,0.03,,---,0.09,VWS V14.00,2013-02-19 19:46:00,
2013-02-19 14:48:00,58.6,56.3,29.98,SSW,205,1.0,2.0,92,0.03,,---,0.09,VWS V14.00,2013-02-19 19:48:00,
2013-02-19 14:49:00,58.5,56.2,29.98,SSW,197,0.0,3.0,92,0.04,,---,0.10,VWS V14.00,2013-02-19 19:49:00,
2013-02-19 14:50:00,58.7,56.7,29.98,SSW,202,0.0,0.0,93,0.04,,---,0.10,VWS V14.00,2013-02-19 19:50:00,
2013-02-19 14:51:00,58.6,56.3,29.98,SSW,198,0.0,2.0,92,0.04,,---,0.10,VWS V14.00,2013-02-19 19:51:00,
2013-02-19 14:53:00,58.6,56.3,29.98,SSW,198,0.0,2.0,92,0.04,,---,0.10,VWS V14.00,2013-02-19 19:53:00,
2013-02-19 14:55:00,58.7,56.7,29.98,SW,219,2.0,3.0,93,0.03,,---,0.10,VWS V14.00,2013-02-19 19:55:00,
2013-02-19 14:56:00,58.6,56.6,29.98,SSW,202,1.0,1.0,93,0.04,,---,0.10,VWS V14.00,2013-02-19 19:56:00,
2013-02-19 14:57:00,58.6,56.3,29.98,SW,214,0.0,6.0,92,0.03,,---,0.10,VWS V14.00,2013-02-19 19:57:00,
2013-02-19 14:59:00,58.7,56.4,29.98,SW,217,0.0,0.0,92,0.03,,---,0.10,VWS V14.00,2013-02-19 19:59:00,
2013-02-19 15:00:00,58.6,56.6,29.99,North,5,0.0,1.0,93,0.02,,---,0.10,VWS V14.00,2013-02-19 20:00:00,
2013-02-19 15:01:00,58.7,56.7,29.98,SW,216,0.0,3.0,93,0.03,,---,0.10,VWS V14.00,2013-02-19 20:01:00,
2013-02-19 15:03:00,58.6,56.3,29.98,SSW,204,2.0,2.0,92,0.02,,---,0.10,VWS V14.00,2013-02-19 20:03:00,
2013-02-19 15:04:00,58.7,56.4,29.98,SSW,199,1.0,4.0,92,0.02,,---,0.10,VWS V14.00,2013-02-19 20:04:00,
2013-02-19 15:05:00,58.6,56.6,29.99,WNW,288,0.0,0.0,93,0.04,,---,0.12,VWS V14.00,2013-02-19 20:05:00,
2013-02-19 15:06:00,58.6,56.6,29.99,NNW,348,1.0,1.0,93,0.02,,---,0.10,VWS V14.00,2013-02-19 20:06:00,
2013-02-19 15:08:00,58.6,56.6,29.99,WNW,290,1.0,3.0,93,0.03,,---,0.11,VWS V14.00,2013-02-19 20:08:00,
2013-02-19 15:09:00,58.6,56.6,29.99,WNW,290,1.0,1.0,93,0.03,,---,0.11,VWS V14.00,2013-02-19 20:09:00,
2013-02-19 15:10:00,58.5,56.5,29.99,West,266,0.0,0.0,93,0.05,,---,0.14,VWS V14.00,2013-02-19 20:10:00,
2013-02-19 15:11:00,58.6,56.6,29.99,WNW,288,0.0,0.0,93,0.05,,---,0.13,VWS V14.00,2013-02-19 20:11:00,
2013-02-19 15:12:00,58.6,56.6,29.99,West,264,0.0,3.0,93,0.05,,---,0.13,VWS V14.00,2013-02-19 20:12:00,
2013-02-19 15:13:00,58.6,56.6,29.99,WNW,298,4.0,4.0,93,0.06,,---,0.14,VWS V14.00,2013-02-19 20:13:00,
2013-02-19 15:14:00,58.5,56.5,29.99,West,266,0.0,4.0,93,0.06,,---,0.14,VWS V14.00,2013-02-19 20:14:00,
2013-02-19 15:15:00,58.5,56.5,29.98,NE,44,0.0,0.0,93,0.06,,---,0.15,VWS V14.00,2013-02-19 20:15:00,
2013-02-19 15:16:00,58.5,56.5,29.99,WSW,258,3.0,6.0,93,0.05,,---,0.14,VWS V14.00,2013-02-19 20:16:00,
2013-02-19 15:18:00,58.5,56.5,29.98,WNW,283,0.0,5.0,93,0.05,,---,0.14,VWS V14.00,2013-02-19 20:18:00,
2013-02-19 15:19:00,58.5,56.5,29.98,NE,44,1.0,2.0,93,0.05,,---,0.14,VWS V14.00,2013-02-19 20:19:00,
2013-02-19 15:20:00,58.4,56.4,29.99,West,275,0.0,1.0,93,0.07,,---,0.16,VWS V14.00,2013-02-19 20:20:00,
2013-02-19 15:21:00,58.5,56.5,29.98,WSW,240,2.0,5.0,93,0.06,,---,0.15,VWS V14.00,2013-02-19 20:21:00,
2013-02-19 15:22:00,58.5,56.5,29.98,WNW,294,0.0,4.0,93,0.06,,---,0.15,VWS V14.00,2013-02-19 20:22:00,
2013-02-19 15:24:00,58.5,56.5,29.99,WNW,294,0.0,2.0,93,0.07,,---,0.16,VWS V14.00,2013-02-19 20:24:00,
2013-02-19 15:25:00,58.4,56.4,29.99,SW,232,0.0,1.0,93,0.07,,---,0.16,VWS V14.00,2013-02-19 20:25:00,
2013-02-19 15:27:00,58.4,56.4,29.98,West,274,0.0,0.0,93,0.07,,---,0.16,VWS V14.00,2013-02-19 20:27:00,
2013-02-19 15:28:00,58.4,56.4,29.98,West,274,0.0,1.0,93,0.07,,---,0.16,VWS V14.00,2013-02-19 20:28:00,
2013-02-19 15:29:00,58.4,56.4,29.99,WSW,252,0.0,2.0,93,0.07,,---,0.16,VWS V14.00,2013-02-19 20:29:00,
2013-02-19 15:30:00,58.3,56.3,29.98,NW,311,0.0,0.0,93,0.09,,---,0.18,VWS V14.00,2013-02-19 20:30:00,
2013-02-19 15:31:00,58.4,56.4,29.99,SW,234,0.0,2.0,93,0.08,,---,0.17,VWS V14.00,2013-02-19 20:31:00,
2013-02-19 15:32:00,58.4,56.4,29.98,NW,313,1.0,2.0,93,0.08,,---,0.17,VWS V14.00,2013-02-19 20:32:00,
2013-02-19 15:33:00,58.3,56.3,29.98,NW,311,0.0,2.0,93,0.09,,---,0.18,VWS V14.00,2013-02-19 20:33:00,
2013-02-19 15:34:00,58.3,56.3,29.98,NW,311,1.0,1.0,93,0.09,,---,0.18,VWS V14.00,2013-02-19 20:34:00,
2013-02-19 15:35:00,58.2,56.2,29.98,West,281,0.0,0.0,93,0.09,,---,0.18,VWS V14.00,2013-02-19 20:35:00,
2013-02-19 15:37:00,58.3,56.3,29.98,NW,311,0.0,1.0,93,0.09,,---,0.18,VWS V14.00,2013-02-19 20:37:00,
2013-02-19 15:39:00,58.3,56.3,29.98,WNW,285,0.0,2.0,93,0.09,,---,0.18,VWS V14.00,2013-02-19 20:39:00,
2013-02-19 15:40:00,58.2,56.5,29.98,NNW,331,0.0,0.0,94,0.10,,---,0.19,VWS V14.00,2013-02-19 20:40:00,
2013-02-19 15:42:00,58.2,56.2,29.98,SW,234,0.0,1.0,93,0.10,,---,0.19,VWS V14.00,2013-02-19 20:42:00,
2013-02-19 15:43:00,58.2,56.2,29.98,NNW,331,0.0,4.0,93,0.10,,---,0.19,VWS V14.00,2013-02-19 20:43:00,
2013-02-19 15:45:00,58.1,56.4,29.98,NNE,25,0.0,1.0,94,0.10,,---,0.20,VWS V14.00,2013-02-19 20:45:00,
2013-02-19 15:47:00,58.1,56.4,29.98,NE,36,0.0,3.0,94,0.11,,---,0.20,VWS V14.00,2013-02-19 20:47:00,
2013-02-19 15:49:00,58.1,56.4,29.98,NNE,25,1.0,1.0,94,0.11,,---,0.20,VWS V14.00,2013-02-19 20:49:00,
2013-02-19 15:50:00,58.1,56.4,29.98,WNW,297,0.0,1.0,94,0.10,,---,0.20,VWS V14.00,2013-02-19 20:50:00,
2013-02-19 15:51:00,58.1,56.4,29.98,NNE,25,1.0,1.0,94,0.10,,---,0.20,VWS V14.00,2013-02-19 20:51:00,
2013-02-19 15:52:00,58.1,56.4,29.98,NNE,25,0.0,1.0,94,0.10,,---,0.20,VWS V14.00,2013-02-19 20:52:00,
2013-02-19 15:53:00,58.1,56.4,29.98,NNE,25,0.0,1.0,94,0.10,,---,0.20,VWS V14.00,2013-02-19 20:53:00,
2013-02-19 15:55:00,58.0,56.3,29.98,WNW,297,0.0,1.0,94,0.10,,---,0.20,VWS V14.00,2013-02-19 20:55:00,
2013-02-19 15:59:00,58.0,56.3,29.98,WNW,297,0.0,1.0,94,0.10,,---,0.20,VWS V14.00,2013-02-19 20:59:00,
2013-02-19 16:00:00,58.0,56.3,29.97,SSW,196,0.0,0.0,94,0.10,,---,0.20,VWS V14.00,2013-02-19 21:00:00,
2013-02-19 16:02:00,58.0,56.3,29.97,WNW,297,0.0,0.0,94,0.10,,---,0.20,VWS V14.00,2013-02-19 21:02:00,
2013-02-19 16:03:00,58.0,56.3,29.98,WNW,297,0.0,1.0,94,0.10,,---,0.20,VWS V14.00,2013-02-19 21:03:00,
2013-02-19 16:05:00,58.0,56.3,29.97,SSW,196,0.0,0.0,94,0.08,,---,0.20,VWS V14.00,2013-02-19 21:05:00,
2013-02-19 16:06:00,58.0,56.3,29.97,SSW,196,0.0,0.0,94,0.10,,---,0.20,VWS V14.00,2013-02-19 21:06:00,
2013-02-19 16:08:00,58.0,56.3,29.97,SSW,196,0.0,1.0,94,0.09,,---,0.20,VWS V14.00,2013-02-19 21:08:00,
2013-02-19 16:09:00,58.0,56.3,29.97,SSW,196,0.0,0.0,94,0.09,,---,0.20,VWS V14.00,2013-02-19 21:09:00,
2013-02-19 16:10:00,58.0,56.3,29.97,NW,310,0.0,1.0,94,0.06,,---,0.20,VWS V14.00,2013-02-19 21:10:00,
2013-02-19 16:11:00,58.0,56.3,29.97,SSW,196,0.0,0.0,94,0.08,,---,0.20,VWS V14.00,2013-02-19 21:11:00,
2013-02-19 16:12:00,58.0,56.3,29.97,SSW,196,0.0,0.0,94,0.07,,---,0.20,VWS V14.00,2013-02-19 21:12:00,
2013-02-19 16:14:00,58.0,56.3,29.97,WNW,295,0.0,5.0,94,0.06,,---,0.20,VWS V14.00,2013-02-19 21:14:00,
2013-02-19 16:15:00,58.0,56.3,29.98,NW,310,0.0,1.0,94,0.05,,---,0.20,VWS V14.00,2013-02-19 21:15:00,
2013-02-19 16:16:00,58.0,56.3,29.97,NW,310,1.0,1.0,94,0.06,,---,0.20,VWS V14.00,2013-02-19 21:16:00,
2013-02-19 16:17:00,57.9,56.2,29.97,NW,310,0.0,1.0,94,0.06,,---,0.20,VWS V14.00,2013-02-19 21:17:00,
2013-02-19 16:20:00,58.0,56.3,29.98,NW,310,0.0,0.0,94,0.04,,---,0.20,VWS V14.00,2013-02-19 21:20:00,
2013-02-19 16:22:00,58.0,56.3,29.98,NW,310,0.0,1.0,94,0.05,,---,0.20,VWS V14.00,2013-02-19 21:22:00,
2013-02-19 16:24:00,58.0,56.3,29.98,NW,310,0.0,2.0,94,0.04,,---,0.20,VWS V14.00,2013-02-19 21:24:00,
2013-02-19 16:25:00,57.9,56.2,29.98,NW,304,0.0,0.0,94,0.04,,---,0.20,VWS V14.00,2013-02-19 21:25:00,
2013-02-19 16:26:00,58.0,56.3,29.98,NW,310,0.0,0.0,94,0.04,,---,0.20,VWS V14.00,2013-02-19 21:26:00,
2013-02-19 16:27:00,58.0,56.3,29.97,NW,310,0.0,1.0,94,0.04,,---,0.20,VWS V14.00,2013-02-19 21:27:00,
2013-02-19 16:28:00,57.9,56.2,29.97,NW,305,4.0,4.0,94,0.04,,---,0.20,VWS V14.00,2013-02-19 21:28:00,
2013-02-19 16:29:00,57.9,56.2,29.98,NW,304,0.0,4.0,94,0.04,,---,0.20,VWS V14.00,2013-02-19 21:29:00,
2013-02-19 16:30:00,57.9,56.2,29.98,NW,304,0.0,0.0,94,0.02,,---,0.20,VWS V14.00,2013-02-19 21:30:00,
2013-02-19 16:31:00,57.9,56.2,29.98,NW,304,0.0,0.0,94,0.04,,---,0.20,VWS V14.00,2013-02-19 21:31:00,
2013-02-19 16:32:00,57.9,56.2,29.98,NW,305,1.0,4.0,94,0.03,,---,0.20,VWS V14.00,2013-02-19 21:32:00,
2013-02-19 16:33:00,57.9,56.2,29.98,NW,304,1.0,2.0,94,0.03,,---,0.20,VWS V14.00,2013-02-19 21:33:00,
2013-02-19 16:34:00,57.9,56.2,29.98,NW,304,0.0,1.0,94,0.02,,---,0.20,VWS V14.00,2013-02-19 21:34:00,
2013-02-19 16:35:00,57.9,56.5,29.98,NW,305,0.0,1.0,95,0.03,,---,0.21,VWS V14.00,2013-02-19 21:35:00,
2013-02-19 16:36:00,57.9,56.2,29.98,NW,304,0.0,0.0,94,0.03,,---,0.21,VWS V14.00,2013-02-19 21:36:00,
2013-02-19 16:37:00,57.9,56.2,29.98,NW,304,1.0,1.0,94,0.03,,---,0.21,VWS V14.00,2013-02-19 21:37:00,
2013-02-19 16:39:00,57.9,56.5,29.98,NW,304,0.0,1.0,95,0.03,,---,0.21,VWS V14.00,2013-02-19 21:39:00,
2013-02-19 16:40:00,57.9,56.5,29.98,WNW,286,2.0,2.0,95,0.02,,---,0.21,VWS V14.00,2013-02-19 21:40:00,
2013-02-19 16:41:00,57.9,56.5,29.98,NW,305,0.0,1.0,95,0.03,,---,0.21,VWS V14.00,2013-02-19 21:41:00,
2013-02-19 16:42:00,57.9,56.5,29.98,NW,309,0.0,2.0,95,0.02,,---,0.21,VWS V14.00,2013-02-19 21:42:00,
2013-02-19 16:43:00,57.9,56.5,29.98,NW,309,1.0,1.0,95,0.02,,---,0.21,VWS V14.00,2013-02-19 21:43:00,
2013-02-19 16:44:00,57.9,56.5,29.98,NW,306,0.0,2.0,95,0.02,,---,0.21,VWS V14.00,2013-02-19 21:44:00,
2013-02-19 16:45:00,57.9,56.5,29.98,WNW,286,0.0,1.0,95,0.01,,---,0.21,VWS V14.00,2013-02-19 21:45:00,
2013-02-19 16:46:00,57.9,56.5,29.98,WNW,286,0.0,2.0,95,0.02,,---,0.21,VWS V14.00,2013-02-19 21:46:00,
2013-02-19 16:47:00,57.9,56.5,29.98,WNW,286,2.0,2.0,95,0.02,,---,0.21,VWS V14.00,2013-02-19 21:47:00,
2013-02-19 16:48:00,57.9,56.5,29.98,WNW,286,1.0,2.0,95,0.01,,---,0.21,VWS V14.00,2013-02-19 21:48:00,
2013-02-19 16:49:00,57.9,56.5,29.98,WNW,286,0.0,2.0,95,0.01,,---,0.21,VWS V14.00,2013-02-19 21:49:00,
2013-02-19 16:50:00,57.9,56.5,29.98,WNW,301,1.0,4.0,95,0.01,,---,0.21,VWS V14.00,2013-02-19 21:50:00,
2013-02-19 16:51:00,57.9,56.5,29.98,WNW,286,0.0,2.0,95,0.01,,---,0.21,VWS V14.00,2013-02-19 21:51:00,
2013-02-19 16:52:00,57.9,56.5,29.97,WNW,290,0.0,4.0,95,0.01,,---,0.21,VWS V14.00,2013-02-19 21:52:00,
2013-02-19 16:53:00,57.9,56.5,29.98,WNW,294,2.0,4.0,95,0.01,,---,0.21,VWS V14.00,2013-02-19 21:53:00,
2013-02-19 16:54:00,57.9,56.5,29.98,WNW,294,1.0,2.0,95,0.01,,---,0.21,VWS V14.00,2013-02-19 21:54:00,
2013-02-19 16:55:00,57.8,56.4,29.98,NW,306,0.0,0.0,95,0.01,,---,0.21,VWS V14.00,2013-02-19 21:55:00,
2013-02-19 16:56:00,57.9,56.5,29.98,NW,306,5.0,5.0,95,0.01,,---,0.21,VWS V14.00,2013-02-19 21:56:00,
2013-02-19 16:57:00,57.8,56.4,29.98,West,269,2.0,7.0,95,0.01,,---,0.21,VWS V14.00,2013-02-19 21:57:00,
2013-02-19 16:58:00,57.8,56.4,29.97,NW,306,2.0,6.0,95,0.01,,---,0.21,VWS V14.00,2013-02-19 21:58:00,
2013-02-19 16:59:00,57.8,56.4,29.97,NW,306,1.0,2.0,95,0.01,,---,0.21,VWS V14.00,2013-02-19 21:59:00,
2013-02-19 17:00:00,57.7,56.3,29.98,WNW,302,0.0,1.0,95,0.01,,---,0.21,VWS V14.00,2013-02-19 22:00:00,
2013-02-19 17:01:00,57.8,56.4,29.98,WNW,302,0.0,4.0,95,0.01,,---,0.21,VWS V14.00,2013-02-19 22:01:00,
2013-02-19 17:02:00,57.8,56.4,29.98,WNW,300,0.0,1.0,95,0.01,,---,0.21,VWS V14.00,2013-02-19 22:02:00,
2013-02-19 17:03:00,57.8,56.4,29.98,WNW,282,0.0,8.0,95,0.01,,---,0.21,VWS V14.00,2013-02-19 22:03:00,
2013-02-19 17:04:00,57.8,56.4,29.98,WNW,302,1.0,6.0,95,0.01,,---,0.21,VWS V14.00,2013-02-19 22:04:00,
2013-02-19 17:05:00,57.7,56.3,29.98,NNW,330,1.0,2.0,95,0.01,,---,0.21,VWS V14.00,2013-02-19 22:05:00,
2013-02-19 17:06:00,57.7,56.3,29.98,WNW,302,0.0,1.0,95,0.01,,---,0.21,VWS V14.00,2013-02-19 22:06:00,
2013-02-19 17:07:00,57.7,56.3,29.98,WNW,302,0.0,0.0,95,0.01,,---,0.21,VWS V14.00,2013-02-19 22:07:00,
2013-02-19 17:08:00,57.7,56.3,29.98,WNW,302,0.0,0.0,95,0.01,,---,0.21,VWS V14.00,2013-02-19 22:08:00,
2013-02-19 17:09:00,57.7,56.3,29.98,WNW,302,1.0,1.0,95,0.01,,---,0.21,VWS V14.00,2013-02-19 22:09:00,
2013-02-19 17:10:00,57.6,56.2,29.98,NW,309,0.0,1.0,95,0.01,,---,0.21,VWS V14.00,2013-02-19 22:10:00,
2013-02-19 17:11:00,57.7,56.3,29.98,NNW,330,0.0,2.0,95,0.01,,---,0.21,VWS V14.00,2013-02-19 22:11:00,
2013-02-19 17:12:00,57.7,56.3,29.98,NNW,329,1.0,1.0,95,0.01,,---,0.21,VWS V14.00,2013-02-19 22:12:00,
2013-02-19 17:13:00,57.6,56.2,29.98,NNW,329,0.0,4.0,95,0.01,,---,0.21,VWS V14.00,2013-02-19 22:13:00,
2013-02-19 17:15:00,57.5,56.1,29.98,NW,309,0.0,0.0,95,0.01,,---,0.21,VWS V14.00,2013-02-19 22:15:00,
2013-02-19 17:16:00,57.6,56.2,29.98,NW,309,0.0,1.0,95,0.01,,---,0.21,VWS V14.00,2013-02-19 22:16:00,
2013-02-19 17:17:00,57.6,56.2,29.98,NW,309,1.0,2.0,95,0.01,,---,0.21,VWS V14.00,2013-02-19 22:17:00,
2013-02-19 17:18:00,57.6,56.2,29.98,NW,309,0.0,1.0,95,0.01,,---,0.21,VWS V14.00,2013-02-19 22:18:00,
2013-02-19 17:19:00,57.6,56.2,29.98,NW,309,0.0,1.0,95,0.01,,---,0.21,VWS V14.00,2013-02-19 22:19:00,
2013-02-19 17:20:00,57.5,56.1,29.98,West,273,0.0,1.0,95,0.01,,---,0.21,VWS V14.00,2013-02-19 22:20:00,
2013-02-19 17:21:00,57.5,56.1,29.98,NW,309,1.0,1.0,95,0.01,,---,0.21,VWS V14.00,2013-02-19 22:21:00,
2013-02-19 17:22:00,57.5,56.1,29.98,NW,309,0.0,2.0,95,0.01,,---,0.21,VWS V14.00,2013-02-19 22:22:00,
2013-02-19 17:23:00,57.5,56.1,29.98,NW,309,0.0,1.0,95,0.01,,---,0.21,VWS V14.00,2013-02-19 22:23:00,
2013-02-19 17:24:00,57.5,56.1,29.98,NW,309,0.0,1.0,95,0.01,,---,0.21,VWS V14.00,2013-02-19 22:24:00,
2013-02-19 17:25:00,57.5,56.1,29.98,WNW,298,2.0,2.0,95,0.01,,---,0.21,VWS V14.00,2013-02-19 22:25:00,
2013-02-19 17:26:00,57.5,56.1,29.98,West,274,2.0,4.0,95,0.01,,---,0.21,VWS V14.00,2013-02-19 22:26:00,
2013-02-19 17:27:00,57.5,56.1,29.98,West,271,0.0,4.0,95,0.01,,---,0.21,VWS V14.00,2013-02-19 22:27:00,
2013-02-19 17:28:00,57.5,56.1,29.98,West,269,3.0,3.0,95,0.01,,---,0.21,VWS V14.00,2013-02-19 22:28:00,
2013-02-19 17:29:00,57.5,56.1,29.99,NW,311,7.0,7.0,95,0.01,,---,0.21,VWS V14.00,2013-02-19 22:29:00,
2013-02-19 17:30:00,57.4,56.0,29.99,WNW,291,1.0,1.0,95,0.01,,---,0.21,VWS V14.00,2013-02-19 22:30:00,
2013-02-19 17:31:00,57.5,56.1,29.98,NNW,327,4.0,5.0,95,0.01,,---,0.21,VWS V14.00,2013-02-19 22:31:00,
2013-02-19 17:32:00,57.5,56.1,29.99,NW,304,2.0,6.0,95,0.01,,---,0.21,VWS V14.00,2013-02-19 22:32:00,
2013-02-19 17:33:00,57.4,56.0,29.99,WNW,289,0.0,5.0,95,0.01,,---,0.21,VWS V14.00,2013-02-19 22:33:00,
2013-02-19 17:34:00,57.5,56.1,29.99,WNW,290,0.0,1.0,95,0.01,,---,0.21,VWS V14.00,2013-02-19 22:34:00,
2013-02-19 17:35:00,57.4,56.0,29.99,WNW,292,0.0,0.0,95,0.00,,---,0.21,VWS V14.00,2013-02-19 22:35:00,
2013-02-19 17:36:00,57.4,56.0,29.99,WNW,291,0.0,1.0,95,0.01,,---,0.21,VWS V14.00,2013-02-19 22:36:00,
2013-02-19 17:37:00,57.4,56.0,29.99,WNW,291,2.0,2.0,95,0.00,,---,0.21,VWS V14.00,2013-02-19 22:37:00,
2013-02-19 17:38:00,57.4,56.0,29.99,WNW,292,0.0,4.0,95,0.00,,---,0.21,VWS V14.00,2013-02-19 22:38:00,
2013-02-19 17:39:00,57.4,56.0,29.99,WNW,292,0.0,2.0,95,0.00,,---,0.21,VWS V14.00,2013-02-19 22:39:00,
2013-02-19 17:40:00,57.3,55.9,29.99,WNW,292,1.0,1.0,95,0.00,,---,0.21,VWS V14.00,2013-02-19 22:40:00,
2013-02-19 17:41:00,57.4,56.0,29.99,West,271,4.0,4.0,95,0.00,,---,0.21,VWS V14.00,2013-02-19 22:41:00,
2013-02-19 17:42:00,57.4,56.0,29.99,West,275,0.0,4.0,95,0.00,,---,0.21,VWS V14.00,2013-02-19 22:42:00,
2013-02-19 17:43:00,57.4,56.0,29.99,WNW,287,4.0,4.0,95,0.00,,---,0.21,VWS V14.00,2013-02-19 22:43:00,
2013-02-19 17:44:00,57.4,56.0,29.99,WNW,292,2.0,6.0,95,0.00,,---,0.21,VWS V14.00,2013-02-19 22:44:00,
2013-02-19 17:45:00,57.3,55.9,29.99,NW,306,0.0,0.0,95,0.01,,---,0.22,VWS V14.00,2013-02-19 22:45:00,
2013-02-19 17:46:00,57.4,56.0,29.99,WNW,302,0.0,7.0,95,0.00,,---,0.21,VWS V14.00,2013-02-19 22:46:00,
2013-02-19 17:47:00,57.3,55.9,29.99,NW,306,1.0,4.0,95,0.00,,---,0.21,VWS V14.00,2013-02-19 22:47:00,
2013-02-19 17:48:00,57.3,55.9,29.99,NW,306,4.0,4.0,95,0.00,,---,0.21,VWS V14.00,2013-02-19 22:48:00,
2013-02-19 17:49:00,57.3,55.9,29.99,NW,306,0.0,4.0,95,0.00,,---,0.21,VWS V14.00,2013-02-19 22:49:00,
2013-02-19 17:50:00,57.3,56.2,29.98,NW,306,0.0,0.0,96,0.01,,---,0.22,VWS V14.00,2013-02-19 22:50:00,
2013-02-19 17:51:00,57.3,55.9,29.99,NW,306,0.0,2.0,95,0.01,,---,0.22,VWS V14.00,2013-02-19 22:51:00,
2013-02-19 17:52:00,57.3,55.9,29.99,NW,306,0.0,4.0,95,0.01,,---,0.22,VWS V14.00,2013-02-19 22:52:00,
2013-02-19 17:53:00,57.3,56.2,29.98,NW,306,0.0,0.0,96,0.01,,---,0.22,VWS V14.00,2013-02-19 22:53:00,
2013-02-19 17:54:00,57.3,56.2,29.98,NW,306,0.0,0.0,96,0.01,,---,0.22,VWS V14.00,2013-02-19 22:54:00,
2013-02-19 17:55:00,57.2,56.1,29.98,WNW,283,1.0,2.0,96,0.01,,---,0.22,VWS V14.00,2013-02-19 22:55:00,
2013-02-19 17:56:00,57.3,56.2,29.98,NW,306,0.0,0.0,96,0.01,,---,0.22,VWS V14.00,2013-02-19 22:56:00,
2013-02-19 17:57:00,57.3,56.2,29.98,SSW,196,1.0,4.0,96,0.01,,---,0.22,VWS V14.00,2013-02-19 22:57:00,
2013-02-19 17:58:00,57.2,56.1,29.99,SW,223,0.0,6.0,96,0.01,,---,0.22,VWS V14.00,2013-02-19 22:58:00,
2013-02-19 17:59:00,57.3,56.2,29.98,WNW,282,2.0,2.0,96,0.01,,---,0.22,VWS V14.00,2013-02-19 22:59:00,
2013-02-19 18:00:00,57.2,56.1,29.99,WNW,296,6.0,7.0,96,0.01,,---,0.22,VWS V14.00,2013-02-19 23:00:00,
2013-02-19 18:01:00,57.2,56.1,29.98,WNW,283,0.0,2.0,96,0.01,,---,0.22,VWS V14.00,2013-02-19 23:01:00,
2013-02-19 18:03:00,57.2,56.1,29.98,NW,318,0.0,1.0,96,0.01,,---,0.22,VWS V14.00,2013-02-19 23:03:00,
2013-02-19 18:04:00,57.2,56.1,29.99,NW,318,0.0,4.0,96,0.01,,---,0.22,VWS V14.00,2013-02-19 23:04:00,
2013-02-19 18:05:00,57.1,56.0,29.99,West,280,0.0,1.0,96,0.01,,---,0.22,VWS V14.00,2013-02-19 23:05:00,
2013-02-19 18:06:00,57.2,56.1,29.99,WNW,289,0.0,7.0,96,0.01,,---,0.22,VWS V14.00,2013-02-19 23:06:00,
2013-02-19 18:07:00,57.2,56.1,29.99,WNW,289,2.0,2.0,96,0.01,,---,0.22,VWS V14.00,2013-02-19 23:07:00,
2013-02-19 18:08:00,57.2,56.1,29.99,WNW,293,0.0,2.0,96,0.01,,---,0.22,VWS V14.00,2013-02-19 23:08:00,
2013-02-19 18:09:00,57.1,56.0,29.99,WNW,293,0.0,0.0,96,0.01,,---,0.22,VWS V14.00,2013-02-19 23:09:00,
2013-02-19 18:10:00,57.1,55.7,29.99,WNW,292,0.0,0.0,95,0.01,,---,0.22,VWS V14.00,2013-02-19 23:10:00,
2013-02-19 18:11:00,57.1,56.0,29.99,West,280,0.0,1.0,96,0.01,,---,0.22,VWS V14.00,2013-02-19 23:11:00,
2013-02-19 18:12:00,57.1,56.0,29.99,WNW,290,0.0,4.0,96,0.01,,---,0.22,VWS V14.00,2013-02-19 23:12:00,
2013-02-19 18:13:00,57.1,56.0,29.99,WNW,290,0.0,1.0,96,0.01,,---,0.22,VWS V14.00,2013-02-19 23:13:00,
2013-02-19 18:14:00,57.1,55.7,29.99,WNW,292,4.0,4.0,95,0.01,,---,0.22,VWS V14.00,2013-02-19 23:14:00,
2013-02-19 18:15:00,57.1,56.0,29.99,NNW,333,0.0,1.0,96,0.01,,---,0.22,VWS V14.00,2013-02-19 23:15:00,
2013-02-19 18:16:00,57.1,56.0,29.99,WNW,290,0.0,1.0,96,0.01,,---,0.22,VWS V14.00,2013-02-19 23:16:00,
2013-02-19 18:17:00,57.1,56.0,29.99,WNW,290,0.0,0.0,96,0.01,,---,0.22,VWS V14.00,2013-02-19 23:17:00,
2013-02-19 18:18:00,57.1,56.0,29.99,West,277,4.0,6.0,96,0.01,,---,0.22,VWS V14.00,2013-02-19 23:18:00,
2013-02-19 18:19:00,57.1,56.0,29.99,NNW,333,1.0,6.0,96,0.01,,---,0.22,VWS V14.00,2013-02-19 23:19:00,
2013-02-19 18:20:00,57.1,56.0,29.99,West,261,0.0,1.0,96,0.01,,---,0.22,VWS V14.00,2013-02-19 23:20:00,
2013-02-19 18:21:00,57.1,56.0,29.99,NNW,333,0.0,1.0,96,0.01,,---,0.22,VWS V14.00,2013-02-19 23:21:00,
2013-02-19 18:22:00,57.1,56.0,29.99,NNW,333,0.0,0.0,96,0.01,,---,0.22,VWS V14.00,2013-02-19 23:22:00,
2013-02-19 18:23:00,57.1,56.0,29.99,NW,311,1.0,2.0,96,0.01,,---,0.22,VWS V14.00,2013-02-19 23:23:00,
2013-02-19 18:24:00,57.1,56.0,29.99,NW,306,4.0,7.0,96,0.01,,---,0.22,VWS V14.00,2013-02-19 23:24:00,
2013-02-19 18:25:00,57.1,56.0,29.99,WNW,303,2.0,5.0,96,0.01,,---,0.22,VWS V14.00,2013-02-19 23:25:00,
2013-02-19 18:26:00,57.1,56.0,29.99,West,276,0.0,2.0,96,0.01,,---,0.22,VWS V14.00,2013-02-19 23:26:00,
2013-02-19 18:27:00,57.1,56.0,29.99,West,276,0.0,0.0,96,0.01,,---,0.22,VWS V14.00,2013-02-19 23:27:00,
2013-02-19 18:28:00,57.1,56.0,29.99,SW,234,2.0,2.0,96,0.01,,---,0.22,VWS V14.00,2013-02-19 23:28:00,
2013-02-19 18:29:00,57.1,56.0,29.99,SW,234,0.0,2.0,96,0.01,,---,0.22,VWS V14.00,2013-02-19 23:29:00,
2013-02-19 18:30:00,57.1,56.0,30.00,North,9,1.0,1.0,96,0.01,,---,0.22,VWS V14.00,2013-02-19 23:30:00,
2013-02-19 18:31:00,57.1,56.0,29.99,SW,229,1.0,5.0,96,0.01,,---,0.22,VWS V14.00,2013-02-19 23:31:00,
2013-02-19 18:32:00,57.1,56.0,29.99,WSW,241,0.0,1.0,96,0.01,,---,0.22,VWS V14.00,2013-02-19 23:32:00,
2013-02-19 18:33:00,57.1,56.0,30.00,WSW,241,0.0,1.0,96,0.01,,---,0.22,VWS V14.00,2013-02-19 23:33:00,
2013-02-19 18:34:00,57.1,56.0,30.00,NE,40,2.0,2.0,96,0.01,,---,0.22,VWS V14.00,2013-02-19 23:34:00,
2013-02-19 18:35:00,57.1,56.0,29.99,SSW,211,0.0,0.0,96,0.01,,---,0.22,VWS V14.00,2013-02-19 23:35:00,
2013-02-19 18:36:00,57.1,56.0,30.00,North,9,0.0,1.0,96,0.01,,---,0.22,VWS V14.00,2013-02-19 23:36:00,
2013-02-19 18:37:00,57.1,56.0,30.00,North,9,1.0,2.0,96,0.01,,---,0.22,VWS V14.00,2013-02-19 23:37:00,
2013-02-19 18:38:00,57.1,56.0,29.99,North,5,1.0,2.0,96,0.01,,---,0.22,VWS V14.00,2013-02-19 23:38:00,
2013-02-19 18:39:00,57.1,56.0,29.99,West,273,0.0,7.0,96,0.01,,---,0.22,VWS V14.00,2013-02-19 23:39:00,
2013-02-19 18:40:00,57.0,55.9,30.00,West,279,0.0,1.0,96,0.01,,---,0.22,VWS V14.00,2013-02-19 23:40:00,
2013-02-19 18:41:00,57.0,55.9,29.99,SSW,212,0.0,2.0,96,0.01,,---,0.22,VWS V14.00,2013-02-19 23:41:00,
2013-02-19 18:42:00,57.0,55.9,30.00,SSW,213,1.0,1.0,96,0.01,,---,0.22,VWS V14.00,2013-02-19 23:42:00,
2013-02-19 18:43:00,57.0,55.9,29.99,SSW,213,0.0,2.0,96,0.01,,---,0.22,VWS V14.00,2013-02-19 23:43:00,
2013-02-19 18:44:00,57.1,56.0,29.99,SSW,213,0.0,1.0,96,0.01,,---,0.22,VWS V14.00,2013-02-19 23:44:00,
2013-02-19 18:45:00,57.0,55.9,30.00,NW,304,2.0,2.0,96,0.00,,---,0.22,VWS V14.00,2013-02-19 23:45:00,
2013-02-19 18:46:00,57.0,55.9,30.00,WNW,294,4.0,4.0,96,0.01,,---,0.22,VWS V14.00,2013-02-19 23:46:00,
2013-02-19 18:47:00,57.0,55.9,30.00,NW,304,2.0,4.0,96,0.01,,---,0.22,VWS V14.00,2013-02-19 23:47:00,
2013-02-19 18:48:00,57.0,55.9,30.00,NW,304,0.0,4.0,96,0.01,,---,0.22,VWS V14.00,2013-02-19 23:48:00,
2013-02-19 18:49:00,57.1,56.0,30.00,NW,304,0.0,2.0,96,0.01,,---,0.22,VWS V14.00,2013-02-19 23:49:00,
2013-02-19 18:50:00,57.0,55.9,30.00,NW,309,0.0,0.0,96,0.00,,---,0.22,VWS V14.00,2013-02-19 23:50:00,
2013-02-19 18:51:00,57.0,55.9,30.00,NW,304,0.0,2.0,96,0.00,,---,0.22,VWS V14.00,2013-02-19 23:51:00,
2013-02-19 18:52:00,57.0,55.9,30.00,NW,311,0.0,4.0,96,0.00,,---,0.22,VWS V14.00,2013-02-19 23:52:00,
2013-02-19 18:53:00,57.0,55.9,30.00,NW,311,0.0,1.0,96,0.00,,---,0.22,VWS V14.00,2013-02-19 23:53:00,
2013-02-19 18:54:00,57.0,55.9,30.00,NW,310,0.0,1.0,96,0.00,,---,0.22,VWS V14.00,2013-02-19 23:54:00,
2013-02-19 18:55:00,57.0,55.9,30.00,NW,315,5.0,5.0,96,0.00,,---,0.22,VWS V14.00,2013-02-19 23:55:00,
2013-02-19 18:56:00,57.0,55.9,30.00,NW,309,0.0,0.0,96,0.00,,---,0.22,VWS V14.00,2013-02-19 23:56:00,
2013-02-19 18:57:00,57.0,55.9,30.00,NW,309,0.0,2.0,96,0.00,,---,0.22,VWS V14.00,2013-02-19 23:57:00,
2013-02-19 18:58:00,57.0,55.9,30.00,NW,309,0.0,1.0,96,0.00,,---,0.22,VWS V14.00,2013-02-19 23:58:00,
2013-02-19 18:59:00,57.0,55.9,30.00,NW,309,1.0,2.0,96,0.00,,---,0.22,VWS V14.00,2013-02-19 23:59:00,
2013-02-19 19:00:00,57.0,55.9,30.00,WNW,292,0.0,0.0,96,0.00,,---,0.22,VWS V14.00,2013-02-20 00:00:00,
2013-02-19 19:01:00,57.0,55.9,30.00,NW,315,1.0,5.0,96,0.00,,---,0.22,VWS V14.00,2013-02-20 00:01:00,
2013-02-19 19:02:00,57.0,55.9,30.00,NW,315,0.0,2.0,96,0.00,,---,0.22,VWS V14.00,2013-02-20 00:02:00,
2013-02-19 19:03:00,57.0,55.9,30.00,NW,313,4.0,5.0,96,0.00,,---,0.22,VWS V14.00,2013-02-20 00:03:00,
2013-02-19 19:04:00,57.0,55.9,30.00,WNW,292,0.0,5.0,96,0.00,,---,0.22,VWS V14.00,2013-02-20 00:04:00,
2013-02-19 19:05:00,56.9,55.8,30.00,WNW,288,0.0,0.0,96,0.00,,---,0.22,VWS V14.00,2013-02-20 00:05:00,
2013-02-19 19:06:00,56.9,55.8,30.00,WNW,292,0.0,0.0,96,0.00,,---,0.22,VWS V14.00,2013-02-20 00:06:00,
2013-02-19 19:07:00,56.9,55.8,30.00,WNW,292,0.0,1.0,96,0.00,,---,0.22,VWS V14.00,2013-02-20 00:07:00,
2013-02-19 19:08:00,56.9,55.8,30.00,WNW,288,4.0,4.0,96,0.00,,---,0.22,VWS V14.00,2013-02-20 00:08:00,
2013-02-19 19:10:00,56.9,55.8,30.00,NW,323,1.0,2.0,96,0.00,,---,0.22,VWS V14.00,2013-02-20 00:10:00,
2013-02-19 19:11:00,56.9,55.8,30.00,WNW,288,2.0,2.0,96,0.00,,---,0.22,VWS V14.00,2013-02-20 00:11:00,
2013-02-19 19:12:00,56.9,55.8,30.00,WNW,286,0.0,2.0,96,0.00,,---,0.22,VWS V14.00,2013-02-20 00:12:00,
2013-02-19 19:13:00,56.9,55.8,30.00,NW,304,2.0,4.0,96,0.00,,---,0.22,VWS V14.00,2013-02-20 00:13:00,
2013-02-19 19:14:00,56.9,55.8,30.00,WNW,289,0.0,5.0,96,0.00,,---,0.22,VWS V14.00,2013-02-20 00:14:00,
2013-02-19 19:15:00,56.9,55.8,30.00,WNW,302,0.0,1.0,96,0.00,,---,0.22,VWS V14.00,2013-02-20 00:15:00,
2013-02-19 19:16:00,56.9,55.8,30.00,NW,323,0.0,2.0,96,0.00,,---,0.22,VWS V14.00,2013-02-20 00:16:00,
2013-02-19 19:17:00,56.9,55.8,30.00,NW,323,0.0,1.0,96,0.00,,---,0.22,VWS V14.00,2013-02-20 00:17:00,
2013-02-19 19:18:00,56.9,55.8,30.00,WNW,290,1.0,4.0,96,0.00,,---,0.22,VWS V14.00,2013-02-20 00:18:00,
2013-02-19 19:19:00,56.9,55.8,30.00,WNW,297,4.0,4.0,96,0.00,,---,0.22,VWS V14.00,2013-02-20 00:19:00,
2013-02-19 19:20:00,56.8,55.7,30.00,WNW,300,0.0,0.0,96,0.00,,---,0.22,VWS V14.00,2013-02-20 00:20:00,
2013-02-19 19:21:00,56.9,55.8,30.00,WNW,302,0.0,1.0,96,0.00,,---,0.22,VWS V14.00,2013-02-20 00:21:00,
2013-02-19 19:22:00,56.8,55.7,30.00,WNW,300,0.0,2.0,96,0.00,,---,0.22,VWS V14.00,2013-02-20 00:22:00,
2013-02-19 19:23:00,56.9,55.8,30.00,WNW,300,1.0,2.0,96,0.00,,---,0.22,VWS V14.00,2013-02-20 00:23:00,
2013-02-19 19:24:00,56.8,55.7,30.00,WNW,300,0.0,1.0,96,0.00,,---,0.22,VWS V14.00,2013-02-20 00:24:00,
2013-02-19 19:25:00,56.8,55.7,30.00,WNW,300,0.0,1.0,96,0.00,,---,0.22,VWS V14.00,2013-02-20 00:25:00,
2013-02-19 19:26:00,56.8,55.7,30.00,WNW,300,0.0,0.0,96,0.00,,---,0.22,VWS V14.00,2013-02-20 00:26:00,
2013-02-19 19:27:00,56.8,55.7,30.00,WNW,300,2.0,2.0,96,0.00,,---,0.22,VWS V14.00,2013-02-20 00:27:00,
2013-02-19 19:28:00,56.8,55.7,30.00,WNW,300,2.0,4.0,96,0.00,,---,0.22,VWS V14.00,2013-02-20 00:28:00,
2013-02-19 19:29:00,56.8,55.7,30.00,WNW,300,2.0,4.0,96,0.00,,---,0.22,VWS V14.00,2013-02-20 00:29:00,
2013-02-19 19:30:00,56.8,55.7,30.00,WNW,302,5.0,5.0,96,0.00,,---,0.22,VWS V14.00,2013-02-20 00:30:00,
2013-02-19 19:31:00,56.8,55.7,30.00,WNW,301,1.0,2.0,96,0.00,,---,0.22,VWS V14.00,2013-02-20 00:31:00,
2013-02-19 19:32:00,56.8,55.7,30.00,WNW,302,0.0,2.0,96,0.00,,---,0.22,VWS V14.00,2013-02-20 00:32:00,
2013-02-19 19:33:00,56.8,55.7,30.00,WNW,301,0.0,2.0,96,0.00,,---,0.22,VWS V14.00,2013-02-20 00:33:00,
2013-02-19 19:34:00,56.8,55.7,30.00,West,277,2.0,9.0,96,0.00,,---,0.22,VWS V14.00,2013-02-20 00:34:00,
2013-02-19 19:35:00,56.7,55.6,30.00,WNW,290,5.0,5.0,96,0.00,,---,0.22,VWS V14.00,2013-02-20 00:35:00,
2013-02-19 19:36:00,56.8,55.7,30.00,WNW,303,4.0,5.0,96,0.00,,---,0.22,VWS V14.00,2013-02-20 00:36:00,
2013-02-19 19:37:00,56.8,55.7,30.01,WNW,303,1.0,4.0,96,0.00,,---,0.22,VWS V14.00,2013-02-20 00:37:00,
2013-02-19 19:38:00,56.7,55.6,30.01,WNW,303,0.0,4.0,96,0.00,,---,0.22,VWS V14.00,2013-02-20 00:38:00,
2013-02-19 19:39:00,56.7,55.6,30.01,NW,304,0.0,2.0,96,0.00,,---,0.22,VWS V14.00,2013-02-20 00:39:00,
2013-02-19 19:40:00,56.6,55.5,30.01,West,273,0.0,0.0,96,0.00,,---,0.22,VWS V14.00,2013-02-20 00:40:00,
2013-02-19 19:41:00,56.7,55.6,30.00,WNW,295,1.0,6.0,96,0.00,,---,0.22,VWS V14.00,2013-02-20 00:41:00,
2013-02-19 19:42:00,56.7,55.6,30.01,WNW,284,0.0,5.0,96,0.00,,---,0.22,VWS V14.00,2013-02-20 00:42:00,
2013-02-19 19:43:00,56.7,55.6,30.01,WNW,284,0.0,0.0,96,0.00,,---,0.22,VWS V14.00,2013-02-20 00:43:00,
2013-02-19 19:44:00,56.7,55.6,30.01,West,274,1.0,4.0,96,0.00,,---,0.22,VWS V14.00,2013-02-20 00:44:00,
2013-02-19 19:45:00,56.6,55.5,30.01,West,273,0.0,1.0,96,0.00,,---,0.22,VWS V14.00,2013-02-20 00:45:00,
2013-02-19 19:46:00,56.6,55.5,30.01,West,273,0.0,1.0,96,0.00,,---,0.22,VWS V14.00,2013-02-20 00:46:00,
2013-02-19 19:47:00,56.6,55.5,30.01,WNW,300,2.0,6.0,96,0.00,,---,0.22,VWS V14.00,2013-02-20 00:47:00,
2013-02-19 19:48:00,56.6,55.5,30.01,NW,320,2.0,4.0,96,0.00,,---,0.22,VWS V14.00,2013-02-20 00:48:00,
2013-02-19 19:49:00,56.6,55.5,30.01,West,273,0.0,5.0,96,0.00,,---,0.22,VWS V14.00,2013-02-20 00:49:00,
2013-02-19 19:50:00,56.5,55.4,30.01,NNW,334,0.0,1.0,96,0.00,,---,0.22,VWS V14.00,2013-02-20 00:50:00,
2013-02-19 19:51:00,56.6,55.5,30.01,West,273,0.0,1.0,96,0.00,,---,0.22,VWS V14.00,2013-02-20 00:51:00,
2013-02-19 19:52:00,56.6,55.5,30.01,NNW,334,0.0,5.0,96,0.00,,---,0.22,VWS V14.00,2013-02-20 00:52:00,
2013-02-19 19:53:00,56.6,55.5,30.01,NNW,334,1.0,2.0,96,0.00,,---,0.22,VWS V14.00,2013-02-20 00:53:00,
2013-02-19 19:54:00,56.6,55.5,30.01,NNW,334,0.0,1.0,96,0.00,,---,0.22,VWS V14.00,2013-02-20 00:54:00,
2013-02-19 19:55:00,56.5,55.4,30.01,West,279,2.0,4.0,96,0.00,,---,0.22,VWS V14.00,2013-02-20 00:55:00,
2013-02-19 19:56:00,56.6,55.5,30.01,NNW,329,1.0,4.0,96,0.00,,---,0.22,VWS V14.00,2013-02-20 00:56:00,
2013-02-19 19:57:00,56.5,55.4,30.01,NW,321,2.0,5.0,96,0.00,,---,0.22,VWS V14.00,2013-02-20 00:57:00,
2013-02-19 19:58:00,56.5,55.4,30.01,NW,321,1.0,2.0,96,0.00,,---,0.22,VWS V14.00,2013-02-20 00:58:00,
2013-02-19 19:59:00,56.5,55.4,30.01,NW,321,0.0,1.0,96,0.00,,---,0.22,VWS V14.00,2013-02-20 00:59:00,
2013-02-19 20:00:00,56.4,55.3,30.01,West,261,3.0,3.0,96,0.00,,---,0.22,VWS V14.00,2013-02-20 01:00:00,
2013-02-19 20:01:00,56.4,55.3,30.01,WNW,290,0.0,4.0,96,0.00,,---,0.22,VWS V14.00,2013-02-20 01:01:00,
2013-02-19 20:02:00,56.4,55.3,30.01,West,269,2.0,5.0,96,0.00,,---,0.22,VWS V14.00,2013-02-20 01:02:00,
2013-02-19 20:03:00,56.4,55.3,30.01,West,269,0.0,3.0,96,0.00,,---,0.22,VWS V14.00,2013-02-20 01:03:00,
2013-02-19 20:04:00,56.4,55.3,30.01,West,269,0.0,1.0,96,0.00,,---,0.22,VWS V14.00,2013-02-20 01:04:00,
2013-02-19 20:05:00,56.3,55.2,30.01,NW,316,1.0,1.0,96,0.00,,---,0.22,VWS V14.00,2013-02-20 01:05:00,
2013-02-19 20:06:00,56.4,55.3,30.01,NNW,329,4.0,5.0,96,0.00,,---,0.22,VWS V14.00,2013-02-20 01:06:00,
2013-02-19 20:07:00,56.4,55.3,30.01,WNW,288,0.0,5.0,96,0.00,,---,0.22,VWS V14.00,2013-02-20 01:07:00,
2013-02-19 20:08:00,56.3,55.2,30.01,NW,306,4.0,4.0,96,0.00,,---,0.22,VWS V14.00,2013-02-20 01:08:00,
2013-02-19 20:09:00,56.3,55.2,30.01,NW,312,2.0,5.0,96,0.00,,---,0.22,VWS V14.00,2013-02-20 01:09:00,
2013-02-19 20:10:00,56.2,55.1,30.01,NW,311,0.0,0.0,96,0.00,,---,0.22,VWS V14.00,2013-02-20 01:10:00,
2013-02-19 20:11:00,56.2,55.1,30.01,NW,315,2.0,4.0,96,0.00,,---,0.22,VWS V14.00,2013-02-20 01:11:00,
2013-02-19 20:12:00,56.3,55.2,30.01,NW,315,0.0,2.0,96,0.00,,---,0.22,VWS V14.00,2013-02-20 01:12:00,
2013-02-19 20:13:00,56.2,55.1,30.01,NW,315,0.0,1.0,96,0.00,,---,0.22,VWS V14.00,2013-02-20 01:13:00,
2013-02-19 20:14:00,56.2,55.1,30.01,NW,311,0.0,4.0,96,0.00,,---,0.22,VWS V14.00,2013-02-20 01:14:00,
2013-02-19 20:15:00,56.1,55.0,30.01,NW,311,1.0,2.0,96,0.00,,---,0.22,VWS V14.00,2013-02-20 01:15:00,
2013-02-19 20:16:00,56.1,55.0,30.01,NW,311,0.0,0.0,96,0.00,,---,0.22,VWS V14.00,2013-02-20 01:16:00,
2013-02-19 20:17:00,56.1,55.0,30.01,NW,311,0.0,0.0,96,0.00,,---,0.22,VWS V14.00,2013-02-20 01:17:00,
2013-02-19 20:18:00,56.1,55.0,30.01,NW,311,0.0,0.0,96,0.00,,---,0.22,VWS V14.00,2013-02-20 01:18:00,
2013-02-19 20:19:00,56.1,55.0,30.01,NW,311,1.0,1.0,96,0.00,,---,0.22,VWS V14.00,2013-02-20 01:19:00,
2013-02-19 20:20:00,55.9,54.8,30.01,WNW,282,1.0,1.0,96,0.00,,---,0.22,VWS V14.00,2013-02-20 01:20:00,
2013-02-19 20:21:00,56.0,54.9,30.01,WNW,284,1.0,5.0,96,0.00,,---,0.22,VWS V14.00,2013-02-20 01:21:00,
2013-02-19 20:22:00,56.0,54.9,30.01,WNW,282,0.0,4.0,96,0.00,,---,0.22,VWS V14.00,2013-02-20 01:22:00,
2013-02-19 20:23:00,56.0,54.9,30.01,WNW,282,0.0,0.0,96,0.00,,---,0.22,VWS V14.00,2013-02-20 01:23:00,
2013-02-19 20:24:00,55.9,54.8,30.01,WNW,282,0.0,0.0,96,0.00,,---,0.22,VWS V14.00,2013-02-20 01:24:00,
2013-02-19 20:25:00,55.7,54.6,30.02,West,265,0.0,0.0,96,0.00,,---,0.22,VWS V14.00,2013-02-20 01:25:00,
2013-02-19 20:26:00,55.9,54.8,30.01,WNW,282,1.0,6.0,96,0.00,,---,0.22,VWS V14.00,2013-02-20 01:26:00,
2013-02-19 20:27:00,55.8,54.7,30.02,WNW,283,0.0,1.0,96,0.00,,---,0.22,VWS V14.00,2013-02-20 01:27:00,
2013-02-19 20:28:00,55.8,54.7,30.01,West,278,1.0,2.0,96,0.00,,---,0.22,VWS V14.00,2013-02-20 01:28:00,
2013-02-19 20:29:00,55.8,54.7,30.02,West,278,2.0,2.0,96,0.00,,---,0.22,VWS V14.00,2013-02-20 01:29:00,
2013-02-19 20:30:00,55.6,54.5,30.02,NW,307,0.0,0.0,96,0.00,,---,0.22,VWS V14.00,2013-02-20 01:30:00,
2013-02-19 20:31:00,55.7,54.6,30.02,NW,307,1.0,5.0,96,0.00,,---,0.22,VWS V14.00,2013-02-20 01:31:00,
2013-02-19 20:32:00,55.7,54.6,30.02,NW,307,0.0,2.0,96,0.00,,---,0.22,VWS V14.00,2013-02-20 01:32:00,
2013-02-19 20:33:00,55.7,54.6,30.02,NW,307,0.0,0.0,96,0.00,,---,0.22,VWS V14.00,2013-02-20 01:33:00,
2013-02-19 20:34:00,55.6,54.5,30.02,NW,307,0.0,2.0,96,0.00,,---,0.22,VWS V14.00,2013-02-20 01:34:00,
2013-02-19 20:35:00,55.4,54.3,30.02,NW,306,0.0,0.0,96,0.00,,---,0.22,VWS V14.00,2013-02-20 01:35:00,
2013-02-19 20:36:00,55.6,54.5,30.02,NW,307,0.0,0.0,96,0.00,,---,0.22,VWS V14.00,2013-02-20 01:36:00,
2013-02-19 20:37:00,55.5,54.4,30.02,NW,306,1.0,1.0,96,0.00,,---,0.22,VWS V14.00,2013-02-20 01:37:00,
2013-02-19 20:38:00,55.5,54.4,30.02,NW,306,0.0,4.0,96,0.00,,---,0.22,VWS V14.00,2013-02-20 01:38:00,
2013-02-19 20:39:00,55.5,54.4,30.02,NW,306,0.0,1.0,96,0.00,,---,0.22,VWS V14.00,2013-02-20 01:39:00,
2013-02-19 20:40:00,55.3,54.2,30.02,NW,306,0.0,0.0,96,0.00,,---,0.22,VWS V14.00,2013-02-20 01:40:00,
2013-02-19 20:41:00,55.4,54.3,30.02,NW,306,0.0,2.0,96,0.00,,---,0.22,VWS V14.00,2013-02-20 01:41:00,
2013-02-19 20:42:00,55.4,54.3,30.02,NW,306,0.0,0.0,96,0.00,,---,0.22,VWS V14.00,2013-02-20 01:42:00,
2013-02-19 20:43:00,55.3,54.2,30.02,NW,306,0.0,0.0,96,0.00,,---,0.22,VWS V14.00,2013-02-20 01:43:00,
2013-02-19 20:44:00,55.3,54.2,30.02,NW,306,0.0,0.0,96,0.00,,---,0.22,VWS V14.00,2013-02-20 01:44:00,
2013-02-19 20:45:00,55.1,54.0,30.02,WNW,284,0.0,0.0,96,0.00,,---,0.22,VWS V14.00,2013-02-20 01:45:00,
2013-02-19 20:46:00,55.3,54.2,30.02,NW,306,0.0,0.0,96,0.00,,---,0.22,VWS V14.00,2013-02-20 01:46:00,
2013-02-19 20:47:00,55.3,54.2,30.02,NW,306,0.0,0.0,96,0.00,,---,0.22,VWS V14.00,2013-02-20 01:47:00,
2013-02-19 20:48:00,55.2,54.1,30.02,WNW,284,2.0,5.0,96,0.00,,---,0.22,VWS V14.00,2013-02-20 01:48:00,
2013-02-19 20:49:00,55.2,54.1,30.02,WNW,284,0.0,2.0,96,0.00,,---,0.22,VWS V14.00,2013-02-20 01:49:00,
2013-02-19 20:50:00,55.0,53.9,30.02,WNW,303,0.0,0.0,96,0.00,,---,0.22,VWS V14.00,2013-02-20 01:50:00,
2013-02-19 20:51:00,55.1,54.0,30.02,WNW,290,1.0,4.0,96,0.00,,---,0.22,VWS V14.00,2013-02-20 01:51:00,
2013-02-19 20:52:00,55.1,54.0,30.02,WNW,303,4.0,5.0,96,0.00,,---,0.22,VWS V14.00,2013-02-20 01:52:00,
2013-02-19 20:53:00,55.0,53.9,30.02,WNW,303,0.0,4.0,96,0.00,,---,0.22,VWS V14.00,2013-02-20 01:53:00,
2013-02-19 20:54:00,55.0,53.9,30.02,WNW,303,0.0,1.0,96,0.00,,---,0.22,VWS V14.00,2013-02-20 01:54:00,
2013-02-19 20:55:00,54.8,53.7,30.02,WNW,303,0.0,0.0,96,0.00,,---,0.22,VWS V14.00,2013-02-20 01:55:00,
2013-02-19 20:56:00,54.9,53.8,30.02,WNW,303,1.0,1.0,96,0.00,,---,0.22,VWS V14.00,2013-02-20 01:56:00,
2013-02-19 20:57:00,54.9,53.8,30.02,WNW,303,0.0,2.0,96,0.00,,---,0.22,VWS V14.00,2013-02-20 01:57:00,
2013-02-19 20:58:00,54.9,53.8,30.02,WNW,303,0.0,0.0,96,0.00,,---,0.22,VWS V14.00,2013-02-20 01:58:00,
2013-02-19 20:59:00,54.8,53.7,30.02,WNW,303,0.0,0.0,96,0.00,,---,0.22,VWS V14.00,2013-02-20 01:59:00,
2013-02-19 21:00:00,54.7,53.6,30.02,WNW,303,1.0,1.0,96,0.00,,---,0.22,VWS V14.00,2013-02-20 02:00:00,
2013-02-19 21:01:00,54.8,53.7,30.02,WNW,303,0.0,0.0,96,0.00,,---,0.22,VWS V14.00,2013-02-20 02:01:00,
2013-02-19 21:02:00,54.8,53.7,30.02,WNW,303,0.0,1.0,96,0.00,,---,0.22,VWS V14.00,2013-02-20 02:02:00,
2013-02-19 21:03:00,54.8,53.7,30.02,WNW,303,1.0,2.0,96,0.00,,---,0.22,VWS V14.00,2013-02-20 02:03:00,
2013-02-19 21:04:00,54.7,53.6,30.02,WNW,303,4.0,4.0,96,0.00,,---,0.22,VWS V14.00,2013-02-20 02:04:00,
2013-02-19 21:05:00,54.5,53.1,30.02,WNW,303,0.0,0.0,95,0.00,,---,0.22,VWS V14.00,2013-02-20 02:05:00,
2013-02-19 21:06:00,54.7,53.6,30.02,WNW,303,0.0,1.0,96,0.00,,---,0.22,VWS V14.00,2013-02-20 02:06:00,
2013-02-19 21:07:00,54.6,53.5,30.02,WNW,303,0.0,0.0,96,0.00,,---,0.22,VWS V14.00,2013-02-20 02:07:00,
2013-02-19 21:08:00,54.6,53.5,30.02,WNW,303,1.0,1.0,96,0.00,,---,0.22,VWS V14.00,2013-02-20 02:08:00,
2013-02-19 21:09:00,54.6,53.5,30.02,WNW,303,0.0,4.0,96,0.00,,---,0.22,VWS V14.00,2013-02-20 02:09:00,
2013-02-19 21:10:00,54.4,53.0,30.02,WNW,303,0.0,0.0,95,0.00,,---,0.22,VWS V14.00,2013-02-20 02:10:00,
2013-02-19 21:11:00,54.5,53.1,30.02,WNW,303,0.0,0.0,95,0.00,,---,0.22,VWS V14.00,2013-02-20 02:11:00,
2013-02-19 21:12:00,54.5,53.1,30.02,WNW,303,0.0,0.0,95,0.00,,---,0.22,VWS V14.00,2013-02-20 02:12:00,
2013-02-19 21:13:00,54.4,53.0,30.02,WNW,303,0.0,0.0,95,0.00,,---,0.22,VWS V14.00,2013-02-20 02:13:00,
2013-02-19 21:14:00,54.4,53.0,30.02,WNW,303,0.0,0.0,95,0.00,,---,0.22,VWS V14.00,2013-02-20 02:14:00,
2013-02-19 21:15:00,54.2,52.8,30.02,WNW,303,0.0,0.0,95,0.00,,---,0.22,VWS V14.00,2013-02-20 02:15:00,
2013-02-19 21:16:00,54.3,52.9,30.02,WNW,303,0.0,0.0,95,0.00,,---,0.22,VWS V14.00,2013-02-20 02:16:00,
2013-02-19 21:17:00,54.3,52.9,30.02,WNW,303,0.0,0.0,95,0.00,,---,0.22,VWS V14.00,2013-02-20 02:17:00,
2013-02-19 21:18:00,54.3,52.9,30.02,WNW,303,0.0,2.0,95,0.00,,---,0.22,VWS V14.00,2013-02-20 02:18:00,
2013-02-19 21:19:00,54.3,52.9,30.02,WNW,303,0.0,0.0,95,0.00,,---,0.22,VWS V14.00,2013-02-20 02:19:00,
2013-02-19 21:20:00,54.1,53.0,30.02,WNW,303,0.0,0.0,96,0.00,,---,0.22,VWS V14.00,2013-02-20 02:20:00,
2013-02-19 21:21:00,54.2,52.8,30.02,WNW,303,0.0,0.0,95,0.00,,---,0.22,VWS V14.00,2013-02-20 02:21:00,
2013-02-19 21:22:00,54.1,53.0,30.02,WNW,303,0.0,0.0,96,0.00,,---,0.22,VWS V14.00,2013-02-20 02:22:00,
2013-02-19 21:23:00,54.1,53.0,30.02,WNW,303,0.0,0.0,96,0.00,,---,0.22,VWS V14.00,2013-02-20 02:23:00,
2013-02-19 21:24:00,54.1,53.0,30.02,WNW,303,0.0,0.0,96,0.00,,---,0.22,VWS V14.00,2013-02-20 02:24:00,
2013-02-19 21:25:00,53.9,52.5,30.02,WNW,303,0.0,0.0,95,0.00,,---,0.22,VWS V14.00,2013-02-20 02:25:00,
2013-02-19 21:26:00,54.0,52.9,30.02,WNW,303,0.0,0.0,96,0.00,,---,0.22,VWS V14.00,2013-02-20 02:26:00,
2013-02-19 21:27:00,54.0,52.9,30.02,WNW,303,0.0,0.0,96,0.00,,---,0.22,VWS V14.00,2013-02-20 02:27:00,
2013-02-19 21:28:00,54.0,52.9,30.02,WNW,303,0.0,0.0,96,0.00,,---,0.22,VWS V14.00,2013-02-20 02:28:00,
2013-02-19 21:29:00,53.9,52.8,30.02,WNW,303,0.0,0.0,96,0.00,,---,0.22,VWS V14.00,2013-02-20 02:29:00,
2013-02-19 21:30:00,53.7,52.3,30.02,WNW,303,0.0,0.0,95,0.00,,---,0.22,VWS V14.00,2013-02-20 02:30:00,
2013-02-19 21:31:00,53.9,52.5,30.02,WNW,303,0.0,0.0,95,0.00,,---,0.22,VWS V14.00,2013-02-20 02:31:00,
2013-02-19 21:32:00,53.8,52.4,30.02,WNW,303,0.0,0.0,95,0.00,,---,0.22,VWS V14.00,2013-02-20 02:32:00,
2013-02-19 21:33:00,53.8,52.4,30.02,WNW,303,0.0,0.0,95,0.00,,---,0.22,VWS V14.00,2013-02-20 02:33:00,
2013-02-19 21:34:00,53.7,52.3,30.02,WNW,303,0.0,0.0,95,0.00,,---,0.22,VWS V14.00,2013-02-20 02:34:00,
2013-02-19 21:35:00,53.4,52.0,30.02,WNW,303,0.0,0.0,95,0.00,,---,0.22,VWS V14.00,2013-02-20 02:35:00,
2013-02-19 21:36:00,53.6,52.2,30.02,WNW,303,0.0,0.0,95,0.00,,---,0.22,VWS V14.00,2013-02-20 02:36:00,
2013-02-19 21:37:00,53.6,52.2,30.02,WNW,303,0.0,0.0,95,0.00,,---,0.22,VWS V14.00,2013-02-20 02:37:00,
2013-02-19 21:38:00,53.5,52.1,30.02,WNW,303,0.0,0.0,95,0.00,,---,0.22,VWS V14.00,2013-02-20 02:38:00,
2013-02-19 21:39:00,53.5,52.1,30.02,WNW,303,0.0,0.0,95,0.00,,---,0.22,VWS V14.00,2013-02-20 02:39:00,
2013-02-19 21:40:00,53.1,51.7,30.02,WNW,303,0.0,0.0,95,0.00,,---,0.22,VWS V14.00,2013-02-20 02:40:00,
2013-02-19 21:41:00,53.3,51.9,30.02,WNW,303,0.0,0.0,95,0.00,,---,0.22,VWS V14.00,2013-02-20 02:41:00,
2013-02-19 21:42:00,53.3,51.9,30.02,WNW,303,0.0,0.0,95,0.00,,---,0.22,VWS V14.00,2013-02-20 02:42:00,
2013-02-19 21:43:00,53.2,51.8,30.02,WNW,303,0.0,0.0,95,0.00,,---,0.22,VWS V14.00,2013-02-20 02:43:00,
2013-02-19 21:44:00,53.2,51.8,30.02,WNW,303,0.0,0.0,95,0.00,,---,0.22,VWS V14.00,2013-02-20 02:44:00,
2013-02-19 21:45:00,52.8,51.4,30.02,WNW,303,0.0,0.0,95,0.00,,---,0.22,VWS V14.00,2013-02-20 02:45:00,
2013-02-19 21:46:00,53.1,51.7,30.02,WNW,303,0.0,0.0,95,0.00,,---,0.22,VWS V14.00,2013-02-20 02:46:00,
2013-02-19 21:47:00,53.0,51.6,30.02,WNW,303,0.0,0.0,95,0.00,,---,0.22,VWS V14.00,2013-02-20 02:47:00,
2013-02-19 21:48:00,52.9,51.5,30.02,WNW,303,0.0,0.0,95,0.00,,---,0.22,VWS V14.00,2013-02-20 02:48:00,
2013-02-19 21:49:00,52.8,51.4,30.02,WNW,303,0.0,0.0,95,0.00,,---,0.22,VWS V14.00,2013-02-20 02:49:00,
2013-02-19 21:50:00,52.6,51.2,30.03,WNW,303,0.0,0.0,95,0.00,,---,0.22,VWS V14.00,2013-02-20 02:50:00,
2013-02-19 21:51:00,52.8,51.4,30.02,WNW,303,0.0,0.0,95,0.00,,---,0.22,VWS V14.00,2013-02-20 02:51:00,
2013-02-19 21:52:00,52.7,51.3,30.03,WNW,303,0.0,0.0,95,0.00,,---,0.22,VWS V14.00,2013-02-20 02:52:00,
2013-02-19 21:53:00,52.6,51.2,30.03,WNW,303,0.0,0.0,95,0.00,,---,0.22,VWS V14.00,2013-02-20 02:53:00,
2013-02-19 21:54:00,52.3,50.9,30.03,WNW,303,0.0,0.0,95,0.00,,---,0.22,VWS V14.00,2013-02-20 02:54:00,
2013-02-19 21:55:00,52.6,51.2,30.02,WNW,303,0.0,0.0,95,0.00,,---,0.22,VWS V14.00,2013-02-20 02:55:00,
2013-02-19 21:56:00,52.5,51.1,30.03,WNW,303,0.0,0.0,95,0.00,,---,0.22,VWS V14.00,2013-02-20 02:56:00,
2013-02-19 21:57:00,52.4,51.0,30.03,WNW,303,0.0,0.0,95,0.00,,---,0.22,VWS V14.00,2013-02-20 02:57:00,
2013-02-19 21:58:00,52.4,51.0,30.03,WNW,303,0.0,0.0,95,0.00,,---,0.22,VWS V14.00,2013-02-20 02:58:00,
2013-02-19 21:59:00,52.0,50.6,30.03,WNW,303,0.0,0.0,95,0.00,,---,0.22,VWS V14.00,2013-02-20 02:59:00,
2013-02-19 22:00:00,52.3,50.9,30.03,WNW,303,0.0,0.0,95,0.00,,---,0.22,VWS V14.00,2013-02-20 03:00:00,
2013-02-19 22:01:00,52.2,50.8,30.03,WNW,303,0.0,0.0,95,0.00,,---,0.22,VWS V14.00,2013-02-20 03:01:00,
2013-02-19 22:02:00,52.2,50.8,30.03,WNW,303,0.0,0.0,95,0.00,,---,0.22,VWS V14.00,2013-02-20 03:02:00,
2013-02-19 22:03:00,52.2,50.8,30.03,WNW,303,0.0,0.0,95,0.00,,---,0.22,VWS V14.00,2013-02-20 03:03:00,
2013-02-19 22:04:00,51.8,50.4,30.03,WNW,303,0.0,0.0,95,0.00,,---,0.22,VWS V14.00,2013-02-20 03:04:00,
2013-02-19 22:05:00,52.0,50.6,30.03,WNW,303,0.0,0.0,95,0.00,,---,0.22,VWS V14.00,2013-02-20 03:05:00,
2013-02-19 22:06:00,52.0,50.6,30.02,WNW,303,0.0,0.0,95,0.00,,---,0.22,VWS V14.00,2013-02-20 03:06:00,
2013-02-19 22:07:00,52.0,50.6,30.03,WNW,303,0.0,0.0,95,0.00,,---,0.22,VWS V14.00,2013-02-20 03:07:00,
2013-02-19 22:08:00,51.9,50.5,30.03,WNW,303,0.0,0.0,95,0.00,,---,0.22,VWS V14.00,2013-02-20 03:08:00,
2013-02-19 22:09:00,51.6,49.9,30.03,WNW,303,0.0,0.0,94,0.00,,---,0.22,VWS V14.00,2013-02-20 03:09:00,
2013-02-19 22:10:00,51.8,50.4,30.03,WNW,303,0.0,0.0,95,0.00,,---,0.22,VWS V14.00,2013-02-20 03:10:00,
2013-02-19 22:11:00,51.7,50.0,30.03,WNW,303,0.0,0.0,94,0.00,,---,0.22,VWS V14.00,2013-02-20 03:11:00,
2013-02-19 22:12:00,51.7,50.0,30.03,WNW,303,0.0,0.0,94,0.00,,---,0.22,VWS V14.00,2013-02-20 03:12:00,
2013-02-19 22:13:00,51.7,50.3,30.03,WNW,303,0.0,0.0,95,0.00,,---,0.22,VWS V14.00,2013-02-20 03:13:00,
2013-02-19 22:14:00,51.4,50.0,30.03,WNW,303,0.0,0.0,95,0.00,,---,0.22,VWS V14.00,2013-02-20 03:14:00,
2013-02-19 22:15:00,51.6,49.9,30.03,WNW,303,0.0,0.0,94,0.00,,---,0.22,VWS V14.00,2013-02-20 03:15:00,
2013-02-19 22:16:00,51.5,49.8,30.03,WNW,303,0.0,0.0,94,0.00,,---,0.22,VWS V14.00,2013-02-20 03:16:00,
2013-02-19 22:17:00,51.5,49.8,30.03,WNW,303,0.0,0.0,94,0.00,,---,0.22,VWS V14.00,2013-02-20 03:17:00,
2013-02-19 22:18:00,51.4,49.7,30.03,WNW,303,0.0,0.0,94,0.00,,---,0.22,VWS V14.00,2013-02-20 03:18:00,
2013-02-19 22:19:00,51.2,49.8,30.03,WNW,303,0.0,0.0,95,0.00,,---,0.22,VWS V14.00,2013-02-20 03:19:00,
2013-02-19 22:20:00,51.4,50.0,30.03,WNW,303,0.0,0.0,95,0.00,,---,0.22,VWS V14.00,2013-02-20 03:20:00,
2013-02-19 22:21:00,51.4,50.0,30.03,WNW,303,0.0,0.0,95,0.00,,---,0.22,VWS V14.00,2013-02-20 03:21:00,
2013-02-19 22:22:00,51.3,49.9,30.03,WNW,303,0.0,0.0,95,0.00,,---,0.22,VWS V14.00,2013-02-20 03:22:00,
2013-02-19 22:23:00,51.3,49.9,30.03,WNW,303,0.0,0.0,95,0.00,,---,0.22,VWS V14.00,2013-02-20 03:23:00,
2013-02-19 22:24:00,51.1,49.4,30.03,WNW,303,0.0,0.0,94,0.00,,---,0.22,VWS V14.00,2013-02-20 03:24:00,
2013-02-19 22:25:00,51.2,49.8,30.03,WNW,303,0.0,0.0,95,0.00,,---,0.22,VWS V14.00,2013-02-20 03:25:00,
2013-02-19 22:26:00,51.2,49.8,30.03,WNW,303,0.0,0.0,95,0.00,,---,0.22,VWS V14.00,2013-02-20 03:26:00,
2013-02-19 22:27:00,51.2,49.8,30.03,WNW,303,0.0,0.0,95,0.00,,---,0.22,VWS V14.00,2013-02-20 03:27:00,
2013-02-19 22:28:00,51.2,49.8,30.03,WNW,303,0.0,0.0,95,0.00,,---,0.22,VWS V14.00,2013-02-20 03:28:00,
2013-02-19 22:29:00,50.9,49.2,30.02,WNW,303,0.0,0.0,94,0.00,,---,0.22,VWS V14.00,2013-02-20 03:29:00,
2013-02-19 22:30:00,51.1,49.4,30.03,WNW,303,0.0,0.0,94,0.00,,---,0.22,VWS V14.00,2013-02-20 03:30:00,
2013-02-19 22:31:00,51.1,49.4,30.03,WNW,303,0.0,0.0,94,0.00,,---,0.22,VWS V14.00,2013-02-20 03:31:00,
2013-02-19 22:32:00,51.0,49.3,30.03,WNW,303,0.0,0.0,94,0.00,,---,0.22,VWS V14.00,2013-02-20 03:32:00,
2013-02-19 22:33:00,51.0,49.3,30.02,WNW,303,0.0,0.0,94,0.00,,---,0.22,VWS V14.00,2013-02-20 03:33:00,
2013-02-19 22:34:00,50.8,49.4,30.03,WNW,303,0.0,0.0,95,0.00,,---,0.22,VWS V14.00,2013-02-20 03:34:00,
2013-02-19 22:36:00,50.9,49.2,30.03,WNW,303,0.0,0.0,94,0.00,,---,0.22,VWS V14.00,2013-02-20 03:36:00,
2013-02-19 22:37:00,50.9,49.2,30.03,WNW,303,0.0,0.0,94,0.00,,---,0.22,VWS V14.00,2013-02-20 03:37:00,
2013-02-19 22:38:00,50.9,49.5,30.03,WNW,303,0.0,0.0,95,0.00,,---,0.22,VWS V14.00,2013-02-20 03:38:00,
2013-02-19 22:39:00,50.7,49.3,30.03,WNW,303,0.0,1.0,95,0.00,,---,0.22,VWS V14.00,2013-02-20 03:39:00,
2013-02-19 22:40:00,50.8,49.4,30.03,WNW,303,0.0,0.0,95,0.00,,---,0.22,VWS V14.00,2013-02-20 03:40:00,
2013-02-19 22:41:00,50.8,49.4,30.03,WNW,303,0.0,0.0,95,0.00,,---,0.22,VWS V14.00,2013-02-20 03:41:00,
2013-02-19 22:42:00,50.8,49.4,30.03,WNW,303,0.0,0.0,95,0.00,,---,0.22,VWS V14.00,2013-02-20 03:42:00,
2013-02-19 22:43:00,50.8,49.4,30.03,WNW,303,0.0,0.0,95,0.00,,---,0.22,VWS V14.00,2013-02-20 03:43:00,
2013-02-19 22:44:00,50.6,49.2,30.03,WNW,303,0.0,0.0,95,0.00,,---,0.22,VWS V14.00,2013-02-20 03:44:00,
2013-02-19 22:45:00,50.7,49.3,30.03,WNW,303,0.0,1.0,95,0.00,,---,0.22,VWS V14.00,2013-02-20 03:45:00,
2013-02-19 22:46:00,50.7,49.3,30.02,WNW,303,0.0,0.0,95,0.00,,---,0.22,VWS V14.00,2013-02-20 03:46:00,
2013-02-19 22:47:00,50.7,49.3,30.03,WNW,303,0.0,0.0,95,0.00,,---,0.22,VWS V14.00,2013-02-20 03:47:00,
2013-02-19 22:48:00,50.6,49.2,30.03,WNW,303,0.0,0.0,95,0.00,,---,0.22,VWS V14.00,2013-02-20 03:48:00,
2013-02-19 22:49:00,50.5,49.1,30.03,WNW,303,0.0,0.0,95,0.00,,---,0.22,VWS V14.00,2013-02-20 03:49:00,
2013-02-19 22:50:00,50.6,49.2,30.03,WNW,303,0.0,0.0,95,0.00,,---,0.22,VWS V14.00,2013-02-20 03:50:00,
2013-02-19 22:51:00,50.6,49.2,30.03,WNW,303,0.0,0.0,95,0.00,,---,0.22,VWS V14.00,2013-02-20 03:51:00,
2013-02-19 22:52:00,50.6,49.2,30.02,WNW,303,0.0,0.0,95,0.00,,---,0.22,VWS V14.00,2013-02-20 03:52:00,
2013-02-19 22:53:00,50.5,49.1,30.02,WNW,303,0.0,0.0,95,0.00,,---,0.22,VWS V14.00,2013-02-20 03:53:00,
2013-02-19 22:54:00,50.4,49.0,30.03,WNW,303,0.0,0.0,95,0.00,,---,0.22,VWS V14.00,2013-02-20 03:54:00,
2013-02-19 22:55:00,50.5,49.1,30.03,WNW,303,0.0,0.0,95,0.00,,---,0.22,VWS V14.00,2013-02-20 03:55:00,
2013-02-19 22:56:00,50.5,49.1,30.02,WNW,303,0.0,0.0,95,0.00,,---,0.22,VWS V14.00,2013-02-20 03:56:00,
2013-02-19 22:57:00,50.5,49.1,30.03,WNW,303,0.0,0.0,95,0.00,,---,0.22,VWS V14.00,2013-02-20 03:57:00,
2013-02-19 22:58:00,50.5,49.1,30.02,WNW,303,0.0,0.0,95,0.00,,---,0.22,VWS V14.00,2013-02-20 03:58:00,
2013-02-19 22:59:00,50.3,48.9,30.02,WNW,303,0.0,0.0,95,0.00,,---,0.22,VWS V14.00,2013-02-20 03:59:00,
2013-02-19 23:00:00,50.4,49.0,30.03,WNW,303,0.0,0.0,95,0.00,,---,0.22,VWS V14.00,2013-02-20 04:00:00,
2013-02-19 23:01:00,50.4,49.0,30.02,WNW,303,0.0,0.0,95,0.00,,---,0.22,VWS V14.00,2013-02-20 04:01:00,
2013-02-19 23:02:00,50.4,49.0,30.03,WNW,303,0.0,0.0,95,0.00,,---,0.22,VWS V14.00,2013-02-20 04:02:00,
2013-02-19 23:03:00,50.4,49.0,30.02,WNW,303,0.0,0.0,95,0.00,,---,0.22,VWS V14.00,2013-02-20 04:03:00,
2013-02-19 23:04:00,50.2,48.8,30.02,WNW,303,0.0,0.0,95,0.00,,---,0.22,VWS V14.00,2013-02-20 04:04:00,
2013-02-19 23:05:00,50.3,48.9,30.02,WNW,303,0.0,0.0,95,0.00,,---,0.22,VWS V14.00,2013-02-20 04:05:00,
2013-02-19 23:06:00,50.3,48.9,30.02,WNW,303,0.0,0.0,95,0.00,,---,0.22,VWS V14.00,2013-02-20 04:06:00,
2013-02-19 23:07:00,50.3,48.9,30.02,WNW,303,0.0,0.0,95,0.00,,---,0.22,VWS V14.00,2013-02-20 04:07:00,
2013-02-19 23:08:00,50.3,48.9,30.02,WNW,303,0.0,0.0,95,0.00,,---,0.22,VWS V14.00,2013-02-20 04:08:00,
2013-02-19 23:09:00,50.2,48.8,30.03,WNW,303,0.0,0.0,95,0.00,,---,0.22,VWS V14.00,2013-02-20 04:09:00,
2013-02-19 23:10:00,50.2,48.8,30.02,WNW,303,0.0,0.0,95,0.00,,---,0.22,VWS V14.00,2013-02-20 04:10:00,
2013-02-19 23:11:00,50.2,48.8,30.02,WNW,303,0.0,0.0,95,0.00,,---,0.22,VWS V14.00,2013-02-20 04:11:00,
2013-02-19 23:12:00,50.2,48.8,30.02,WNW,303,0.0,0.0,95,0.00,,---,0.22,VWS V14.00,2013-02-20 04:12:00,
2013-02-19 23:13:00,50.2,48.8,30.03,WNW,303,0.0,0.0,95,0.00,,---,0.22,VWS V14.00,2013-02-20 04:13:00,
2013-02-19 23:14:00,50.1,48.7,30.03,WNW,303,0.0,0.0,95,0.00,,---,0.22,VWS V14.00,2013-02-20 04:14:00,
2013-02-19 23:15:00,50.2,48.8,30.03,WNW,303,0.0,0.0,95,0.00,,---,0.22,VWS V14.00,2013-02-20 04:15:00,
2013-02-19 23:16:00,50.1,48.7,30.03,WNW,303,0.0,0.0,95,0.00,,---,0.22,VWS V14.00,2013-02-20 04:16:00,
2013-02-19 23:17:00,50.1,48.7,30.03,WNW,303,0.0,0.0,95,0.00,,---,0.22,VWS V14.00,2013-02-20 04:17:00,
2013-02-19 23:18:00,50.1,48.7,30.03,WNW,303,0.0,0.0,95,0.00,,---,0.22,VWS V14.00,2013-02-20 04:18:00,
2013-02-19 23:19:00,50.0,48.6,30.03,WNW,303,0.0,0.0,95,0.00,,---,0.22,VWS V14.00,2013-02-20 04:19:00,
2013-02-19 23:20:00,50.1,48.7,30.03,WNW,303,0.0,0.0,95,0.00,,---,0.22,VWS V14.00,2013-02-20 04:20:00,
2013-02-19 23:21:00,50.1,48.7,30.03,WNW,303,0.0,0.0,95,0.00,,---,0.22,VWS V14.00,2013-02-20 04:21:00,
2013-02-19 23:22:00,50.1,48.7,30.03,WNW,303,0.0,0.0,95,0.00,,---,0.22,VWS V14.00,2013-02-20 04:22:00,
2013-02-19 23:23:00,50.1,48.7,30.03,WNW,303,0.0,0.0,95,0.00,,---,0.22,VWS V14.00,2013-02-20 04:23:00,
2013-02-19 23:24:00,50.1,48.7,30.03,WNW,303,4.0,4.0,95,0.00,,---,0.22,VWS V14.00,2013-02-20 04:24:00,
2013-02-19 23:25:00,50.1,48.7,30.03,WNW,303,1.0,1.0,95,0.00,,---,0.22,VWS V14.00,2013-02-20 04:25:00,
2013-02-19 23:26:00,50.1,48.7,30.03,WNW,303,0.0,1.0,95,0.00,,---,0.22,VWS V14.00,2013-02-20 04:26:00,
2013-02-19 23:27:00,50.1,48.7,30.03,WNW,303,0.0,0.0,95,0.00,,---,0.22,VWS V14.00,2013-02-20 04:27:00,
2013-02-19 23:28:00,50.0,48.6,30.03,WNW,303,0.0,0.0,95,0.00,,---,0.22,VWS V14.00,2013-02-20 04:28:00,
2013-02-19 23:29:00,50.2,48.8,30.03,WNW,303,0.0,1.0,95,0.00,,---,0.22,VWS V14.00,2013-02-20 04:29:00,
2013-02-19 23:30:00,50.1,48.7,30.03,WNW,303,2.0,4.0,95,0.00,,---,0.22,VWS V14.00,2013-02-20 04:30:00,
2013-02-19 23:31:00,50.1,48.7,30.03,WNW,303,0.0,2.0,95,0.00,,---,0.22,VWS V14.00,2013-02-20 04:31:00,
2013-02-19 23:32:00,50.1,48.7,30.03,WNW,303,1.0,1.0,95,0.00,,---,0.22,VWS V14.00,2013-02-20 04:32:00,
2013-02-19 23:33:00,50.1,48.7,30.03,WNW,303,0.0,2.0,95,0.00,,---,0.22,VWS V14.00,2013-02-20 04:33:00,
2013-02-19 23:34:00,50.3,49.2,30.04,NW,305,1.0,4.0,96,0.00,,---,0.22,VWS V14.00,2013-02-20 04:34:00,
2013-02-19 23:35:00,50.2,48.8,30.03,WNW,303,0.0,1.0,95,0.00,,---,0.22,VWS V14.00,2013-02-20 04:35:00,
2013-02-19 23:36:00,50.2,48.8,30.04,WNW,303,2.0,4.0,95,0.00,,---,0.22,VWS V14.00,2013-02-20 04:36:00,
2013-02-19 23:37:00,50.1,49.0,30.04,WNW,303,0.0,2.0,96,0.00,,---,0.22,VWS V14.00,2013-02-20 04:37:00,
2013-02-19 23:38:00,50.2,49.1,30.04,WNW,303,0.0,2.0,96,0.00,,---,0.22,VWS V14.00,2013-02-20 04:38:00,
2013-02-19 23:39:00,50.4,49.3,30.04,West,276,6.0,6.0,96,0.00,,---,0.22,VWS V14.00,2013-02-20 04:39:00,
2013-02-19 23:40:00,50.3,49.2,30.04,NW,305,2.0,4.0,96,0.00,,---,0.22,VWS V14.00,2013-02-20 04:40:00,
2013-02-19 23:41:00,50.3,49.2,30.04,NW,305,0.0,2.0,96,0.00,,---,0.22,VWS V14.00,2013-02-20 04:41:00,
2013-02-19 23:42:00,50.4,49.3,30.04,NW,305,0.0,4.0,96,0.00,,---,0.22,VWS V14.00,2013-02-20 04:42:00,
2013-02-19 23:43:00,50.4,49.3,30.03,NW,304,5.0,5.0,96,0.00,,---,0.22,VWS V14.00,2013-02-20 04:43:00,
2013-02-19 23:44:00,50.5,49.4,30.04,NW,311,2.0,4.0,96,0.00,,---,0.22,VWS V14.00,2013-02-20 04:44:00,
2013-02-19 23:45:00,50.4,49.3,30.04,WNW,284,6.0,6.0,96,0.00,,---,0.22,VWS V14.00,2013-02-20 04:45:00,
2013-02-19 23:46:00,50.4,49.3,30.04,WNW,291,0.0,6.0,96,0.00,,---,0.22,VWS V14.00,2013-02-20 04:46:00,
2013-02-19 23:47:00,50.5,49.4,30.04,NW,311,2.0,5.0,96,0.00,,---,0.22,VWS V14.00,2013-02-20 04:47:00,
2013-02-19 23:48:00,50.5,49.4,30.04,NW,311,0.0,0.0,96,0.00,,---,0.22,VWS V14.00,2013-02-20 04:48:00,
2013-02-19 23:49:00,50.6,49.5,30.03,NW,319,1.0,1.0,96,0.00,,---,0.22,VWS V14.00,2013-02-20 04:49:00,
2013-02-19 23:50:00,50.5,49.4,30.04,WNW,291,4.0,4.0,96,0.00,,---,0.22,VWS V14.00,2013-02-20 04:50:00,
2013-02-19 23:51:00,50.6,49.5,30.04,WSW,246,1.0,6.0,96,0.00,,---,0.22,VWS V14.00,2013-02-20 04:51:00,
2013-02-19 23:52:00,50.6,49.5,30.03,WSW,246,0.0,1.0,96,0.00,,---,0.22,VWS V14.00,2013-02-20 04:52:00,
2013-02-19 23:53:00,50.6,49.5,30.04,NW,319,1.0,5.0,96,0.00,,---,0.22,VWS V14.00,2013-02-20 04:53:00,
2013-02-19 23:54:00,50.6,49.5,30.03,WNW,286,5.0,5.0,96,0.00,,---,0.22,VWS V14.00,2013-02-20 04:54:00,
2013-02-19 23:55:00,50.6,49.5,30.03,NW,319,0.0,1.0,96,0.00,,---,0.22,VWS V14.00,2013-02-20 04:55:00,
2013-02-19 23:56:00,50.6,49.5,30.04,NW,319,1.0,1.0,96,0.00,,---,0.22,VWS V14.00,2013-02-20 04:56:00,
2013-02-19 23:57:00,50.6,49.5,30.04,NW,319,0.0,4.0,96,0.00,,---,0.22,VWS V14.00,2013-02-20 04:57:00,
2013-02-19 23:58:00,50.6,49.5,30.03,NW,319,0.0,1.0,96,0.00,,---,0.22,VWS V14.00,2013-02-20 04:58:00,
2013-02-19 23:59:00,50.6,49.5,30.04,NW,319,1.0,4.0,96,0.00,,---,0.00,VWS V14.00,2013-02-20 04:59:00,